Date StartTime U_cm/s V_cm/s W_cm/s Ustd_cm/s Vstd_cm/s Wstd_cm/s Uvar_(cm/s)^2 Vvar_(cm/s)^2 Wvar_(cm/s)^2 KE_(m/s)^2 TurbulentKE_(m/s)^2 HorizWindSpeed_cm/s FrictionSpeec_cm/s DragCoef SpeedOfSound_m/s SonicTemperature_C Pressure_mb 
10/09/2013  00:00:00      -35.370      216.653      -26.522       56.801       63.434       28.952     3226.403     4023.921      838.200        2.849        0.404      219.521       18.386        0.007      338.528       11.239      851.467
10/09/2013  00:01:00      -49.930      201.738      -23.970       53.896       70.810       32.032     2904.786     5014.032     1026.054        2.635        0.447      207.825       29.758        0.021      338.506       11.204      851.461
10/09/2013  00:02:00      -52.914      244.479      -19.169       55.293       82.248       48.135     3057.355     6764.681     2316.989        3.754        0.607      250.139       44.257        0.031      338.481       11.157      851.448
10/09/2013  00:03:00      -66.566      188.912      -20.482       62.141       58.902       38.306     3861.529     3469.457     1467.337        2.467        0.440      200.297       36.414        0.033      338.490       11.177      851.427
10/09/2013  00:04:00      -62.291      218.804      -21.743       65.841       73.161       41.949     4335.003     5352.546     1759.696        3.184        0.572      227.498       26.873        0.014      338.489       11.173      851.399
10/09/2013  00:05:00      -75.521      250.551      -33.615       69.285       77.612       47.700     4800.407     6023.607     2275.337        4.135        0.655      261.686       43.343        0.027      338.499       11.189      851.372
10/09/2013  00:06:00      -78.622      187.807      -17.604       61.746       62.279       43.257     3812.576     3878.620     1871.207        2.566        0.478      203.600       41.017        0.041      338.483       11.162      851.346
10/09/2013  00:07:00      -98.957      214.567      -28.095       81.393       61.515       37.608     6624.813     3784.148     1414.342        3.422        0.591      236.287       35.425        0.022      338.521       11.226      851.328
10/09/2013  00:08:00      -57.957      172.599      -17.351       83.688      113.005       39.118     7003.711    12770.124     1530.217        2.737        1.065      182.070       44.368        0.059      338.507       11.204      851.315
10/09/2013  00:09:00      -58.756      216.409      -20.365       49.317       76.460       34.255     2432.194     5846.138     1173.405        3.007        0.473      224.244       29.386        0.017      338.501       11.191      851.285
10/09/2013  00:10:00      -46.707      201.056      -22.587       68.455      116.171       40.743     4686.028    13495.629     1659.953        3.147        0.992      206.410       37.892        0.034      338.491       11.176      851.249
10/09/2013  00:11:00      -89.443      178.530      -24.081       71.907       72.570       44.324     5170.677     5266.441     1964.618        2.642        0.620      199.683       38.945        0.038      338.468       11.137      851.232
10/09/2013  00:12:00     -102.253      285.356      -32.826       64.941       90.868       48.971     4217.302     8257.021     2398.129        5.391        0.744      303.123       46.488        0.024      338.462       11.125      851.214
10/09/2013  00:13:00      -63.882      231.464      -15.648       49.535      101.473       47.975     2453.762    10296.691     2301.576        3.647        0.753      240.118       54.292        0.051      338.477       11.152      851.210
10/09/2013  00:14:00      -62.936      129.853      -29.272       74.493       72.413       32.844     5549.236     5243.693     1078.753        1.677        0.594      144.301       25.751        0.032      338.507       11.205      851.199
10/09/2013  00:15:00      -76.477       41.181       -0.228       67.686       45.002       34.384     4581.445     2025.181     1182.278        0.767        0.389       86.860       26.995        0.097      338.480       11.158      851.192
10/09/2013  00:16:00     -138.191      120.169      -24.155       69.784       73.197       46.562     4869.843     5357.761     2168.024        2.326        0.620      183.132       48.739        0.071      338.411       11.042      851.181
10/09/2013  00:17:00     -141.669      135.166      -36.010       62.598      106.132       41.070     3918.568    11263.971     1686.704        2.825        0.843      195.806       45.668        0.054      338.389       11.006      851.184
10/09/2013  00:18:00     -137.306      227.162      -28.765       61.556       91.384       44.820     3789.090     8351.030     2008.845        4.271        0.707      265.435       38.537        0.021      338.358       10.951      851.183
10/09/2013  00:19:00     -166.201      219.202      -32.505      102.421      108.577       59.549    10490.080    11788.874     3546.108        5.127        1.291      275.086       54.466        0.039      338.380       10.987      851.165
10/09/2013  00:20:00     -191.825      225.986      -48.852       80.841       84.471       46.274     6535.322     7135.289     2141.280        5.303        0.791      296.423       37.520        0.016      338.361       10.958      851.158
10/09/2013  00:21:00     -163.043      176.791      -32.687       60.492       90.175       39.413     3659.324     8131.522     1553.371        3.612        0.667      240.496       37.893        0.025      338.335       10.914      851.151
10/09/2013  00:22:00     -192.433      180.238      -40.226       79.154       98.774       52.692     6265.408     9756.257     2776.479        4.496        0.940      263.660       57.949        0.048      338.337       10.916      851.147
10/09/2013  00:23:00     -134.177      252.836      -28.859       86.435       97.838       55.037     7471.024     9572.329     3029.024        5.141        1.004      286.234       59.489        0.043      338.309       10.870      851.150
10/09/2013  00:24:00     -119.257      165.540      -19.285       70.543       93.480       45.523     4976.346     8738.518     2072.360        2.889        0.789      204.024       36.318        0.032      338.317       10.886      851.138
10/09/2013  00:25:00     -149.165      153.067      -32.862       66.201       79.282       45.333     4382.585     6285.636     2055.097        2.974        0.636      213.728       45.354        0.045      338.313       10.878      851.128
10/09/2013  00:26:00     -138.296      118.933      -33.286       56.385       76.179       36.711     3179.216     5803.218     1347.723        2.235        0.517      182.402       35.740        0.038      338.322       10.892      851.122
10/09/2013  00:27:00     -137.456      136.981      -26.262       61.390       72.329       45.757     3768.697     5231.412     2093.674        2.472        0.555      194.056       41.001        0.045      338.321       10.890      851.131
10/09/2013  00:28:00     -109.132      112.354      -29.624       40.425       47.806       34.979     1634.219     2285.455     1223.565        1.528        0.257      156.631       30.096        0.037      338.299       10.854      851.117
10/09/2013  00:29:00      -89.721      126.865      -13.554       54.719       60.875       45.567     2994.153     3705.762     2076.308        1.655        0.439      155.385       31.332        0.041      338.292       10.844      851.101
10/09/2013  00:30:00      -77.006      108.852      -17.458       66.594       45.740       29.654     4434.698     2092.159      879.355        1.274        0.370      133.336       30.914        0.054      338.336       10.916      851.090
10/09/2013  00:31:00      -39.885      128.387       -7.012       29.145       59.667       27.611      849.445     3560.162      762.368        1.165        0.259      134.439       24.351        0.033      338.329       10.907      851.085
10/09/2013  00:32:00      -89.973      191.924      -19.047       49.558       61.149       36.180     2455.971     3739.238     1308.984        2.640        0.375      211.967       33.375        0.025      338.328       10.902      851.061
10/09/2013  00:33:00      -59.680      118.517       -6.972       49.116       55.591       28.906     2412.407     3090.404      835.534        1.200        0.317      132.695       23.606        0.032      338.290       10.842      851.047
10/09/2013  00:34:00      -92.616      192.999      -29.489       62.079       58.469       42.970     3853.792     3418.626     1846.432        2.791        0.456      214.071       34.959        0.027      338.259       10.786      851.030
10/09/2013  00:35:00     -134.784      160.618      -38.428       64.521       69.868       36.896     4162.983     4881.478     1361.308        2.792        0.520      209.678       34.507        0.027      338.266       10.800      851.023
10/09/2013  00:36:00     -119.653      119.820      -26.891       48.859       52.071       28.067     2387.173     2711.422      787.731        1.764        0.294      169.333       29.506        0.030      338.249       10.772      851.025
10/09/2013  00:37:00      -96.780       67.784      -18.694       39.073       35.887       24.670     1526.703     1287.904      608.620        0.887        0.171      118.157       20.632        0.030      338.243       10.762      851.016
10/09/2013  00:38:00     -137.832      168.676      -42.469       58.828       64.443       36.428     3460.682     4152.904     1327.011        2.909        0.447      217.829       39.709        0.033      338.235       10.746      851.018
10/09/2013  00:39:00     -155.689      150.247      -31.181       62.472       68.985       49.099     3902.784     4758.957     2410.751        2.943        0.554      216.364       46.316        0.046      338.223       10.726      851.013
10/09/2013  00:40:00     -111.016       80.723       -9.399       65.347       53.316       34.342     4270.217     2842.616     1179.403        1.361        0.415      137.262       24.337        0.031      338.243       10.761      851.029
10/09/2013  00:41:00     -143.277      101.536      -24.289       64.038       94.335       34.743     4100.883     8899.164     1207.107        2.281        0.710      175.607       31.502        0.032      338.240       10.756      851.033
10/09/2013  00:42:00     -145.338      128.306      -31.990       65.445       66.961       39.361     4283.012     4483.839     1549.295        2.446        0.516      193.870       41.728        0.046      338.218       10.718      851.025
10/09/2013  00:43:00      -66.814       76.376       -1.594       67.480       57.981       34.888     4553.567     3361.768     1217.183        0.971        0.457      101.476       36.794        0.131      338.200       10.689      851.026
10/09/2013  00:44:00     -124.513      168.599      -25.069       61.096       68.273       40.797     3732.694     4661.184     1664.404        2.731        0.503      209.593       33.101        0.025      338.208       10.699      851.021
10/09/2013  00:45:00      -77.440       80.266      -15.611       37.907       50.519       24.233     1436.919     2552.199      587.261        0.863        0.229      111.533       24.345        0.048      338.295       10.848      851.018
10/09/2013  00:46:00      -80.721      127.866       -9.494       65.086       85.989       32.757     4236.173     7394.180     1073.015        1.783        0.635      151.214       29.404        0.038      338.267       10.802      851.010
10/09/2013  00:47:00      -73.595       98.091       -8.177       62.905       66.625       34.573     3957.001     4438.865     1195.293        1.235        0.480      122.630       28.853        0.055      338.255       10.782      851.003
10/09/2013  00:48:00      -55.383       65.053       -2.471       80.367       70.716       39.576     6458.922     5000.700     1566.263        1.016        0.651       85.435       40.352        0.223      338.293       10.847      850.986
10/09/2013  00:49:00      -83.453       69.240      -16.216       33.305       50.446       25.274     1109.255     2544.749      638.756        0.816        0.215      108.437       16.564        0.023      338.242       10.759      850.973
10/09/2013  00:50:00       -3.332       40.328       21.810       42.116       40.754       33.582     1773.783     1660.890     1127.768        0.334        0.228       40.466       26.783        0.438      338.253       10.779      850.969
10/09/2013  00:51:00      -80.722      114.449      -19.445       58.968       56.815       33.928     3477.173     3227.924     1151.097        1.392        0.393      140.053       30.763        0.048      338.263       10.794      850.954
10/09/2013  00:52:00      -55.164      143.984      -14.530       29.878       62.098       22.245      892.675     3856.222      494.846        1.461        0.262      154.189       17.961        0.014      338.284       10.830      850.933
10/09/2013  00:53:00      -60.131       52.064       11.557       76.764      104.981       40.232     5892.646    11021.097     1618.626        1.249        0.927       79.539       43.675        0.302      338.232       10.742      850.920
10/09/2013  00:54:00       -7.854       54.594       11.756       30.457       35.274       25.953      927.605     1244.261      673.573        0.301        0.142       55.156       27.511        0.249      338.254       10.780      850.911
10/09/2013  00:55:00      -89.931       60.224      -16.214       38.747       27.811       31.862     1501.296      773.462     1015.219        0.763        0.164      108.234       23.407        0.047      338.200       10.691      850.916
10/09/2013  00:56:00      -33.854       68.229       -0.476       52.571       46.631       27.429     2763.759     2174.484      752.361        0.574        0.285       76.166       31.665        0.173      338.251       10.776      850.913
10/09/2013  00:57:00      -60.832      120.980      -17.479       36.389       45.737       23.109     1324.123     2091.877      534.010        1.130        0.198      135.413       22.829        0.028      338.256       10.784      850.901
10/09/2013  00:58:00     -114.587       48.015      -21.624       40.621       24.425       25.324     1650.064      596.583      641.314        0.939        0.144      124.240       17.935        0.021      338.246       10.766      850.894
10/09/2013  00:59:00      -52.854       52.810        4.595       55.996       46.960       34.046     3135.558     2205.196     1159.155        0.605        0.325       74.716       29.561        0.157      338.225       10.732      850.870
10/09/2013  01:00:00      -40.756       81.539        0.715       58.618       62.064       36.052     3436.107     3851.933     1299.727        0.845        0.429       91.157       38.948        0.183      338.215       10.713      850.867
10/09/2013  01:01:00     -103.158      149.742      -22.276       49.050       65.018       31.016     2405.885     4227.317      962.015        2.058        0.380      181.836       27.383        0.023      338.176       10.646      850.864
10/09/2013  01:02:00      -97.420       80.615      -17.091       68.907       46.299       35.308     4748.146     2143.598     1246.657        1.221        0.407      126.450       29.231        0.053      338.184       10.663      850.856
10/09/2013  01:03:00      -23.177      118.593      -14.224       30.471       82.537       28.215      928.475     6812.358      796.085        1.167        0.427      120.837       39.112        0.105      338.199       10.685      850.854
10/09/2013  01:04:00      -78.154       68.343      -12.933       50.158       65.628       33.561     2515.853     4307.058     1126.365        0.945        0.397      103.821       30.474        0.086      338.219       10.721      850.841
10/09/2013  01:05:00     -170.464      147.573      -36.758       60.301       65.144       40.079     3636.204     4243.802     1606.307        3.083        0.474      225.468       38.682        0.029      338.158       10.615      850.839
10/09/2013  01:06:00     -104.443       68.550       -8.198       61.795       31.937       32.547     3818.683     1020.002     1059.300        1.079        0.295      124.930       23.358        0.035      338.143       10.594      850.827
10/09/2013  01:07:00     -102.150      109.240      -21.003      100.942       69.972       40.839    10189.287     4896.012     1667.788        1.978        0.838      149.559       40.367        0.073      338.153       10.609      850.816
10/09/2013  01:08:00      -59.568      189.175      -14.968       55.465       69.387       33.147     3076.349     4814.533     1098.730        2.427        0.449      198.332       32.027        0.026      338.166       10.629      850.796
10/09/2013  01:09:00     -116.069      202.547      -31.150       62.675       62.807       35.385     3928.173     3944.659     1252.122        3.229        0.456      233.447       29.881        0.016      338.132       10.572      850.787
10/09/2013  01:10:00      -80.964       90.487      -18.973       52.992       69.628       33.119     2808.184     4848.020     1096.895        1.193        0.438      121.421       34.718        0.082      338.138       10.585      850.774
10/09/2013  01:11:00      -18.608      207.218      -27.038       35.470       70.404       27.664     1258.143     4956.682      765.324        2.550        0.349      208.052       34.361        0.027      338.133       10.574      850.751
10/09/2013  01:12:00      -86.279       58.271      -12.600       34.288       57.469       27.990     1175.645     3302.690      783.461        0.813        0.263      104.113       23.688        0.052      338.161       10.622      850.733
10/09/2013  01:13:00     -115.775       98.955      -23.717       73.482       81.946       34.258     5399.599     6715.137     1173.615        1.852        0.664      152.302       24.754        0.026      338.124       10.561      850.707
10/09/2013  01:14:00      -39.668       92.224        7.637       71.721       63.853       40.393     5143.962     4077.195     1631.569        1.049        0.543      100.393       33.340        0.110      338.105       10.529      850.682
10/09/2013  01:15:00      -51.213       66.506        2.441       33.108       73.012       30.551     1096.142     5330.807      933.365        0.720        0.368       83.940       22.623        0.073      338.194       10.678      850.659
10/09/2013  01:16:00      -82.032      117.644      -14.883       54.606       41.835       30.162     2981.841     1750.183      909.774        1.322        0.282      143.420       27.926        0.038      338.132       10.575      850.645
10/09/2013  01:17:00      -34.527      113.244       -3.706       39.919       84.292       38.695     1593.503     7105.150     1497.265        1.211        0.510      118.390       34.298        0.084      338.163       10.627      850.638
10/09/2013  01:18:00      -98.816       70.360        1.219       78.317       78.355       40.695     6133.601     6139.471     1656.059        1.432        0.696      121.306       30.367        0.063      338.178       10.649      850.629
10/09/2013  01:19:00     -142.747      102.179      -14.300       77.544       70.097       46.184     6013.036     4913.564     2132.951        2.204        0.653      175.549       43.933        0.063      338.141       10.589      850.615
10/09/2013  01:20:00     -177.487      173.928      -36.585       62.546       91.741       38.237     3912.024     8416.390     1462.105        3.844        0.690      248.501       32.942        0.018      338.144       10.592      850.607
10/09/2013  01:21:00     -116.228      152.885      -25.431       69.030       87.985       47.396     4765.158     7741.294     2246.342        2.614        0.738      192.049       42.194        0.048      338.139       10.585      850.597
10/09/2013  01:22:00     -152.858      111.663      -22.353       85.101       69.886       48.381     7242.185     4883.987     2340.718        2.540        0.723      189.299       43.009        0.052      338.139       10.584      850.590
10/09/2013  01:23:00     -114.832      100.402      -13.070       69.403       59.485       45.207     4816.747     3538.492     2043.638        1.692        0.520      152.535       44.801        0.086      338.120       10.555      850.591
10/09/2013  01:24:00     -150.019      198.889      -45.812       56.421       62.096       33.204     3183.348     3855.892     1102.482        3.615        0.407      249.123       24.567        0.010      338.136       10.578      850.604
10/09/2013  01:25:00     -108.332      170.219      -23.529       61.848       65.969       37.142     3825.152     4351.971     1379.544        2.541        0.478      201.768       29.498        0.021      338.163       10.625      850.611
10/09/2013  01:26:00     -116.053      184.051      -24.660       65.605       88.006       42.576     4303.987     7745.060     1812.697        3.090        0.693      217.585       40.119        0.034      338.145       10.596      850.609
10/09/2013  01:27:00     -116.028       99.165       -7.938       62.528       52.472       37.452     3909.759     2753.342     1402.668        1.571        0.403      152.631       27.894        0.033      338.177       10.650      850.595
10/09/2013  01:28:00     -101.685       93.068       -6.728       69.143       63.855       39.057     4780.736     4077.514     1525.439        1.471        0.519      137.846       31.700        0.053      338.155       10.614      850.591
10/09/2013  01:29:00      -27.005       67.049        5.113       51.854       43.561       33.797     2688.862     1897.589     1142.238        0.549        0.286       72.283       21.268        0.087      338.193       10.677      850.593
10/09/2013  01:30:00      -84.458       79.232      -12.222       46.565       48.167       23.699     2168.312     2320.059      561.664        0.930        0.253      115.805       16.020        0.019      338.186       10.664      850.597
10/09/2013  01:31:00     -127.951       78.110      -19.471       56.446       52.564       29.433     3186.131     2763.009      866.294        1.483        0.341      149.909       26.902        0.032      338.175       10.647      850.591
10/09/2013  01:32:00      -88.389      153.772      -21.439       76.258       77.649       34.671     5815.289     6029.375     1202.092        2.248        0.652      177.365       32.487        0.034      338.195       10.677      850.570
10/09/2013  01:33:00      -73.627       76.980      -12.035       43.413       40.055       21.864     1884.721     1604.395      478.026        0.773        0.198      106.521       12.818        0.014      338.259       10.789      850.549
10/09/2013  01:34:00      -36.868       53.924       -2.806       32.018       40.803       21.849     1025.181     1664.876      477.387        0.372        0.158       65.323       16.858        0.067      338.198       10.685      850.536
10/09/2013  01:35:00      -62.919       35.261       -6.438       33.200       30.047       22.330     1102.264      902.828      498.627        0.387        0.125       72.125       18.427        0.065      338.187       10.667      850.519
10/09/2013  01:36:00     -113.742      128.705      -24.114       41.208       55.273       31.500     1698.119     3055.061      992.244        1.791        0.287      171.762       28.686        0.028      338.161       10.623      850.513
10/09/2013  01:37:00      -60.502       52.782       -4.107       36.238       51.935       18.869     1313.173     2697.283      356.030        0.541        0.218       80.290       21.424        0.071      338.152       10.610      850.506
10/09/2013  01:38:00      -50.787       37.642       -0.530       46.516       49.869       26.567     2163.703     2486.881      705.810        0.468        0.268       63.216       31.427        0.247      338.195       10.681      850.489
10/09/2013  01:39:00      -99.917       56.355      -16.290       39.838       36.124       22.276     1587.030     1304.935      496.229        0.841        0.169      114.714       23.401        0.042      338.158       10.620      850.482
10/09/2013  01:40:00     -124.579       78.892      -27.564       51.894       52.872       26.874     2693.017     2795.416      722.228        1.436        0.311      147.458       24.472        0.028      338.138       10.587      850.472
10/09/2013  01:41:00      -74.200      103.549      -18.834       49.694       46.314       35.456     2469.537     2145.032     1257.112        1.123        0.294      127.389       27.704        0.047      338.155       10.614      850.470
10/09/2013  01:42:00     -100.035       92.374      -24.272       49.310       66.681       29.975     2431.478     4446.305      898.509        1.345        0.389      136.162       24.256        0.032      338.131       10.572      850.466
10/09/2013  01:43:00     -118.756      184.102      -25.839       59.492       66.555       39.485     3539.345     4429.587     1559.070        2.909        0.476      219.081       38.999        0.032      338.104       10.524      850.465
10/09/2013  01:44:00     -115.784      119.951      -34.073       40.466       62.493       31.390     1637.466     3905.409      985.306        1.774        0.326      166.716       31.874        0.037      338.124       10.560      850.477
10/09/2013  01:45:00     -139.763      135.975      -30.069       52.324       65.187       35.778     2737.832     4249.376     1280.038        2.360        0.413      194.995       31.733        0.026      338.113       10.543      850.473
10/09/2013  01:46:00     -116.190       86.405      -19.286       58.113       56.715       30.195     3377.152     3216.600      911.743        1.442        0.375      144.796       31.542        0.047      338.110       10.538      850.468
10/09/2013  01:47:00     -103.536       99.818      -14.087       65.946       90.856       43.564     4348.816     8254.765     1897.842        1.769        0.725      143.817       40.470        0.079      338.106       10.529      850.461
10/09/2013  01:48:00     -116.717      119.898      -12.673       67.494       87.249       37.336     4555.387     7612.443     1393.977        2.086        0.678      167.327       27.328        0.027      338.118       10.551      850.462
10/09/2013  01:49:00     -118.156       83.338      -13.975       52.059       60.061       34.732     2710.126     3607.368     1206.317        1.431        0.376      144.589       23.113        0.026      338.159       10.619      850.469
10/09/2013  01:50:00     -126.485      115.836      -15.601       78.091       53.450       42.512     6098.183     2856.919     1807.228        2.021        0.538      171.512       42.938        0.063      338.101       10.522      850.475
10/09/2013  01:51:00      -99.721      147.031      -19.748       39.324       65.147       28.820     1546.354     4244.172      830.594        1.929        0.331      177.658       25.552        0.021      338.146       10.598      850.471
10/09/2013  01:52:00     -108.278      162.562      -28.165       61.742       56.362       38.699     3812.017     3176.660     1497.591        2.371        0.424      195.322       38.537        0.039      338.140       10.587      850.463
10/09/2013  01:53:00     -142.933       82.350      -28.034       45.420       30.275       27.621     2062.994      916.571      762.933        1.587        0.187      164.959       24.061        0.021      338.152       10.609      850.456
10/09/2013  01:54:00      -83.628       19.683        0.228       32.034       43.470       27.442     1026.162     1889.646      753.048        0.552        0.183       85.913       20.218        0.055      338.176       10.650      850.455
10/09/2013  01:55:00      -63.464       81.118      -22.375       27.819       31.846       24.673      773.911     1014.171      608.745        0.675        0.120      102.994       19.904        0.037      338.183       10.661      850.450
10/09/2013  01:56:00      -64.153      104.709      -10.333       32.156       46.791       28.597     1034.007     2189.383      817.764        0.961        0.202      122.799       22.341        0.033      338.163       10.627      850.444
10/09/2013  01:57:00      -63.335       70.371      -11.456       32.797       34.929       19.142     1075.631     1220.069      366.421        0.588        0.133       94.676       17.492        0.034      338.186       10.666      850.440
10/09/2013  01:58:00      -85.945       30.884      -10.052       31.956       30.841       13.845     1021.208      951.176      191.694        0.530        0.108       91.325       12.428        0.019      338.173       10.645      850.429
10/09/2013  01:59:00      -65.791       36.740      -11.079       26.087       39.137       21.708      680.511     1531.741      471.229        0.424        0.134       75.354       24.042        0.102      338.162       10.626      850.409
10/09/2013  02:00:00      -31.921       33.022        2.741       25.974       33.379       19.941      674.665     1114.161      397.653        0.215        0.109       45.929       14.749        0.103      338.175       10.648      850.383
10/09/2013  02:01:00      -76.305       50.983      -16.964       29.340       46.864       19.642      860.864     2196.230      385.813        0.608        0.172       91.770       25.087        0.075      338.191       10.672      850.356
10/09/2013  02:02:00      -43.499      142.572       -5.202       48.220       75.600       32.753     2325.126     5715.330     1072.758        1.568        0.456      149.061       33.140        0.049      338.164       10.630      850.338
10/09/2013  02:03:00     -130.628      147.001      -29.715       46.403       80.582       28.034     2153.220     6493.389      785.930        2.449        0.472      196.654       32.603        0.027      338.172       10.641      850.323
10/09/2013  02:04:00      -47.410      137.951      -14.723       24.439       71.701       24.236      597.274     5140.989      587.378        1.391        0.316      145.871       29.013        0.040      338.164       10.629      850.315
10/09/2013  02:05:00      -39.326       89.849      -15.103       41.898       55.320       21.773     1755.446     3060.303      474.048        0.757        0.264       98.079       16.780        0.029      338.189       10.671      850.303
10/09/2013  02:06:00      -15.262      106.005       -6.356       30.341       52.716       16.437      920.596     2778.932      270.180        0.774        0.198      107.098       20.618        0.037      338.169       10.638      850.298
10/09/2013  02:07:00       -8.417      105.600       -7.119       22.663       32.244       21.202      513.611     1039.668      449.532        0.664        0.100      105.934       11.711        0.012      338.151       10.607      850.289
10/09/2013  02:08:00      -15.746      102.537      -10.623       26.263       59.794       20.861      689.741     3575.303      435.165        0.779        0.235      103.739       28.773        0.077      338.039       10.419      850.280
10/09/2013  02:09:00      -81.114       35.811      -11.346       45.650       40.910       16.582     2083.931     1673.662      274.961        0.601        0.202       88.667        4.678        0.003      338.056       10.448      850.265
10/09/2013  02:10:00     -100.708       93.915      -21.616       48.385       47.342       25.247     2341.150     2241.280      637.389        1.232        0.261      137.703       23.230        0.028      338.079       10.488      850.254
10/09/2013  02:11:00      -81.708       82.929       -7.927       48.728       41.021       29.327     2374.374     1682.715      860.083        0.927        0.246      116.419       34.069        0.086      338.050       10.439      850.250
10/09/2013  02:12:00      -78.607      197.582      -35.240       73.827       53.573       27.482     5450.435     2870.101      755.247        2.777        0.454      212.644       24.747        0.014      338.096       10.512      850.241
10/09/2013  02:13:00      -74.380       96.557      -17.352       42.393       41.995       25.533     1797.158     1763.572      651.920        0.968        0.211      121.884       20.328        0.028      338.105       10.529      850.237
10/09/2013  02:14:00      -96.530      113.007      -27.128       61.004       77.422       46.559     3721.430     5994.113     2167.724        1.735        0.594      148.623       50.751        0.117      338.098       10.516      850.233
10/09/2013  02:15:00     -124.535      242.650      -33.021       58.345       79.122       43.944     3404.083     6260.253     1931.055        4.353        0.580      272.741       39.735        0.021      338.023       10.390      850.232
10/09/2013  02:16:00     -162.068      165.468      -38.378       60.318       87.407       40.759     3638.285     7639.942     1661.289        3.403        0.647      231.615       33.691        0.021      338.042       10.423      850.218
10/09/2013  02:17:00     -151.013      113.475      -15.957      114.557       60.377       48.043    13123.232     3645.362     2308.148        2.750        0.954      188.895       53.797        0.081      338.019       10.386      850.209
10/09/2013  02:18:00     -115.101       95.822      -20.584       60.756       48.505       33.701     3691.242     2352.687     1135.731        1.502        0.359      149.766       31.908        0.045      337.997       10.349      850.196
10/09/2013  02:19:00      -60.454      196.776       -6.684       62.112       75.305       49.190     3857.889     5670.811     2419.661        2.718        0.597      205.853       40.117        0.038      337.968       10.299      850.179
10/09/2013  02:20:00      -81.188      152.205      -11.093       63.655      107.628       44.375     4051.900    11583.869     1969.112        2.374        0.880      172.504       42.761        0.061      337.994       10.342      850.169
10/09/2013  02:21:00     -170.590      187.190      -47.963       63.159       65.075       38.763     3988.999     4234.787     1502.542        3.808        0.486      253.261       31.462        0.015      337.924       10.223      850.155
10/09/2013  02:22:00     -108.147      117.450      -24.357       67.823       49.104       31.370     4599.948     2411.225      984.066        1.704        0.400      159.657       27.235        0.029      337.891       10.169      850.138
10/09/2013  02:23:00     -130.274      136.814      -31.422       50.345       66.388       27.060     2534.648     4407.416      732.262        2.217        0.384      188.917       19.189        0.010      337.879       10.149      850.129
10/09/2013  02:24:00      -60.975      121.879      -13.161       57.560       53.320       30.849     3313.179     2843.034      951.677        1.293        0.355      136.281       30.772        0.051      337.883       10.157      850.114
10/09/2013  02:25:00     -144.864      214.640      -28.811       93.408      124.037       42.383     8725.031    15385.107     1796.358        4.689        1.295      258.951       35.517        0.019      337.803       10.020      850.110
10/09/2013  02:26:00     -128.833      205.952      -23.399       96.551      115.111       60.200     9322.085    13250.586     3624.092        4.287        1.310      242.928       47.257        0.038      337.745        9.925      850.081
10/09/2013  02:27:00     -115.905      150.880      -23.623      102.146       83.584       50.196    10433.748     6986.273     2519.685        2.834        0.997      190.260       48.149        0.064      337.755        9.941      850.057
10/09/2013  02:28:00      -49.747      218.647       -5.738       62.815      133.081       52.057     3945.757    17710.597     2709.948        3.734        1.218      224.235       63.075        0.079      337.731        9.900      850.035
10/09/2013  02:29:00     -103.266      229.504      -31.777       60.284       97.138       45.943     3634.176     9435.809     2110.804        3.976        0.759      251.666       42.254        0.028      337.712        9.870      850.034
10/09/2013  02:30:00     -103.749      226.068      -29.143       84.980      105.421       48.981     7221.552    11113.564     2399.186        4.172        1.037      248.738       45.199        0.033      337.709        9.864      850.030
10/09/2013  02:31:00     -128.102      183.144      -23.226       85.794       90.282       56.891     7360.629     8150.860     3236.591        3.462        0.937      223.499       62.116        0.077      337.691        9.834      850.018
10/09/2013  02:32:00      -77.887      199.412       -9.541       75.610       75.898       48.125     5716.813     5760.510     2316.024        2.986        0.690      214.083       47.395        0.049      337.686        9.825      850.013
10/09/2013  02:33:00      -74.288      194.861      -10.402       82.810      147.779       60.747     6857.571    21838.534     3690.256        3.799        1.619      208.541       74.728        0.128      337.687        9.828      850.002
10/09/2013  02:34:00      -76.922      215.613      -19.830       67.070      113.933       53.899     4498.359    12980.773     2905.072        3.659        1.019      228.923       55.250        0.058      337.680        9.816      849.993
10/09/2013  02:35:00     -125.177      234.960      -40.073       60.255      115.687       45.581     3630.724    13383.376     2077.663        4.578        0.955      266.224       47.950        0.032      337.662        9.785      850.156
10/09/2013  02:36:00     -133.008      158.336      -27.390       72.748       92.210       40.806     5292.324     8502.682     1665.115        2.948        0.773      206.788       38.425        0.035      337.668        9.796      849.984
10/09/2013  02:37:00     -155.936      169.118      -40.446       63.729       72.002       40.957     4061.417     5184.304     1677.454        3.274        0.546      230.037       36.264        0.025      337.628        9.727      849.981
10/09/2013  02:38:00      -95.273       60.976       10.832      116.058       48.592       49.083    13469.431     2361.198     2409.167        1.557        0.912      113.115       54.056        0.228      337.650        9.767      849.954
10/09/2013  02:39:00     -157.990      142.540      -28.630       80.001       68.439       44.526     6400.126     4683.844     1982.584        2.958        0.653      212.787       38.654        0.033      337.608        9.694      849.942
10/09/2013  02:40:00     -125.636      161.954      -24.711       56.157       83.506       41.714     3153.662     6973.258     1740.044        2.724        0.593      204.972       43.152        0.044      337.596        9.674      849.937
10/09/2013  02:41:00      -94.768      146.720      -31.875       66.273       64.565       31.260     4392.149     4168.678      977.193        2.053        0.477      174.665       34.761        0.040      337.619        9.715      849.929
10/09/2013  02:42:00      -46.753       97.644       -3.815       67.004       50.360       37.548     4489.577     2536.157     1409.826        1.008        0.422      108.260       28.991        0.072      337.668        9.797      849.910
10/09/2013  02:43:00      -91.878      126.321      -22.369       76.923       94.057       37.672     5917.109     8846.698     1419.144        2.054        0.809      156.200       33.993        0.047      337.667        9.796      849.875
10/09/2013  02:44:00     -100.855      179.206      -31.772       59.324       85.842       45.862     3519.359     7368.841     2103.345        2.814        0.650      205.637       47.856        0.054      337.641        9.751      849.868
10/09/2013  02:45:00      -61.716      214.639      -29.083       47.206       75.456       36.254     2228.422     5693.656     1314.368        2.998        0.462      223.336       36.697        0.027      337.669        9.798      849.869
10/09/2013  02:46:00      -72.957      238.990      -22.033       81.742      115.598       49.527     6681.818    13362.972     2452.912        4.271        1.125      249.877       50.009        0.040      337.681        9.817      849.855
10/09/2013  02:47:00     -135.970      299.924      -42.177       88.093      105.134       62.562     7760.398    11053.130     3913.980        6.647        1.136      329.305       63.069        0.037      337.672        9.802      849.854
10/09/2013  02:48:00     -110.489      223.537      -29.741       74.609       74.752       43.392     5566.491     5587.862     1882.829        3.805        0.652      249.352       41.207        0.027      337.648        9.762      849.868
10/09/2013  02:49:00      -66.053      153.073        2.349       72.437      168.478       55.678     5247.177    28384.762     3100.077        3.226        1.837      166.716       53.832        0.104      337.651        9.767      849.859
10/09/2013  02:50:00     -140.209      223.291      -41.160      118.507      120.787       58.292    14043.999    14589.612     3397.943        5.162        1.602      263.662       61.987        0.055      337.618        9.711      849.861
10/09/2013  02:51:00      -76.512      172.870      -19.341       73.418      108.856       45.798     5390.229    11849.665     2097.500        2.772        0.967      189.045       48.094        0.065      337.605        9.690      849.856
10/09/2013  02:52:00      -99.819      330.588      -35.780       99.637      101.260       56.722     9927.485    10253.679     3217.341        7.196        1.170      345.329       56.379        0.027      337.584        9.652      849.860
10/09/2013  02:53:00     -188.109      255.887      -32.569       89.634      131.660       64.545     8034.310    17334.457     4166.013        6.572        1.477      317.590       61.488        0.037      337.598        9.677      849.847
10/09/2013  02:54:00     -114.968      159.728      -22.734       83.473       80.435       47.745     6967.805     6469.731     2279.596        2.748        0.786      196.801       45.858        0.054      337.637        9.744      849.833
10/09/2013  02:55:00      -61.309      142.505      -16.869       50.427       80.717       39.039     2542.872     6515.217     1524.052        1.746        0.529      155.134       28.306        0.033      337.652        9.770      849.816
10/09/2013  02:56:00     -166.638      232.126      -42.587       77.775       93.542       47.251     6049.022     8750.039     2232.700        5.024        0.852      285.746       51.994        0.033      337.620        9.713      849.820
10/09/2013  02:57:00     -152.505      170.389      -34.040       51.409       75.177       42.427     2642.840     5651.603     1800.044        3.177        0.505      228.670       32.443        0.020      337.612        9.700      849.829
10/09/2013  02:58:00      -91.035      121.104       -7.341       66.437       83.530       46.341     4413.923     6977.328     2147.517        1.827        0.677      151.505       43.245        0.081      337.623        9.721      849.814
10/09/2013  02:59:00     -208.999      196.366      -35.907      104.375      115.108       65.258    10894.198    13249.892     4258.555        5.596        1.420      286.776       71.892        0.063      337.630        9.731      849.804
10/09/2013  03:00:00     -146.368      134.032      -23.217       87.028       68.760       52.536     7573.941     4727.992     2759.991        2.749        0.753      198.465       44.889        0.051      337.610        9.699      849.802
10/09/2013  03:01:00     -178.061      171.491      -36.758       80.341       88.123       49.610     6454.681     7765.682     2461.160        3.957        0.834      247.215       44.815        0.033      337.603        9.686      849.790
10/09/2013  03:02:00     -172.991      225.389      -37.382       70.413      112.662       44.471     4958.008    12692.673     1977.653        5.087        0.981      284.123       37.311        0.017      337.596        9.674      849.770
10/09/2013  03:03:00      -93.952      105.559      -20.426       56.990       76.136       37.797     3247.893     5796.748     1428.623        1.543        0.524      141.314       37.697        0.071      337.581        9.650      849.751
10/09/2013  03:04:00     -151.628      192.736      -25.199       70.190      111.953       43.934     4926.634    12533.448     1930.183        4.008        0.970      245.231       39.384        0.026      337.566        9.622      849.738
10/09/2013  03:05:00     -152.515      220.894      -38.444       93.939      101.010       50.849     8824.560    10203.076     2585.666        4.757        1.081      268.431       43.627        0.026      337.546        9.589      849.732
10/09/2013  03:06:00     -164.728      250.150      -34.300       84.554      114.161       56.569     7149.306    13032.692     3200.096        5.713        1.169      299.517       57.636        0.037      337.555        9.604      849.732
10/09/2013  03:07:00     -172.984      154.357      -39.214       58.961       65.291       40.264     3476.400     4262.915     1621.156        3.232        0.468      231.840       37.927        0.027      337.545        9.587      849.721
10/09/2013  03:08:00     -151.256      182.446      -38.651       66.933       96.629       38.981     4480.018     9337.235     1519.546        3.649        0.767      236.991       37.455        0.025      337.546        9.588      849.721
10/09/2013  03:09:00     -151.873      195.622      -34.186       93.967       60.978       44.561     8829.829     3718.289     1985.668        3.851        0.727      247.656       48.979        0.039      337.540        9.578      849.746
10/09/2013  03:10:00      -99.863      300.891      -35.393       75.721      136.829       53.814     5733.704    18722.108     2895.893        6.455        1.368      317.030       54.309        0.029      337.526        9.556      849.747
10/09/2013  03:11:00     -120.274      318.065      -30.035       73.928      125.971       53.537     5465.332    15868.743     2866.249        7.036        1.210      340.046       61.530        0.033      337.513        9.533      849.747
10/09/2013  03:12:00     -180.978      215.410      -55.948       79.264       86.600       49.875     6282.740     7499.604     2487.503        4.927        0.813      281.344       50.365        0.032      337.508        9.525      849.748
10/09/2013  03:13:00      -99.409      236.462      -28.050       78.449       81.131       52.770     6154.213     6582.267     2784.630        4.105        0.776      256.508       47.928        0.035      337.502        9.515      849.743
10/09/2013  03:14:00     -183.481      194.718      -42.322      101.431       80.702       57.837    10288.247     6512.747     3345.065        4.675        1.007      267.545       66.111        0.061      337.480        9.479      849.724
10/09/2013  03:15:00     -120.949      205.676      -24.064       82.545       82.333       41.046     6813.683     6778.707     1684.812        3.639        0.764      238.603       34.713        0.021      337.493        9.501      849.703
10/09/2013  03:16:00     -131.971      200.625      -26.989       72.594       82.827       45.858     5269.913     6860.304     2102.995        3.631        0.712      240.139       42.417        0.031      337.492        9.499      849.689
10/09/2013  03:17:00     -177.450      251.776      -44.824       98.140      129.839       55.428     9631.480    16858.193     3072.222        6.322        1.478      308.025       68.090        0.049      337.499        9.510      849.671
10/09/2013  03:18:00     -135.847      134.097      -30.990      107.177       99.545       58.123    11486.817     9909.256     3378.320        3.108        1.239      190.884       59.876        0.098      337.495        9.505      849.647
10/09/2013  03:19:00     -116.687      141.045      -25.795       73.201       82.823       39.997     5358.427     6859.623     1599.778        2.399        0.691      183.056       41.708        0.052      337.470        9.462      849.642
10/09/2013  03:20:00     -124.820      177.142      -19.236       84.114      105.377       57.331     7075.181    11104.323     3286.794        3.439        1.073      216.701       57.714        0.071      337.461        9.447      849.627
10/09/2013  03:21:00     -112.705      156.699      -14.559       94.122       70.786       56.434     8859.037     5010.671     3184.809        2.726        0.853      193.021       55.749        0.083      337.476        9.472      849.620
10/09/2013  03:22:00     -110.507      224.637      -32.430       62.090      104.346       45.307     3855.152    10888.143     2052.769        4.026        0.840      250.347       55.135        0.049      337.520        9.546      849.603
10/09/2013  03:23:00      -89.516      135.734      -26.117       65.559       83.184       36.962     4297.933     6919.577     1366.217        1.985        0.629      162.594       33.558        0.043      337.498        9.511      849.610
10/09/2013  03:24:00     -157.389      206.072      -32.115      111.710      107.856       61.660    12479.059    11632.908     3802.007        4.809        1.396      259.301       73.914        0.081      337.480        9.477      849.603
10/09/2013  03:25:00      -98.742      242.882      -23.344       73.901       75.050       43.362     5461.343     5632.509     1880.223        4.113        0.649      262.186       40.878        0.024      337.480        9.477      849.575
10/09/2013  03:26:00     -122.436      204.702      -32.365       70.896      114.176       47.988     5026.196    13036.187     2302.822        3.915        1.018      238.524       50.175        0.044      337.470        9.463      849.567
10/09/2013  03:27:00      -95.803      186.031      -19.689       75.278      103.291       43.187     5666.849    10668.936     1865.145        3.118        0.910      209.250       41.482        0.039      337.432        9.399      849.578
10/09/2013  03:28:00     -103.869      226.913      -27.541       73.045      120.134       46.368     5335.613    14432.091     2149.952        4.247        1.096      249.556       42.852        0.029      337.449        9.429      849.578
10/09/2013  03:29:00     -105.623      132.855      -21.464       82.249       82.984       51.047     6764.895     6886.304     2605.770        2.276        0.813      169.725       39.144        0.053      337.415        9.372      849.573
10/09/2013  03:30:00     -123.435       94.738      -19.986       67.881       69.625       40.184     4607.849     4847.706     1614.741        1.784        0.554      155.601       32.214        0.043      337.400        9.347      849.557
10/09/2013  03:31:00     -208.169      225.953      -36.874      112.013      113.908       65.175    12546.826    12975.065     4247.814        6.275        1.488      307.228       70.279        0.052      337.376        9.306      849.559
10/09/2013  03:32:00     -196.758      176.943      -37.087       90.982       87.050       55.976     8277.705     7577.655     3133.301        4.519        0.949      264.618       42.117        0.025      337.358        9.274      849.553
10/09/2013  03:33:00     -112.067      192.541      -23.663       99.392       86.534       44.266     9878.810     7488.102     1959.520        3.475        0.966      222.780       39.387        0.031      337.373        9.300      849.548
10/09/2013  03:34:00     -215.921      255.042      -56.704       91.973      109.198       52.779     8459.075    11924.109     2785.663        6.902        1.158      334.168       54.408        0.027      337.340        9.245      849.545
10/09/2013  03:35:00     -170.674      220.955      -43.949       94.444      134.429       53.649     8919.751    18071.057     2878.203        5.487        1.493      279.197       51.491        0.034      337.362        9.283      849.551
10/09/2013  03:36:00     -205.191      266.192      -43.953       69.336      101.300       46.656     4807.419    10261.682     2176.762        6.607        0.862      336.097       35.477        0.011      337.355        9.269      849.548
10/09/2013  03:37:00     -151.005      237.587      -37.451       82.805       93.738       49.292     6856.610     8786.847     2429.750        4.936        0.904      281.514       52.202        0.034      337.325        9.220      849.541
10/09/2013  03:38:00     -205.957      195.859      -39.708       97.239      120.961       60.303     9455.424    14631.538     3636.478        5.503        1.386      284.216       69.348        0.060      337.317        9.209      849.522
10/09/2013  03:39:00     -148.246      195.612      -34.629       70.186       68.853       47.325     4926.069     4740.709     2239.618        3.667        0.595      245.440       42.341        0.030      337.317        9.207      849.497
10/09/2013  03:40:00     -164.620      273.494      -43.237       89.546       80.525       57.021     8018.429     6484.316     3251.356        6.076        0.888      319.216       47.787        0.022      337.295        9.170      849.472
10/09/2013  03:41:00     -183.231      250.692      -43.926       94.257      113.219       51.053     8884.400    12818.461     2606.457        6.132        1.215      310.515       62.945        0.041      337.273        9.133      849.448
10/09/2013  03:42:00     -105.533      248.024      -22.649       71.351      125.252       55.917     5090.997    15688.096     3126.763        4.853        1.195      269.542       47.020        0.030      337.318        9.208      849.413
10/09/2013  03:43:00      -58.463      319.213      -40.995       73.866      129.086       55.359     5456.226    16663.078     3064.620        6.608        1.259      324.523       52.964        0.027      337.250        9.095      849.396
10/09/2013  03:44:00      -30.840      298.846      -21.593      101.730      100.960       61.748    10348.905    10193.007     3812.864        5.754        1.218      300.433       57.507        0.037      337.215        9.037      849.388
10/09/2013  03:45:00     -130.084      283.531      -32.004      127.914      140.919       71.623    16361.911    19858.142     5129.916        6.983        2.067      311.948       72.015        0.053      337.237        9.073      849.385
10/09/2013  03:46:00     -101.929      275.328      -26.738       90.499      147.928       60.984     8190.006    21882.578     3719.046        6.034        1.690      293.590       68.376        0.054      337.231        9.064      849.376
10/09/2013  03:47:00      -45.636      246.967      -25.284       86.260      108.218       49.313     7440.799    11711.166     2431.737        4.264        1.079      251.148       52.574        0.044      337.231        9.063      849.372
10/09/2013  03:48:00      -77.536      284.994      -24.383       64.365       90.775       52.881     4142.804     8240.072     2796.432        5.150        0.759      295.353       51.293        0.030      337.201        9.013      849.372
10/09/2013  03:49:00     -120.525      184.698      -29.592       80.287       88.494       47.325     6446.023     7831.204     2239.686        3.301        0.826      220.544       37.787        0.029      337.253        9.100      849.355
10/09/2013  03:50:00     -200.656      227.859      -41.046      105.341      112.755       67.743    11096.712    12713.646     4589.152        6.113        1.420      303.616       66.329        0.048      337.190        8.994      849.328
10/09/2013  03:51:00     -198.835      248.714      -37.511      114.654      119.111       58.355    13145.621    14187.335     3405.363        6.676        1.537      318.425       45.349        0.020      337.150        8.927      849.318
10/09/2013  03:52:00     -176.896      248.442      -28.081      123.488      104.648       67.587    15249.382    10951.300     4568.067        6.228        1.538      304.985       56.101        0.034      337.140        8.909      849.320
10/09/2013  03:53:00     -167.809      219.353      -25.789       95.563      145.103       61.101     9132.360    21054.939     3733.294        5.542        1.696      276.180       52.425        0.036      337.164        8.948      849.324
10/09/2013  03:54:00     -134.195      147.901      -23.332      120.497      121.446       59.133    14519.442    14749.119     3496.714        3.659        1.638      199.708       78.586        0.155      337.160        8.944      849.324
10/09/2013  03:55:00     -186.995      108.550      -24.600      102.497      121.832       54.469    10505.618    14842.915     2966.920        3.783        1.416      216.218       61.413        0.081      337.159        8.943      849.341
10/09/2013  03:56:00     -119.303      152.936      -10.843      109.909      139.367       72.664    12079.899    19423.189     5280.010        3.725        1.839      193.965       72.401        0.139      337.143        8.916      849.338
10/09/2013  03:57:00     -124.236      172.915      -22.717      100.794       98.786       59.323    10159.357     9758.681     3519.269        3.464        1.172      212.918       52.418        0.061      337.149        8.925      849.341
10/09/2013  03:58:00     -122.636      190.398      -18.949       73.708      120.156       44.591     5432.799    14437.475     1988.360        3.675        1.093      226.475       43.357        0.037      337.159        8.942      849.359
10/09/2013  03:59:00     -150.565      249.008      -39.963       90.577       85.883       62.534     8204.196     7375.857     3910.520        5.288        0.975      290.990       52.490        0.033      337.095        8.833      849.387
10/09/2013  04:00:00      -86.325      200.013      -14.043       84.038       93.713       58.499     7062.336     8782.033     3422.176        3.346        0.963      217.847       56.753        0.068      337.102        8.845      849.402
10/09/2013  04:01:00     -120.668      281.173      -31.450       90.213      110.550       64.706     8138.367    12221.413     4186.922        5.957        1.227      305.972       50.962        0.028      337.078        8.805      849.386
10/09/2013  04:02:00      -82.460      299.992      -25.107       73.487      107.153       53.185     5400.366    11481.849     2828.621        5.856        0.986      311.119       54.032        0.030      337.047        8.753      849.368
10/09/2013  04:03:00     -205.246      310.154      -40.303      110.929      151.440       78.108    12305.292    22934.192     6100.934        9.063        2.067      371.916       82.128        0.049      337.064        8.782      849.355
10/09/2013  04:04:00     -205.698      306.808      -39.597      114.184      152.129       72.474    13037.938    23143.340     5252.471        8.971        2.072      369.382       72.716        0.039      337.073        8.797      849.350
10/09/2013  04:05:00     -185.694      225.063      -48.211      130.914      112.274       72.161    17138.571    12605.364     5207.217        6.120        1.748      291.780       72.314        0.061      337.085        8.818      849.334
10/09/2013  04:06:00     -158.613      243.943      -43.852       69.909      118.739       52.053     4887.237    14098.980     2709.494        5.414        1.085      290.974       41.287        0.020      337.078        8.804      849.319
10/09/2013  04:07:00     -147.336      312.568      -47.063       98.007      134.850       68.920     9605.372    18184.520     4749.949        7.707        1.627      345.553       53.784        0.024      337.029        8.723      849.326
10/09/2013  04:08:00     -236.605      331.281      -65.157      138.526      136.776       77.311    19189.405    18707.681     5977.011       10.692        2.194      407.098       80.054        0.039      336.993        8.663      849.332
10/09/2013  04:09:00     -257.754      307.471      -63.360      109.958      139.370       72.820    12090.868    19423.997     5302.796       10.090        1.841      401.218       77.714        0.038      336.959        8.608      849.309
10/09/2013  04:10:00     -120.796      214.040      -12.338       98.869       96.618       54.318     9775.158     9335.040     2950.474        4.130        1.103      245.773       54.522        0.049      336.971        8.627      849.292
10/09/2013  04:11:00     -140.353      219.410      -26.497       75.536      114.947       62.906     5705.741    13212.902     3957.161        4.570        1.144      260.460       52.572        0.041      336.986        8.652      849.293
10/09/2013  04:12:00      -87.511      333.025      -44.084      113.856       78.307       59.630    12963.211     6132.047     3555.774        7.157        1.133      344.331       47.712        0.019      336.958        8.605      849.282
10/09/2013  04:13:00      -78.669      302.870      -22.666       91.059      116.692       55.337     8291.741    13617.058     3062.133        6.170        1.249      312.920       54.817        0.031      336.948        8.587      849.269
10/09/2013  04:14:00     -164.733      300.197      -41.406      119.065      164.271       76.473    14176.512    26984.880     5848.074        8.298        2.350      342.426       72.665        0.045      336.906        8.518      849.265
10/09/2013  04:15:00     -148.734      368.870      -45.857       90.082      125.651       69.980     8114.739    15788.159     4897.248        9.454        1.440      397.727       61.593        0.024      336.877        8.471      849.272
10/09/2013  04:16:00     -207.937      367.986      -52.245      105.031      132.030       64.598    11031.575    17432.024     4172.948       10.700        1.632      422.672       66.173        0.025      336.878        8.472      849.253
10/09/2013  04:17:00     -263.524      196.055      -47.445      116.158      158.405       69.586    13492.676    25092.185     4842.160        7.677        2.171      328.455       63.370        0.037      336.902        8.511      849.244
10/09/2013  04:18:00     -115.063      191.070       -5.485      146.049      137.504       71.897    21330.202    18907.466     5169.226        4.758        2.270      223.041       69.826        0.098      336.918        8.540      849.239
10/09/2013  04:19:00     -219.995      256.316      -53.095      138.053      115.392       62.487    19058.521    13315.340     3904.637        7.659        1.814      337.781       75.460        0.050      336.880        8.475      849.243
10/09/2013  04:20:00     -223.979      336.993      -58.791      106.912      125.691       70.639    11430.145    15798.279     4989.815        9.970        1.611      404.637       71.116        0.031      336.864        8.450      849.253
10/09/2013  04:21:00     -160.640      263.853      -44.251      122.223      149.762       65.997    14938.425    22428.549     4355.633        6.954        2.086      308.907       66.192        0.046      336.855        8.435      849.239
10/09/2013  04:22:00     -238.264      308.856      -50.003      144.273      171.284       84.370    20814.809    29338.143     7118.379       10.596        2.864      390.079       90.600        0.054      336.856        8.435      849.212
10/09/2013  04:23:00     -180.808      290.225      -30.790      115.575      145.459       72.357    13357.558    21158.194     5235.586        7.880        1.988      341.939       64.971        0.036      336.881        8.476      849.216
10/09/2013  04:24:00     -140.964      172.781      -15.289      107.571      153.597       71.671    11571.471    23592.075     5136.685        4.512        2.015      222.989       67.603        0.092      336.901        8.510      849.209
10/09/2013  04:25:00     -257.857      212.153      -49.684      131.454      148.970       82.161    17280.165    22191.915     6750.379        8.009        2.311      333.915       92.433        0.077      336.867        8.453      849.237
10/09/2013  04:26:00     -202.582      295.410      -42.411      158.741      164.645       83.496    25198.575    27108.038     6971.656        9.468        2.964      358.199       92.843        0.067      336.844        8.415      849.236
10/09/2013  04:27:00     -231.084      296.435      -35.170      141.511      143.809       78.616    20025.265    20681.030     6180.535        9.469        2.344      375.864       74.580        0.039      336.823        8.379      849.234
10/09/2013  04:28:00     -191.914      261.762      -33.459      121.255      140.354       76.480    14702.741    19699.385     5849.130        7.335        2.013      324.577       86.026        0.070      336.845        8.416      849.246
10/09/2013  04:29:00     -199.142      212.899      -45.812      105.060      116.040       62.475    11037.701    13465.334     3903.108        5.774        1.420      291.520       55.126        0.036      336.861        8.444      849.260
10/09/2013  04:30:00     -191.034      234.772      -39.810      132.040      116.417       77.763    17434.459    13552.862     6047.132        6.511        1.852      302.675       58.154        0.037      336.853        8.429      849.263
10/09/2013  04:31:00     -178.173      290.069      -36.586      111.108      118.331       71.699    12345.009    14002.157     5140.793        7.435        1.574      340.420       71.291        0.044      336.831        8.393      849.260
10/09/2013  04:32:00     -228.515      265.398      -48.730      145.970      111.604       68.579    21307.262    12455.559     4703.079        8.174        1.923      350.221       67.885        0.038      336.827        8.387      849.263
10/09/2013  04:33:00     -179.346      259.184      -30.089      107.469      104.702       72.914    11549.650    10962.409     5316.405        6.403        1.391      315.185       69.426        0.049      336.833        8.399      849.266
10/09/2013  04:34:00     -132.732      277.616      -37.168       88.179       83.523       58.949     7775.614     6976.014     3474.936        5.714        0.911      307.714       50.105        0.027      336.818        8.371      849.249
10/09/2013  04:35:00     -160.972      246.687      -30.978      108.900      122.048       67.319    11859.153    14895.831     4531.914        5.950        1.564      294.562       57.058        0.038      336.833        8.397      849.252
10/09/2013  04:36:00     -172.021      235.156      -36.185      127.947      111.804       69.790    16370.468    12500.144     4870.690        5.996        1.687      291.358       79.128        0.074      336.828        8.389      849.257
10/09/2013  04:37:00     -144.987      223.985      -20.403       77.245       99.474       56.897     5966.716     9894.988     3237.252        4.535        0.955      266.816       56.049        0.044      336.833        8.397      849.253
10/09/2013  04:38:00     -193.996      259.289      -39.357      107.231      111.959       59.997    11498.547    12534.856     3599.581        6.702        1.382      323.829       57.811        0.032      336.820        8.373      849.281
10/09/2013  04:39:00     -236.985      270.045      -46.797      119.638      143.296       67.598    14313.347    20533.858     4569.485        8.534        1.971      359.285       62.751        0.031      336.783        8.313      849.285
10/09/2013  04:40:00     -121.288      189.584      -19.921       92.336       77.696       49.921     8525.901     6036.645     2492.128        3.405        0.853      225.061       52.739        0.055      336.800        8.343      849.289
10/09/2013  04:41:00     -247.450      326.167      -53.340      102.645      164.575       61.913    10536.084    27084.957     3833.272       10.595        2.073      409.410       56.061        0.019      336.771        8.292      849.303
10/09/2013  04:42:00     -136.692      223.310      -23.528       78.687       92.269       53.997     6191.601     8513.493     2915.654        4.336        0.881      261.825       41.263        0.025      336.770        8.292      849.311
10/09/2013  04:43:00     -237.836      288.890      -49.447      122.818      136.203       71.101    15084.351    18551.233     5055.367        9.057        1.935      374.196       69.545        0.035      336.763        8.279      849.313
10/09/2013  04:44:00     -264.252      160.794      -37.928      136.667      142.985       56.815    18677.732    20444.696     3227.931        6.973        2.118      309.327       52.911        0.029      336.758        8.270      849.313
10/09/2013  04:45:00     -132.656      326.581      -30.027      130.032      196.064       73.464    16908.408    38441.008     5396.916        9.294        3.037      352.495       74.219        0.044      336.744        8.249      849.323
10/09/2013  04:46:00     -251.734      224.541      -29.825      144.266      160.155       85.972    20812.702    25649.675     7391.118        8.425        2.693      337.326       75.177        0.050      336.756        8.269      849.302
10/09/2013  04:47:00     -295.522      313.732      -76.610       98.336      134.688       71.185     9669.994    18140.735     5067.292       11.225        1.644      431.000       66.032        0.023      336.710        8.191      849.318
10/09/2013  04:48:00     -220.924      284.049      -41.301      113.318      153.089       71.953    12840.868    23436.275     5177.173        8.632        2.073      359.849       72.526        0.041      336.726        8.218      849.325
10/09/2013  04:49:00     -266.996      362.044      -65.678      137.860      167.328       86.053    19005.503    27998.516     7405.193       13.053        2.720      449.847       95.072        0.045      336.729        8.223      849.315
10/09/2013  04:50:00     -166.132      228.651      -34.726       84.883      125.236       56.868     7205.100    15684.003     3233.979        5.360        1.306      282.633       42.960        0.023      336.748        8.254      849.318
10/09/2013  04:51:00     -222.966      268.244      -49.963      131.293      151.167       82.765    17237.760    22851.609     6849.974        8.554        2.347      348.810       82.003        0.055      336.751        8.260      849.345
10/09/2013  04:52:00     -205.888      269.811      -39.771      145.437      120.517       70.595    21152.037    14524.228     4983.630        7.871        2.033      339.393       78.527        0.054      336.753        8.263      849.343
10/09/2013  04:53:00     -232.031      309.392      -55.097      107.009      129.988       58.275    11451.023    16896.767     3395.959        9.216        1.587      386.732       63.713        0.027      336.756        8.267      849.354
10/09/2013  04:54:00     -251.140      243.322      -54.117      109.214      110.238       59.300    11927.679    12152.375     3516.435        7.640        1.380      349.681       57.786        0.027      336.742        8.244      849.372
10/09/2013  04:55:00     -204.931      330.260      -54.160      106.266      159.485       57.961    11292.464    25435.336     3359.421        9.704        2.004      388.675       59.380        0.023      336.735        8.234      849.357
10/09/2013  04:56:00     -163.027      189.984      -26.969       97.246      109.735       53.959     9456.815    12041.867     2911.606        4.390        1.221      250.344       51.997        0.043      336.751        8.260      849.348
10/09/2013  04:57:00     -262.347      294.677      -55.191      123.360      161.953       69.212    15217.762    26228.669     4790.362       10.246        2.312      394.538       80.146        0.041      336.738        8.239      849.354
10/09/2013  04:58:00     -191.801      246.473      -31.612      146.252      160.990       78.852    21389.679    25917.792     6217.605        7.602        2.676      312.308       93.022        0.089      336.749        8.256      849.335
10/09/2013  04:59:00     -224.138      288.604      -42.414       98.818      133.685       70.549     9765.093    17871.558     4977.133        8.396        1.631      365.418       65.269        0.032      336.725        8.217      849.338
10/09/2013  05:00:00     -210.622      261.300      -24.835      111.527      132.546       79.496    12438.286    17568.461     6319.637        7.478        1.816      335.618       84.468        0.063      336.736        8.234      849.338
10/09/2013  05:01:00     -126.024      188.598      -13.599      124.536      125.617       73.042    15509.134    15779.577     5335.182        4.412        1.831      226.828       82.191        0.131      336.745        8.250      849.345
10/09/2013  05:02:00     -181.040      257.435      -36.640      127.309      171.860       85.922    16207.590    29535.800     7382.579        7.675        2.656      314.719       83.427        0.070      336.719        8.207      849.345
10/09/2013  05:03:00     -154.784      242.002      -34.270      102.575      123.606       69.148    10521.534    15278.519     4781.452        5.713        1.529      287.268       69.115        0.058      336.726        8.219      849.358
10/09/2013  05:04:00     -171.842      272.682      -47.424      107.899      123.647       67.667    11642.112    15288.488     4578.813        6.882        1.575      322.312       78.513        0.059      336.715        8.199      849.341
10/09/2013  05:05:00     -176.909      313.114      -43.485      123.855      172.515       61.941    15340.162    29761.492     3836.640        9.007        2.447      359.635       93.012        0.067      336.707        8.187      849.344
10/09/2013  05:06:00     -145.478      242.019      -35.230       92.438      149.182       62.142     8544.822    22255.341     3861.636        5.781        1.733      282.378       72.492        0.066      336.711        8.195      849.348
10/09/2013  05:07:00     -224.839      343.284      -51.653      148.495      152.904       71.866    22050.884    23379.739     5164.763       11.082        2.530      410.361       70.879        0.030      336.657        8.103      849.320
10/09/2013  05:08:00     -136.874      207.767      -38.435       78.286       82.204       44.541     6128.732     6757.525     1983.899        3.912        0.744      248.800       36.568        0.022      336.686        8.152      849.305
10/09/2013  05:09:00     -225.484      282.925      -49.789       97.857      140.544       70.098     9575.896    19752.560     4913.706        8.380        1.712      361.786       69.357        0.037      336.652        8.095      849.323
10/09/2013  05:10:00     -172.924      254.476      -50.889       94.680      108.819       52.766     8964.378    11841.566     2784.237        6.042        1.180      307.670       58.340        0.036      336.663        8.114      849.343
10/09/2013  05:11:00     -142.678      190.265      -30.989       92.634       80.481       58.128     8581.081     6477.208     3378.898        3.797        0.922      237.819       53.767        0.051      336.680        8.143      849.347
10/09/2013  05:12:00     -235.688      253.626      -69.361      134.564      120.678       78.749    18107.527    14563.189     6201.427        8.177        1.944      346.229       76.396        0.049      336.660        8.109      849.354
10/09/2013  05:13:00     -202.298      350.296      -40.520      122.802      125.603       85.451    15080.301    15776.057     7301.902       10.171        1.908      404.515       87.448        0.047      336.638        8.073      849.372
10/09/2013  05:14:00     -173.617      323.238      -52.138       99.693      126.511       61.492     9938.611    16005.046     3781.222        8.353        1.486      366.914       49.515        0.018      336.633        8.064      849.373
10/09/2013  05:15:00     -191.764      265.469      -39.117      106.305      104.680       74.622    11300.805    10957.832     5568.408        6.830        1.391      327.486       70.520        0.046      336.619        8.040      849.372
10/09/2013  05:16:00     -191.565      208.787      -24.130      126.892      112.689       71.365    16101.680    12698.863     5092.979        5.738        1.695      283.354       71.306        0.063      336.601        8.010      849.401
10/09/2013  05:17:00     -191.575      302.589      -33.935      142.135      180.933       85.082    20202.432    32736.629     7238.911        9.478        3.009      358.136      101.998        0.081      336.591        7.996      849.422
10/09/2013  05:18:00     -222.139      290.346      -44.069      157.464      128.399       78.523    24795.065    16486.342     6165.803        9.151        2.372      365.577       89.080        0.059      336.554        7.931      849.436
10/09/2013  05:19:00     -192.849      230.090      -36.843      118.369      140.802       65.198    14011.219    19825.256     4250.731        6.478        1.904      300.220       72.363        0.058      336.600        8.009      849.459
10/09/2013  05:20:00     -125.460      152.604      -23.061       78.763       75.198       48.052     6203.592     5654.794     2308.996        2.686        0.708      197.555       35.059        0.031      336.574        7.966      849.463
10/09/2013  05:21:00     -102.513      190.063      -28.065       77.218       81.334       53.635     5962.694     6615.209     2876.712        3.143        0.773      215.946       43.430        0.040      336.580        7.976      849.472
10/09/2013  05:22:00     -136.657      309.655      -38.138       90.198      124.821       56.731     8135.662    15580.163     3218.431        7.147        1.347      338.470       47.317        0.020      336.550        7.924      849.470
10/09/2013  05:23:00     -123.100      205.302      -27.948       73.553       90.786       60.350     5410.110     8242.149     3642.072        3.769        0.865      239.379       45.147        0.036      336.565        7.948      849.478
10/09/2013  05:24:00      -88.117      280.306       -7.851      120.882      148.040       83.272    14612.522    21915.910     6934.281        6.492        2.173      293.830       78.663        0.072      336.576        7.970      849.487
10/09/2013  05:25:00     -123.439      229.609      -11.625       91.653      116.975       53.151     8400.262    13683.036     2824.983        4.650        1.245      260.687       43.435        0.028      336.579        7.975      849.507
10/09/2013  05:26:00     -245.063      364.407      -65.827      154.992      144.329       80.792    24022.435    20830.890     6527.390       12.427        2.569      439.145       86.417        0.039      336.476        7.799      849.514
10/09/2013  05:27:00     -204.629      267.856      -42.253      127.877      124.938       71.072    16352.401    15609.476     5051.275        7.620        1.851      337.076       78.448        0.054      336.482        7.808      849.517
10/09/2013  05:28:00     -166.357      211.475      -28.081      105.971       91.578       65.049    11229.947     8386.584     4231.408        4.851        1.192      269.066       51.624        0.037      336.492        7.826      849.517
10/09/2013  05:29:00     -149.010      204.745      -37.138       99.775       89.347       53.479     9955.034     7982.808     2859.970        4.315        1.040      253.229       56.839        0.050      336.489        7.822      849.536
10/09/2013  05:30:00     -220.653      296.668      -43.147      117.429      137.379       84.925    13789.524    18873.110     7212.280        8.921        1.994      369.729       86.568        0.055      336.460        7.773      849.543
10/09/2013  05:31:00     -193.991      274.215      -47.901      107.235      122.611       61.085    11499.379    15033.476     3731.371        7.269        1.513      335.896       60.932        0.033      336.448        7.752      849.555
10/09/2013  05:32:00     -130.101      200.934      -30.455       75.050      108.804       51.574     5632.563    11838.258     2659.848        3.918        1.007      239.376       44.175        0.034      336.493        7.827      849.558
10/09/2013  05:33:00     -169.467      213.901      -31.306       95.868      109.429       55.941     9190.643    11974.653     3129.451        4.987        1.215      272.897       60.836        0.050      336.502        7.843      849.570
10/09/2013  05:34:00     -248.975      278.475      -54.613      132.825      134.794       82.401    17642.380    18169.527     6789.924        9.255        2.130      373.546       92.742        0.062      336.455        7.763      849.585
10/09/2013  05:35:00     -145.927      205.866      -39.224       83.534       98.529       53.120     6977.933     9708.010     2821.704        4.236        0.975      252.340       37.814        0.022      336.478        7.804      849.604
10/09/2013  05:36:00     -160.255      252.023      -33.968       91.453      108.552       63.401     8363.685    11783.642     4019.705        5.725        1.208      298.659       54.041        0.033      336.485        7.815      849.602
10/09/2013  05:37:00     -154.862      271.176      -30.587      152.825      157.324       89.265    23355.464    24750.760     7968.219        7.725        2.804      312.280       86.742        0.077      336.454        7.762      849.598
10/09/2013  05:38:00     -158.304      393.792      -42.516      105.117      137.671       70.502    11049.591    18953.375     4970.573       10.845        1.749      424.420       64.769        0.023      336.441        7.741      849.598
10/09/2013  05:39:00     -221.754      277.970      -48.062      114.434      126.880       75.228    13095.069    16098.622     5659.253        8.180        1.743      355.587       82.422        0.054      336.449        7.754      849.596
10/09/2013  05:40:00     -166.057      211.309      -24.195      132.212       86.414       60.221    17480.071     7467.419     3626.627        5.069        1.429      268.750       59.509        0.049      336.455        7.765      849.594
10/09/2013  05:41:00     -176.041      216.450      -38.230      153.011      117.586       63.011    23412.459    13826.366     3970.395        6.025        2.060      279.000       77.502        0.077      336.504        7.846      849.571
10/09/2013  05:42:00     -217.626      231.563      -35.733      117.584       96.386       76.711    13826.024     9290.189     5884.564        6.562        1.450      317.777       68.158        0.046      336.473        7.794      849.587
10/09/2013  05:43:00     -132.719      169.789      -10.547       92.551       87.389       60.288     8565.671     7636.870     3634.614        3.319        0.992      215.505       53.839        0.062      336.536        7.902      849.591
10/09/2013  05:44:00     -191.237      212.168      -28.984      130.451      122.485       71.688    17017.506    15002.632     5139.197        5.979        1.858      285.634       71.112        0.062      336.530        7.892      849.596
10/09/2013  05:45:00     -147.098      252.530      -32.023       79.071       94.048       58.101     6252.251     8844.992     3375.722        5.245        0.924      292.248       46.032        0.025      336.533        7.897      849.609
10/09/2013  05:46:00     -169.813      205.117      -38.154       86.381       79.359       49.473     7461.674     6297.877     2447.539        4.428        0.810      266.288       47.305        0.032      336.525        7.883      849.619
10/09/2013  05:47:00     -107.961      229.451      -33.872       76.085      104.834       49.887     5788.999    10990.214     2488.677        4.236        0.963      253.581       46.919        0.034      336.523        7.879      849.623
10/09/2013  05:48:00     -127.468      277.045      -37.087       82.055      120.886       54.645     6732.951    14613.504     2986.068        5.935        1.217      304.962       60.507        0.039      336.488        7.819      849.622
10/09/2013  05:49:00     -155.592      350.064      -43.963      109.229      195.599       69.849    11931.017    38259.059     4878.949       10.187        2.753      383.085       67.468        0.031      336.444        7.745      849.600
10/09/2013  05:50:00     -134.216      222.927      -35.274       86.855      131.916       59.593     7543.781    17401.842     3551.365        4.872        1.425      260.212       50.983        0.038      336.498        7.837      849.621
10/09/2013  05:51:00     -180.454      209.946      -36.248       91.245      133.784       57.979     8325.720    17898.223     3361.605        5.376        1.479      276.841       60.275        0.047      336.464        7.779      849.643
10/09/2013  05:52:00     -115.802      116.769       -9.605       85.779       99.766       51.442     7358.030     9953.219     2646.309        2.354        0.998      164.453       52.379        0.101      336.526        7.884      849.655
10/09/2013  05:53:00     -113.414      205.852      -13.881       70.010       99.826       50.845     4901.441     9965.154     2585.179        3.644        0.873      235.027       58.360        0.062      336.475        7.799      849.655
10/09/2013  05:54:00     -190.854      125.955      -11.155       92.530       79.989       52.259     8561.748     6398.190     2731.017        3.505        0.885      228.670       33.462        0.021      336.455        7.765      849.666
10/09/2013  05:55:00     -164.301      219.540      -46.590       84.073      112.015       53.508     7068.352    12547.309     2863.098        4.992        1.124      274.213       51.412        0.035      336.448        7.752      849.672
10/09/2013  05:56:00     -172.904      231.230      -33.042      120.469      104.258       78.198    14512.801    10869.828     6114.945        5.797        1.575      288.727       76.578        0.070      336.460        7.772      849.675
10/09/2013  05:57:00     -133.152      276.473      -27.727       83.344      131.198       61.374     6946.298    17213.040     3766.817        6.143        1.396      306.866       65.790        0.046      336.490        7.822      849.677
10/09/2013  05:58:00     -154.147      226.487      -37.039       90.777      110.010       67.075     8240.386    12102.104     4499.055        5.063        1.242      273.967       64.535        0.055      336.453        7.761      849.659
10/09/2013  05:59:00     -165.363      199.346      -20.620      135.279      145.116       88.073    18300.276    21058.798     7756.787        5.730        2.356      259.005       71.220        0.076      336.462        7.776      849.650
10/09/2013  06:00:00     -168.730      267.456      -32.625      132.673      141.627       65.044    17602.191    20058.076     4230.738        7.147        2.095      316.231       73.335        0.054      336.462        7.777      849.633
10/09/2013  06:01:00     -166.585      262.381      -42.360       92.046      128.461       56.901     8472.465    16502.136     3237.771        6.329        1.411      310.796       65.268        0.044      336.410        7.689      849.642
10/09/2013  06:02:00     -179.459      241.565      -42.436       98.380      106.809       71.251     9678.654    11408.119     5076.704        5.926        1.308      300.931       72.968        0.059      336.468        7.786      849.628
10/09/2013  06:03:00     -264.504      282.547      -55.596      133.020      133.878       77.836    17694.204    17923.397     6058.513        9.727        2.084      387.034       71.500        0.034      336.397        7.666      849.629
10/09/2013  06:04:00     -256.560      259.236      -62.093      109.117      150.740       74.572    11906.411    22722.633     5560.999        8.853        2.010      364.728       83.579        0.053      336.407        7.684      849.610
10/09/2013  06:05:00     -344.151      333.487      -74.183      168.254      141.307       72.729    28309.542    19967.638     5289.532       14.435        2.678      479.222       80.893        0.028      336.432        7.725      849.628
10/09/2013  06:06:00     -168.537      253.923      -52.432      100.628      128.030       59.085    10125.997    16391.716     3491.007        6.281        1.500      304.765       61.882        0.041      336.447        7.751      849.658
10/09/2013  06:07:00     -159.807      236.763      -28.079       84.869      102.566       57.943     7202.678    10519.817     3357.417        5.173        1.054      285.649       47.537        0.028      336.489        7.820      849.687
10/09/2013  06:08:00     -138.667      245.291      -34.244       98.337      136.634       69.753     9670.068    18668.829     4865.449        5.688        1.660      281.773       67.495        0.057      336.483        7.811      849.706
10/09/2013  06:09:00     -216.498      320.350      -39.792      100.815      130.381       79.489    10163.696    16999.243     6318.475        9.227        1.674      386.646       83.759        0.047      336.431        7.723      849.717
10/09/2013  06:10:00      -80.301      282.130      -20.841       87.152      143.219       79.734     7595.558    20511.672     6357.478        6.047        1.723      293.335       77.343        0.070      336.455        7.765      849.745
10/09/2013  06:11:00      -98.373      340.864      -41.414       87.480      169.528       60.342     7652.744    28739.791     3641.123        8.380        2.002      354.775       64.406        0.033      336.438        7.737      849.744
10/09/2013  06:12:00     -135.824      394.375      -49.233       88.989      139.465       62.089     7919.058    19450.623     3855.041       10.381        1.561      417.108       61.413        0.022      336.419        7.703      849.772
10/09/2013  06:13:00     -116.247      408.450      -48.205      113.133      155.077       64.272    12799.024    24048.975     4130.922       11.182        2.049      424.670       71.641        0.028      336.415        7.698      849.787
10/09/2013  06:14:00      -37.048      549.555      -69.434       88.777      112.393       45.587     7881.307    12632.154     2078.159       16.539        1.130      550.803       41.982        0.006      336.382        7.643      849.786
10/09/2013  06:15:00     -123.233      333.571      -44.894       99.802      170.114       55.605     9960.441    28938.677     3091.862        8.522        2.100      355.607       71.145        0.040      336.430        7.720      849.835
10/09/2013  06:16:00      -28.848      432.390      -54.598       77.636      160.337       38.616     6027.342    25707.857     1491.189       11.199        1.661      433.352       50.659        0.014      336.395        7.667      849.848
10/09/2013  06:17:00       -8.671      221.840      -21.232       71.995       89.403       48.006     5183.223     7992.817     2304.601        3.261        0.774      222.010       45.161        0.041      336.425        7.714      849.854
10/09/2013  06:18:00      -63.771      327.754      -27.033       91.930      131.352       66.022     8451.100    17253.435     4358.937        7.114        1.503      333.900       68.407        0.042      336.430        7.723      849.857
10/09/2013  06:19:00     -125.906      370.558      -45.744       66.680      161.450       56.128     4446.247    26066.248     3150.314        9.445        1.683      391.363       65.312        0.028      336.457        7.768      849.866
10/09/2013  06:20:00     -102.685      340.924      -36.042       81.939      148.892       53.452     6714.045    22168.731     2857.124        7.990        1.587      356.052       46.839        0.017      336.487        7.818      849.871
10/09/2013  06:21:00     -239.227      231.349      -54.939      104.331      143.530       57.507    10885.024    20600.770     3307.052        7.427        1.740      332.795       53.037        0.025      336.521        7.876      849.824
10/09/2013  06:22:00     -148.339      266.911      -31.448      108.229      113.808       57.229    11713.556    12952.197     3275.160        6.108        1.397      305.362       61.687        0.041      336.683        8.145      849.854
10/09/2013  06:23:00      -82.810      165.610      -16.182       46.863       86.176       37.044     2196.163     7426.250     1372.295        2.277        0.550      185.160       37.279        0.041      336.673        8.131      849.870
10/09/2013  06:24:00      -53.172      231.217      -18.401       50.734      126.611       51.648     2573.948    16030.277     2667.492        3.895        1.064      237.252       63.992        0.073      336.629        8.059      849.878
10/09/2013  06:25:00      -94.346      327.404      -52.885      133.342      101.313       58.393    17779.975    10264.266     3409.764        7.517        1.573      340.727       53.179        0.024      336.643        8.080      849.913
10/09/2013  06:26:00     -108.684      282.047      -27.224      100.190      110.373       70.049    10037.988    12182.185     4906.824        5.961        1.356      302.262       64.362        0.045      336.655        8.101      849.945
10/09/2013  06:27:00     -238.688      248.043      -53.306      124.528      141.716       73.638    15507.105    20083.348     5422.594        8.117        2.051      344.234       85.451        0.062      336.613        8.030      849.964
10/09/2013  06:28:00     -136.335      302.516      -28.739       62.281      108.837       57.837     3878.975    11845.585     3345.099        6.500        0.953      331.818       58.870        0.031      336.592        7.995      849.985
10/09/2013  06:29:00      -74.916      169.386      -14.183       50.924       69.510       34.057     2593.290     4831.628     1159.858        2.154        0.429      185.213       27.905        0.023      336.686        8.155      849.993
10/09/2013  06:30:00      -55.809      172.657       -9.643       58.835       75.994       42.381     3461.506     5775.142     1796.108        2.202        0.552      181.453       40.328        0.049      336.647        8.089      849.994
10/09/2013  06:31:00      -38.186      202.552      -20.898       51.007      129.465       45.814     2601.706    16761.134     2098.891        3.219        1.073      206.120       60.507        0.086      336.645        8.084      850.008
10/09/2013  06:32:00       -0.582      278.439      -21.902      108.489      115.142       75.902    11769.967    13257.793     5761.131        5.439        1.539      278.439       75.624        0.074      336.620        8.042      850.000
10/09/2013  06:33:00      -59.373      170.789       -5.002       70.344       99.822       44.942     4948.336     9964.362     2019.824        2.482        0.847      180.815       47.592        0.069      336.710        8.194      850.006
10/09/2013  06:34:00     -159.699      209.751      -33.270       84.505      101.876       57.162     7141.079    10378.722     3267.454        4.569        1.039      263.627       58.038        0.048      336.652        8.097      850.018
10/09/2013  06:35:00     -206.909      243.750      -53.781       93.596       94.696       45.925     8760.267     8967.424     2109.112        6.247        0.992      319.727       51.000        0.025      336.575        7.967      850.047
10/09/2013  06:36:00      -91.539      272.942      -32.925       62.080       87.470       40.687     3853.945     7650.936     1655.401        4.856        0.658      287.884       36.238        0.016      336.632        8.061      850.049
10/09/2013  06:37:00      -73.228      210.237      -19.998       71.098       99.050       37.364     5054.871     9810.979     1396.040        3.311        0.813      222.626       35.892        0.026      336.667        8.122      850.075
10/09/2013  06:38:00      -38.436      333.139      -37.018       51.482      101.363       38.610     2650.398    10274.455     1490.706        6.412        0.721      335.349       41.770        0.016      336.646        8.085      850.104
10/09/2013  06:39:00       14.665      255.616      -28.654       77.081      145.673       73.494     5941.413    21220.550     5401.359        4.946        1.628      256.037       86.927        0.115      336.605        8.018      850.137
10/09/2013  06:40:00       -4.291      441.184      -63.544       78.437       86.352       40.349     6152.290     7456.732     1628.052       10.697        0.762      441.205       33.455        0.006      336.528        7.887      850.176
10/09/2013  06:41:00       55.639      243.840      -30.226      105.847      141.355       54.747    11203.557    19981.295     2997.269        4.882        1.709      250.107       64.224        0.066      336.587        7.987      850.206
10/09/2013  06:42:00       60.445      150.141        9.615       71.657       79.037       59.303     5134.740     6246.841     3516.861        2.059        0.745      161.851       54.910        0.115      336.561        7.945      850.198
10/09/2013  06:43:00       65.755      133.515        8.899       65.578       98.897       52.844     4300.517     9780.547     2792.479        1.955        0.844      148.829       54.244        0.133      336.560        7.943      850.206
10/09/2013  06:44:00       -2.937      259.043      -28.450       71.919       93.347       46.424     5172.388     8713.654     2155.199        4.198        0.802      259.060       49.746        0.037      336.563        7.948      850.196
10/09/2013  06:45:00      -42.201      220.361      -30.482       66.362       81.098       42.232     4403.869     6576.843     1783.551        3.201        0.638      224.365       36.019        0.026      336.602        8.012      850.189
10/09/2013  06:46:00     -157.474      153.880      -41.759      120.061       66.822       41.447    14414.587     4465.237     1717.839        3.541        1.030      220.175       43.969        0.040      336.606        8.021      850.198
10/09/2013  06:47:00     -143.187      146.993      -17.421       98.931      106.104       60.362     9787.266    11258.102     3643.615        3.355        1.234      205.206       59.361        0.084      336.560        7.942      850.206
10/09/2013  06:48:00      -39.439      289.112      -33.249       93.151      190.940       60.507     8677.153    36457.896     3661.118        6.751        2.440      291.790       76.554        0.069      336.574        7.964      850.259
10/09/2013  06:49:00     -232.620      396.519      -60.232      130.764      167.286       83.909    17099.179    27984.503     7040.754       13.354        2.606      459.717       88.819        0.037      336.295        7.499      850.284
10/09/2013  06:50:00     -112.452      351.302      -47.484      114.054      207.834       80.993    13008.403    43194.897     6559.827       10.053        3.138      368.861       78.982        0.046      336.251        7.423      850.306
10/09/2013  06:51:00     -129.988      428.821      -44.463       76.684      159.938       62.383     5880.506    25580.322     3891.700       11.905        1.768      448.090       65.277        0.021      336.118        7.202      850.315
10/09/2013  06:52:00     -108.512      416.925      -47.658      114.640      170.036       63.116    13142.271    28912.172     3983.640       11.695        2.302      430.815       75.884        0.031      336.048        7.085      850.321
10/09/2013  06:53:00      -82.820      516.278      -55.075       91.494      144.453       67.871     8371.079    20866.556     4606.483       15.513        1.692      522.879       75.902        0.021      335.914        6.861      850.334
10/09/2013  06:54:00      -90.002      445.142      -52.279       80.630      163.010       60.612     6501.134    26572.289     3673.755       12.286        1.837      454.150       51.206        0.013      335.864        6.776      850.319
10/09/2013  06:55:00      -92.918      614.423      -84.520       95.880      153.516       56.352     9193.067    23567.056     3175.545       21.461        1.797      621.409       56.986        0.008      335.791        6.655      850.305
10/09/2013  06:56:00      -76.175      530.029      -66.607       91.796      110.650       57.706     8426.516    12243.411     3330.035       15.758        1.200      535.475       51.032        0.009      335.772        6.627      850.307
10/09/2013  06:57:00      -77.264      428.004      -50.166      103.917      128.966       56.674    10798.658    16632.308     3211.934       11.115        1.532      434.922       58.773        0.018      335.802        6.675      850.327
10/09/2013  06:58:00      -52.374      519.462      -72.337      126.435      151.983       68.089    15985.812    23098.971     4636.155       16.076        2.186      522.095       73.351        0.020      335.785        6.647      850.354
10/09/2013  06:59:00      -16.203      379.190      -39.602       97.013      123.561       56.871     9411.514    15267.252     3234.280        8.676        1.396      379.536       61.890        0.027      335.776        6.631      850.389
10/09/2013  07:00:00      -12.229      354.466      -39.954       91.169      118.125       56.807     8311.873    13953.441     3227.055        7.644        1.275      354.677       59.058        0.028      335.775        6.629      850.389
10/09/2013  07:01:00       10.033      375.411      -45.696       86.213       99.177       55.119     7432.706     9836.131     3038.113        8.171        1.015      375.545       53.834        0.021      335.782        6.641      850.381
10/09/2013  07:02:00      -81.118      387.202      -40.986       66.618      172.005       50.836     4437.998    29585.776     2584.335        9.739        1.830      395.607       70.966        0.032      335.798        6.668      850.375
10/09/2013  07:03:00     -102.398      436.329      -54.208      125.952      110.812       52.949    15863.883    12279.272     2803.593       11.737        1.547      448.183       45.823        0.010      335.788        6.652      850.385
10/09/2013  07:04:00      -68.267      270.004      -38.519       78.295      130.747       53.694     6130.043    17094.723     2883.025        5.257        1.305      278.500       61.372        0.049      335.834        6.728      850.372
10/09/2013  07:05:00      -95.975      272.534      -30.392       88.089       95.801       45.269     7759.700     9177.753     2049.243        5.169        0.949      288.940       47.686        0.027      335.851        6.757      850.379
10/09/2013  07:06:00      -55.770      249.400      -18.373       99.915      107.613       50.673     9982.976    11580.621     2567.779        4.488        1.207      255.559       47.522        0.035      335.862        6.774      850.397
10/09/2013  07:07:00      -50.962      325.996      -37.438       74.372      118.594       54.738     5531.148    14064.514     2996.209        6.643        1.130      329.955       60.716        0.034      335.849        6.754      850.407
10/09/2013  07:08:00      -92.142      329.400      -40.298       88.539      126.222       55.800     7839.228    15931.977     3113.636        7.275        1.344      342.045       52.877        0.024      335.878        6.801      850.413
10/09/2013  07:09:00      -24.896      307.066      -44.652       44.790       92.763       42.777     2006.111     8605.045     1829.879        5.467        0.622      308.073       43.807        0.020      335.882        6.806      850.417
10/09/2013  07:10:00      -75.977      342.406      -37.768       65.044       96.407       44.087     4230.702     9294.394     1943.697        6.995        0.773      350.734       42.335        0.015      335.897        6.832      850.414
10/09/2013  07:11:00      -83.163      318.370      -37.432       83.081       98.697       41.172     6902.507     9741.021     1695.101        6.400        0.917      329.052       40.583        0.015      335.912        6.858      850.410
10/09/2013  07:12:00      -63.119      326.494      -42.534      107.413       92.397       47.684    11537.458     8537.214     2273.801        6.737        1.117      332.539       48.074        0.021      335.917        6.866      850.413
10/09/2013  07:13:00      -49.219      356.079      -51.002       86.357       92.235       43.091     7457.581     8507.324     1856.808        7.482        0.891      359.465       46.117        0.016      335.918        6.868      850.408
10/09/2013  07:14:00      -36.614      351.556      -45.126       86.468       94.192       49.342     7476.787     8872.175     2434.669        7.287        0.939      353.458       48.748        0.019      335.936        6.898      850.420
10/09/2013  07:15:00      -42.412      281.542      -33.351       84.276       94.769       46.967     7102.491     8981.155     2205.889        5.023        0.914      284.719       43.104        0.023      335.946        6.915      850.430
10/09/2013  07:16:00       -9.431      305.069      -35.033       64.262      104.159       50.825     4129.635    10849.188     2583.184        5.597        0.878      305.215       55.237        0.033      335.921        6.873      850.441
10/09/2013  07:17:00      -33.521      226.694      -22.858       70.244       76.190       49.406     4934.268     5804.974     2440.925        3.311        0.659      229.159       40.108        0.031      335.968        6.951      850.438
10/09/2013  07:18:00      -27.122      339.674      -41.172       76.020       96.651       39.602     5779.014     9341.368     1568.342        6.725        0.834      340.755       37.550        0.012      335.920        6.871      850.450
10/09/2013  07:19:00      -15.623      265.542      -42.538       69.565      127.184       50.637     4839.287    16175.710     2564.110        4.807        1.179      266.001       66.136        0.062      335.904        6.845      850.465
10/09/2013  07:20:00      -26.281      264.489      -34.248       49.750       56.958       35.347     2475.097     3244.234     1249.376        3.939        0.348      265.791       27.118        0.010      335.909        6.851      850.465
10/09/2013  07:21:00      -44.557      292.031      -30.929       77.945       99.226       44.919     6075.467     9845.862     2017.733        5.308        0.897      295.411       42.319        0.021      335.924        6.878      850.485
10/09/2013  07:22:00      -17.854      255.310      -32.838       59.712       70.949       37.065     3565.503     5033.701     1373.799        3.827        0.499      255.934       37.782        0.022      335.943        6.909      850.498
10/09/2013  07:23:00      -34.817      316.147      -39.262       74.325       94.573       51.945     5524.249     8943.968     2698.249        5.993        0.858      318.058       46.513        0.021      335.913        6.859      850.518
10/09/2013  07:24:00      -41.347      382.049      -50.865       83.596      120.321       48.364     6988.255    14477.251     2339.073        8.703        1.190      384.280       51.194        0.018      335.905        6.846      850.527
10/09/2013  07:25:00      -84.205      332.263      -39.102       60.294       96.970       37.461     3635.380     9403.139     1403.322        6.673        0.722      342.767       35.406        0.011      335.893        6.826      850.534
10/09/2013  07:26:00      -44.947      370.159      -40.315       75.264       86.394       50.159     5664.739     7463.972     2515.880        7.815        0.782      372.878       46.653        0.016      335.891        6.822      850.549
10/09/2013  07:27:00      -39.426      388.913      -47.568       66.354       97.008       43.190     4402.824     9410.602     1865.406        8.537        0.784      390.907       37.582        0.009      335.868        6.784      850.546
10/09/2013  07:28:00     -108.387      353.104      -42.739      120.902      128.607       62.610    14617.255    16539.752     3920.021        8.666        1.754      369.364       56.396        0.023      335.901        6.839      850.551
10/09/2013  07:29:00      -83.287      398.786      -45.114       90.409      117.469       61.925     8173.863    13798.954     3834.682        9.690        1.290      407.390       68.388        0.028      335.897        6.832      850.571
10/09/2013  07:30:00      -57.449      287.669      -19.191       77.550      106.653       62.453     6013.979    11374.772     3900.365        5.385        1.064      293.350       69.259        0.056      335.920        6.871      850.587
10/09/2013  07:31:00       11.560      215.261      -21.209       89.122      133.868       66.324     7942.795    17920.692     4398.847        3.859        1.513      215.571       79.177        0.135      335.951        6.923      850.600
10/09/2013  07:32:00      -73.796      402.167      -53.325       99.247      116.449       49.434     9849.987    13560.349     2443.726        9.794        1.293      408.881       54.469        0.018      335.924        6.879      850.598
10/09/2013  07:33:00      -21.339      326.065      -23.728       71.848      159.708       54.059     5162.151    25506.591     2922.355        7.046        1.680      326.763       75.141        0.053      335.948        6.920      850.613
10/09/2013  07:34:00      -54.116      270.389      -25.758       88.423      145.134       54.605     7818.546    21064.016     2981.708        5.428        1.593      275.751       74.231        0.072      335.956        6.930      850.628
10/09/2013  07:35:00     -116.964      320.444      -42.136      104.171      124.432       61.551    10851.498    15483.376     3788.557        7.413        1.506      341.124       67.593        0.039      335.959        6.935      850.642
10/09/2013  07:36:00      -22.756      395.934      -45.490       65.729       65.942       39.952     4320.346     4348.330     1596.145        8.481        0.513      396.588       30.811        0.006      335.917        6.866      850.643
10/09/2013  07:37:00      -75.275      347.982      -50.968       77.733       72.667       38.942     6042.344     5280.540     1516.512        7.109        0.642      356.031       32.578        0.008      335.919        6.871      850.666
10/09/2013  07:38:00      -44.600      273.826      -32.854       86.604       89.116       48.951     7500.262     7941.681     2396.224        4.794        0.892      277.435       47.398        0.029      335.990        6.986      850.680
10/09/2013  07:39:00      -55.504      264.376      -28.009       50.169       64.950       38.276     2516.962     4218.566     1465.049        4.098        0.410      270.140       34.085        0.016      335.977        6.965      850.685
10/09/2013  07:40:00       -1.194      167.382       -7.840       61.015       87.444       45.114     3722.845     7646.452     2035.294        2.074        0.670      167.386       43.832        0.069      336.013        7.028      850.693
10/09/2013  07:41:00      -95.517      235.176      -25.784       72.959      107.667       51.813     5323.047    11592.265     2684.536        4.234        0.980      253.834       55.340        0.048      336.042        7.076      850.716
10/09/2013  07:42:00      -73.891      286.312      -42.486       81.383      102.832       38.728     6623.273    10574.521     1499.867        5.396        0.935      295.693       38.006        0.017      335.983        6.976      850.731
10/09/2013  07:43:00      -49.149      218.388      -25.676       56.736       85.546       50.611     3218.997     7318.039     2561.507        3.193        0.655      223.850       48.425        0.047      336.040        7.073      850.736
10/09/2013  07:44:00      -96.991      316.888      -34.964       81.005       77.154       44.346     6561.765     5952.774     1966.587        6.276        0.724      331.399       39.001        0.014      336.002        7.006      850.745
10/09/2013  07:45:00      -28.227      247.315      -23.601       46.390       59.772       29.907     2152.025     3572.686      894.401        3.457        0.331      248.921       27.931        0.013      336.014        7.028      850.743
10/09/2013  07:46:00      -28.027      233.298      -27.495       57.471       83.514       34.424     3302.949     6974.566     1185.002        3.371        0.573      234.976       36.971        0.025      336.040        7.072      850.752
10/09/2013  07:47:00       27.895      224.265      -16.951       77.126       97.983       54.571     5948.406     9600.714     2977.981        3.494        0.926      225.993       60.385        0.071      336.020        7.038      850.771
10/09/2013  07:48:00      -44.333      322.200      -39.954       82.419       80.826       51.926     6792.928     6532.783     2696.358        6.170        0.801      325.236       41.692        0.016      336.015        7.029      850.793
10/09/2013  07:49:00       31.499      220.982      -11.567       70.114      121.782       59.334     4915.950    14830.795     3520.534        3.661        1.163      223.216       68.394        0.094      336.005        7.014      850.812
10/09/2013  07:50:00       20.193      296.354      -46.799       90.784       76.077       49.688     8241.765     5787.721     2468.848        5.346        0.825      297.041       45.882        0.024      335.998        7.001      850.818
10/09/2013  07:51:00       15.288      163.205       -4.448       71.834       98.703       53.616     5160.155     9742.230     2874.671        2.233        0.889      163.920       51.535        0.099      336.039        7.073      850.830
10/09/2013  07:52:00       22.899      221.547      -24.846       65.223       98.134       48.834     4254.019     9630.320     2384.757        3.324        0.813      222.727       51.524        0.054      336.024        7.045      850.835
10/09/2013  07:53:00       36.167       84.480        9.504       57.489       69.323       47.449     3304.970     4805.676     2251.404        0.945        0.518       91.896       45.247        0.242      336.020        7.040      850.833
10/09/2013  07:54:00       -1.684      269.219      -38.361       75.679      139.769       38.769     5727.261    19535.338     1503.024        5.035        1.338      269.225       47.755        0.031      336.010        7.023      850.830
10/09/2013  07:55:00       29.429      290.908      -41.903       80.002      127.399       55.094     6400.322    16230.563     3035.322        5.645        1.283      292.393       61.081        0.044      335.970        6.954      850.841
10/09/2013  07:56:00       57.082      144.653        1.310       79.037       79.166       66.221     6246.814     6267.233     4385.277        2.054        0.845      155.509       50.610        0.106      335.982        6.977      850.853
10/09/2013  07:57:00       89.907      190.375      -13.737       99.952      118.705       61.723     9990.383    14090.956     3809.712        3.620        1.395      210.537       49.539        0.055      335.947        6.916      850.866
10/09/2013  07:58:00      112.880      105.669       30.851       94.550       68.854       75.779     8939.760     4740.888     5742.394        2.214        0.971      154.622       53.932        0.122      335.952        6.927      850.871
10/09/2013  07:59:00       92.154       93.546        3.650       75.776       71.611       50.321     5741.995     5128.178     2532.206        1.533        0.670      131.314       37.421        0.081      335.980        6.974      850.880
10/09/2013  08:00:00      119.079      111.033        8.320       82.093      100.085       55.132     6739.256    10017.081     3039.581        2.318        0.990      162.813       57.451        0.125      335.983        6.977      850.893
10/09/2013  08:01:00       93.646      188.577      -19.372      116.565      114.747       62.136    13587.289    13166.786     3860.841        3.765        1.531      210.549       63.911        0.092      335.928        6.885      850.906
10/09/2013  08:02:00       49.271      178.485      -15.476       71.567      109.964       65.517     5121.799    12092.015     4292.422        2.801        1.075      185.161       67.815        0.134      335.942        6.910      850.923
10/09/2013  08:03:00       72.455      166.507       -6.377       98.910      104.219       73.297     9783.229    10861.616     5372.473        2.951        1.301      181.588       64.313        0.125      335.950        6.923      850.929
10/09/2013  08:04:00       80.023      135.647       -7.138       75.363       64.242       43.305     5679.634     4127.057     1875.312        1.827        0.584      157.492       37.415        0.056      335.944        6.912      850.948
10/09/2013  08:05:00       51.632      114.445      -17.405       56.752       68.746       41.657     3220.819     4726.016     1735.266        1.287        0.484      125.553       41.702        0.110      335.974        6.964      850.959
10/09/2013  08:06:00       36.939      116.769      -16.395       41.020       57.794       31.381     1682.633     3340.156      984.753        1.064        0.300      122.473       23.164        0.036      336.002        7.011      850.973
10/09/2013  08:07:00       11.569      151.066      -16.016       65.816       80.734       32.652     4331.736     6517.915     1066.136        1.756        0.596      151.508       35.232        0.054      336.011        7.025      851.000
10/09/2013  08:08:00       19.425       53.185        7.138       41.209       46.106       32.089     1698.202     2125.746     1029.735        0.405        0.243       56.621       29.615        0.274      336.044        7.082      851.013
10/09/2013  08:09:00       43.208      178.457      -16.383       58.637       89.134       58.039     3438.250     7944.807     3368.475        2.436        0.738      183.613       54.326        0.088      335.971        6.958      851.029
10/09/2013  08:10:00       11.802      129.079       -9.966       77.372       69.329       52.702     5986.429     4806.534     2777.495        1.523        0.679      129.617       47.912        0.137      335.996        7.002      851.046
10/09/2013  08:11:00       26.825      199.350      -20.163       43.393       55.448       32.627     1882.913     3074.477     1064.504        2.344        0.301      201.146       25.388        0.016      335.987        6.983      851.055
10/09/2013  08:12:00        7.122      202.441      -27.124       45.969       43.006       25.175     2113.137     1849.543      633.774        2.318        0.230      202.566       21.179        0.011      336.008        7.020      851.061
10/09/2013  08:13:00       54.751       49.282       12.999       47.222       39.349       34.039     2229.924     1548.331     1158.672        0.527        0.247       73.664       24.936        0.115      336.085        7.149      851.067
10/09/2013  08:14:00       74.970      100.495        0.872       57.009       55.102       40.712     3250.047     3036.233     1657.463        1.183        0.397      125.378       36.132        0.083      336.036        7.067      851.050
10/09/2013  08:15:00       10.628      156.441      -19.732       41.902       48.661       27.207     1755.777     2367.866      740.243        1.492        0.243      156.802       15.054        0.009      336.057        7.103      851.060
10/09/2013  08:16:00       18.497       94.531       -3.506       29.856       54.797       30.331      891.384     3002.663      919.950        0.705        0.241       96.324       33.275        0.119      336.157        7.271      851.063
10/09/2013  08:17:00       24.708      193.877      -34.354       34.976       77.243       28.404     1223.336     5966.512      806.768        2.369        0.400      195.445       35.938        0.034      336.058        7.104      851.065
10/09/2013  08:18:00      -27.393      133.575      -13.524       30.599       36.962       24.916      936.297     1366.184      620.827        1.085        0.146      136.354       23.553        0.030      336.192        7.329      851.067
10/09/2013  08:19:00       26.762      184.558      -24.143       55.833       59.326       25.380     3117.352     3519.619      644.139        2.132        0.364      186.488       24.098        0.017      336.139        7.238      851.076
10/09/2013  08:20:00       36.632      112.232      -10.200       41.110       76.745       28.820     1690.061     5889.820      830.583        1.122        0.421      118.059       36.563        0.096      336.183        7.313      851.070
10/09/2013  08:21:00       -1.886      123.452       -5.024       59.069       62.739       38.546     3489.103     3936.182     1485.816        1.209        0.446      123.467       42.330        0.118      336.233        7.398      851.076
10/09/2013  08:22:00      -34.299      163.189       -5.178       55.773       68.829       39.124     3110.596     4737.484     1530.726        1.860        0.469      166.755       34.475        0.043      336.242        7.411      851.079
10/09/2013  08:23:00       39.794       83.406       -0.174       47.447       57.635       39.840     2251.178     3321.818     1587.242        0.785        0.358       92.413       37.898        0.168      336.293        7.496      851.093
10/09/2013  08:24:00        8.931      131.900      -10.526       57.964       51.296       33.032     3359.815     2631.325     1091.102        1.233        0.354      132.202       33.779        0.065      336.238        7.404      851.094
10/09/2013  08:25:00      -27.057       82.484      -13.730       34.726       45.191       24.205     1205.903     2042.239      585.875        0.578        0.192       86.809       12.544        0.021      336.387        7.654      851.086
10/09/2013  08:26:00       -0.466      111.662      -18.849       29.030       33.898       22.239      842.755     1149.079      494.579        0.765        0.124      111.663       20.017        0.032      336.345        7.583      851.092
10/09/2013  08:27:00       10.020      175.185      -20.089       52.275       72.203       35.153     2732.674     5213.282     1235.712        2.019        0.459      175.471       40.425        0.053      336.310        7.524      851.097
10/09/2013  08:28:00      -15.117      269.884      -35.674       73.799       98.952       32.717     5446.223     9791.495     1070.395        4.532        0.815      270.307       41.749        0.024      336.212        7.358      851.096
10/09/2013  08:29:00        9.815      233.779      -29.507       59.519      114.610       41.054     3542.489    13135.486     1685.466        3.699        0.918      233.985       52.855        0.051      336.207        7.349      851.098
10/09/2013  08:30:00       -1.589      151.902      -14.516       53.265       62.522       34.991     2837.201     3909.052     1224.360        1.563        0.399      151.910       35.080        0.053      336.288        7.488      851.094
10/09/2013  08:31:00      -31.057      118.300      -22.939       36.080       49.586       28.955     1301.799     2458.796      838.415        1.004        0.230      122.309       22.193        0.033      336.393        7.664      851.088
10/09/2013  08:32:00      -21.018      153.018       -6.072       41.729       87.699       31.122     1741.340     7691.086      968.561        1.714        0.520      154.455       41.634        0.073      336.294        7.499      851.082
10/09/2013  08:33:00       34.707       84.722        2.445       50.855       56.409       41.267     2586.275     3181.981     1702.944        0.793        0.374       91.555       39.528        0.186      336.273        7.464      851.077
10/09/2013  08:34:00      -57.760      138.976       -6.542       41.187       65.232       37.094     1696.363     4255.222     1375.967        1.501        0.366      150.501       34.435        0.052      336.332        7.561      851.092
10/09/2013  08:35:00      -65.356      205.175      -25.394       44.143       59.306       27.751     1948.607     3517.237      770.133        2.662        0.312      215.333       26.819        0.016      336.290        7.489      851.095
10/09/2013  08:36:00      -37.369      166.770      -19.406       43.988       58.019       25.334     1934.978     3366.210      641.799        1.776        0.297      170.906       17.662        0.011      336.304        7.515      851.091
10/09/2013  08:37:00     -100.119       56.210      -14.082       38.315       32.657       23.150     1468.065     1066.459      535.924        0.823        0.154      114.819       17.441        0.023      336.334        7.565      851.089
10/09/2013  08:38:00      -39.662      102.055      -20.360       32.665       31.916       22.063     1067.015     1018.609      486.770        0.749        0.129      109.492       16.501        0.023      336.360        7.610      851.100
10/09/2013  08:39:00      -20.368       76.692       -4.463       28.185       58.651       22.323      794.419     3439.893      498.308        0.552        0.237       79.351       25.699        0.105      336.431        7.728      851.117
10/09/2013  08:40:00      -33.170      201.661      -18.080       46.197       49.396       21.297     2134.170     2439.925      453.552        2.356        0.251      204.371       13.526        0.004      336.363        7.613      851.139
10/09/2013  08:41:00      -82.524       61.004      -26.230       55.348       57.809       22.675     3063.415     3341.923      514.137        0.907        0.346      102.624       20.230        0.039      336.427        7.720      851.161
10/09/2013  08:42:00     -121.106       84.985      -20.150       54.837       60.398       33.260     3007.066     3647.876     1106.237        1.503        0.388      147.950       29.570        0.040      336.307        7.520      851.174
10/09/2013  08:43:00      -59.846       75.356       -0.240       75.747       82.974       52.010     5737.673     6884.616     2705.013        1.229        0.766       96.229       48.943        0.259      336.272        7.461      851.183
10/09/2013  08:44:00      -85.291      110.130      -16.612       63.599       89.286       34.224     4044.798     7971.976     1171.282        1.643        0.659      139.296       40.939        0.086      336.249        7.421      851.198
10/09/2013  08:45:00      -68.455      165.952      -11.372       61.363       95.062       41.934     3765.389     9036.757     1758.463        2.346        0.728      179.517       48.928        0.074      336.096        7.167      851.216
10/09/2013  08:46:00      -89.159      124.860      -11.820       51.006       82.073       34.066     2601.594     6736.024     1160.518        1.709        0.525      153.425       30.240        0.039      336.169        7.288      851.215
10/09/2013  08:47:00      -92.115      106.187      -20.697       62.349       54.513       42.165     3887.452     2971.687     1777.870        1.441        0.432      140.574       44.486        0.100      336.137        7.236      851.226
10/09/2013  08:48:00     -145.945      145.038      -24.054       68.316       87.141       50.741     4667.108     7593.553     2574.653        2.887        0.742      205.758       51.540        0.063      336.101        7.174      851.229
10/09/2013  08:49:00      -91.067      170.320      -14.302       80.244      100.563       51.886     6439.157    10113.001     2692.152        2.837        0.962      193.138       42.146        0.048      336.063        7.112      851.232
10/09/2013  08:50:00      -31.115      239.760      -19.389       59.595       63.166       46.219     3551.589     3989.921     2136.183        3.425        0.484      241.770       35.996        0.022      336.050        7.088      851.246
10/09/2013  08:51:00       -4.696      159.638      -14.911       59.902       88.538       40.280     3588.244     7838.957     1622.486        1.939        0.652      159.707       48.858        0.094      336.058        7.104      851.239
10/09/2013  08:52:00       -1.868      170.875      -17.316       46.802       78.150       34.715     2190.438     6107.412     1205.141        1.950        0.475      170.886       39.555        0.054      336.176        7.300      851.253
10/09/2013  08:53:00      -38.841       91.275        0.642       65.898       95.042       45.743     4342.482     9033.065     2092.429        1.265        0.773       99.195       38.819        0.153      336.269        7.456      851.267
10/09/2013  08:54:00      -79.692      129.685      -12.244       75.850       50.406       36.096     5753.156     2540.769     1302.954        1.646        0.480      152.214       43.191        0.081      336.218        7.370      851.284
10/09/2013  08:55:00     -100.747       84.257      -10.403       94.507       70.277       44.485     8931.571     4938.919     1978.878        1.660        0.792      131.336       46.116        0.123      336.279        7.472      851.308
10/09/2013  08:56:00      -37.685       94.650       -6.387       40.216       66.198       33.184     1617.327     4382.204     1101.163        0.876        0.355      101.876       36.785        0.130      336.344        7.581      851.332
10/09/2013  08:57:00      -18.536      117.337       -6.061       34.880       50.589       30.992     1216.630     2559.260      960.480        0.944        0.237      118.792       22.557        0.036      336.381        7.644      851.346
10/09/2013  08:58:00      -33.425      112.002       -6.642       64.886       50.027       37.611     4210.187     2502.733     1414.553        1.092        0.406      116.883       32.988        0.080      336.315        7.533      851.360
10/09/2013  08:59:00       16.501       75.490        6.995       48.099       47.607       33.252     2313.516     2266.467     1105.711        0.585        0.284       77.273       32.920        0.181      336.306        7.520      851.377
10/09/2013  09:00:00       25.344      139.950      -13.380       41.548       78.138       33.023     1726.259     6105.513     1090.494        1.466        0.446      142.227       39.636        0.078      336.274        7.465      851.393
10/09/2013  09:01:00       49.686       27.448        6.439       65.183       23.859       25.511     4248.819      569.253      650.809        0.437        0.273       56.763       14.764        0.068      336.332        7.562      851.396
10/09/2013  09:02:00       92.550       66.413        4.940       43.419       33.881       32.510     1885.247     1147.919     1056.924        0.854        0.205      113.913       21.326        0.035      336.287        7.486      851.398
10/09/2013  09:03:00       44.058       76.101       -4.344       27.335       47.151       39.908      747.202     2223.260     1592.630        0.616        0.228       87.935       27.149        0.095      336.297        7.504      851.410
10/09/2013  09:04:00       97.473       65.587       15.500       55.166       44.710       40.644     3043.315     1999.009     1651.900        1.037        0.335      117.485       27.579        0.055      336.290        7.492      851.412
10/09/2013  09:05:00       69.520       60.453        7.720       48.503       46.088       32.138     2352.560     2124.068     1032.848        0.703        0.275       92.128       25.345        0.076      336.312        7.529      851.417
10/09/2013  09:06:00      130.104       73.063       10.069       50.831       46.957       35.309     2583.800     2204.926     1246.750        1.420        0.302      149.215       11.254        0.006      336.357        7.603      851.430
10/09/2013  09:07:00      157.395       84.327        5.233       40.362       29.120       31.777     1629.111      847.999     1009.799        1.770        0.174      178.561       18.953        0.011      336.290        7.490      851.437
10/09/2013  09:08:00       37.355       39.585        8.898       44.868       28.878       27.263     2013.098      833.944      743.256        0.332        0.180       54.428       15.712        0.083      336.313        7.530      851.440
10/09/2013  09:09:00       52.072       24.217        8.492       18.257       17.852       16.149      333.320      318.699      260.775        0.214        0.046       57.428        8.899        0.024      336.359        7.607      851.444
10/09/2013  09:10:00       74.596       45.910       13.378       36.718       24.659       23.272     1348.182      608.046      541.588        0.517        0.125       87.592        9.312        0.011      336.355        7.602      851.447
10/09/2013  09:11:00       34.066       47.694       16.582       47.141       62.051       40.250     2222.240     3850.328     1620.026        0.570        0.385       58.611       30.471        0.270      336.409        7.690      851.451
10/09/2013  09:12:00       10.018      109.097       -6.401       63.726       51.419       39.031     4061.049     2643.875     1523.451        1.013        0.411      109.556       32.316        0.087      336.434        7.734      851.472
10/09/2013  09:13:00       15.087      185.699      -16.611       62.124       94.165       37.990     3859.366     8866.957     1443.254        2.458        0.708      186.311       49.795        0.071      336.365        7.616      851.469
10/09/2013  09:14:00       92.270      136.153       -9.584       69.813       87.667       52.140     4873.894     7685.449     2718.582        2.121        0.764      164.473       52.657        0.102      336.390        7.657      851.460
10/09/2013  09:15:00       41.392      179.012      -15.424       58.545       80.943       47.383     3427.503     6551.800     2245.107        2.311        0.611      183.735       49.733        0.073      336.428        7.719      851.479
10/09/2013  09:16:00      -82.209      354.882      -47.302       62.627       82.077       41.100     3922.144     6736.574     1689.249        7.364        0.617      364.279       33.603        0.009      336.373        7.625      851.484
10/09/2013  09:17:00        4.921      273.660      -41.857       59.234       64.833       42.461     3508.683     4203.278     1802.948        4.309        0.476      273.704       32.479        0.014      336.385        7.646      851.494
10/09/2013  09:18:00      -28.469      224.540      -21.789       71.662      111.599       45.808     5135.496    12454.363     2098.338        3.569        0.984      226.337       55.329        0.060      336.422        7.709      851.507
10/09/2013  09:19:00      -19.460      249.676      -27.274       51.924       57.813       38.438     2696.111     3342.354     1477.502        3.549        0.376      250.433       31.843        0.016      336.365        7.613      851.501
10/09/2013  09:20:00      -15.651      128.964       -9.878       55.997       72.066       45.724     3135.702     5193.569     2090.687        1.370        0.521      129.911       38.851        0.089      336.404        7.682      851.509
10/09/2013  09:21:00      -41.521      181.996      -17.758       64.243       70.816       33.187     4127.184     5014.933     1101.410        2.270        0.512      186.673       35.533        0.036      336.419        7.704      851.515
10/09/2013  09:22:00      -53.147      250.946      -27.536       61.577      101.994       38.080     3791.782    10402.682     1450.100        4.110        0.782      256.512       41.572        0.026      336.340        7.574      851.519
10/09/2013  09:23:00      -98.854      317.648      -40.341       59.665       57.978       36.828     3559.873     3361.496     1356.274        6.029        0.414      332.674       28.100        0.007      336.308        7.518      851.515
10/09/2013  09:24:00      -19.742      195.857      -24.793       62.131       50.277       36.282     3860.220     2527.787     1316.348        2.353        0.385      196.849       20.029        0.010      336.399        7.672      851.516
10/09/2013  09:25:00      -11.628      180.502       -9.423       59.633       68.138       42.510     3556.134     4642.730     1807.132        2.140        0.500      180.877       43.796        0.059      336.408        7.686      851.526
10/09/2013  09:26:00       19.245       83.732        0.887       73.469       75.584       39.909     5397.680     5713.013     1592.749        1.004        0.635       85.915       42.465        0.244      336.442        7.746      851.527
10/09/2013  09:27:00       14.693      187.826      -16.303       61.146       93.899       45.005     3738.808     8817.021     2025.483        2.517        0.729      188.400       51.968        0.076      336.341        7.576      851.533
10/09/2013  09:28:00       10.838      165.790      -16.648       56.758       69.552       41.842     3221.438     4837.442     1750.776        1.884        0.490      166.144       42.636        0.066      336.323        7.546      851.527
10/09/2013  09:29:00      -18.182      314.896      -36.423       54.545      102.474       32.460     2975.196    10501.008     1053.637        5.767        0.726      315.420       39.784        0.016      336.274        7.461      851.547
10/09/2013  09:30:00       27.608      156.299       -6.838       67.779       75.293       46.464     4594.029     5668.969     2158.904        1.883        0.621      158.718       43.775        0.076      336.328        7.554      851.555
10/09/2013  09:31:00       72.533      145.507       -8.942      116.055      102.064       61.769    13468.720    10417.081     3815.471        2.710        1.385      162.583       56.233        0.120      336.256        7.435      851.547
10/09/2013  09:32:00       79.324      240.840      -19.956      103.420      143.237       78.537    10695.747    20516.702     6168.114        5.103        1.869      253.567       81.517        0.103      336.231        7.391      851.543
10/09/2013  09:33:00       55.082      146.205       -4.513       93.972      151.592       75.445     8830.738    22979.994     5691.888        3.096        1.875      156.237       86.182        0.304      336.251        7.425      851.551
10/09/2013  09:34:00       40.620      191.562      -26.662       61.524      150.266       51.553     3785.214    22579.871     2657.691        3.403        1.451      195.822       72.527        0.137      336.269        7.454      851.555
10/09/2013  09:35:00       24.830      151.072       -0.540       67.391       86.701       52.371     4541.553     7517.139     2742.708        1.912        0.740      153.099       43.510        0.081      336.294        7.497      851.567
10/09/2013  09:36:00       72.197      123.012      -10.646       74.848       85.377       50.240     5602.183     7289.250     2524.067        1.793        0.771      142.633       47.919        0.113      336.335        7.565      851.562
10/09/2013  09:37:00      109.124      114.613      -12.489       73.885       65.955       55.917     5459.009     4350.098     3126.720        1.907        0.647      158.254       40.251        0.065      336.258        7.438      851.564
10/09/2013  09:38:00       60.803      133.291      -19.629       53.812       74.579       37.666     2895.700     5562.098     1418.744        1.586        0.494      146.504       41.439        0.080      336.291        7.493      851.573
10/09/2013  09:39:00       36.790      150.203      -14.099       48.060       82.769       39.606     2309.745     6850.773     1568.651        1.742        0.536      154.643       40.696        0.069      336.310        7.526      851.578
10/09/2013  09:40:00       53.036      141.369      -12.156       57.715       89.290       49.792     3331.029     7972.660     2479.280        1.836        0.689      150.990       52.169        0.119      336.312        7.528      851.569
10/09/2013  09:41:00       91.148      112.575       15.239      125.055       80.176       58.482    15638.660     6428.217     3420.117        2.335        1.274      144.849       47.904        0.109      336.320        7.540      851.561
10/09/2013  09:42:00       17.234      151.172      -15.975       45.669       74.009       39.013     2085.698     5477.338     1522.029        1.624        0.454      152.152       23.554        0.024      336.372        7.628      851.560
10/09/2013  09:43:00      -18.399      257.601      -35.494       50.564       92.287       40.849     2556.750     8516.919     1668.620        4.035        0.637      258.258       48.047        0.035      336.381        7.641      851.579
10/09/2013  09:44:00       22.008      179.112      -14.199       45.428      110.539       43.168     2063.742    12218.877     1863.459        2.445        0.807      180.459       58.169        0.104      336.423        7.714      851.583
10/09/2013  09:45:00      -22.313      151.099       -9.075       90.464       81.502       47.584     8183.695     6642.591     2264.198        2.025        0.855      152.737       46.207        0.092      336.455        7.766      851.583
10/09/2013  09:46:00     -142.937      247.095      -41.050       63.982       88.814       43.134     4093.657     7887.946     1860.527        4.850        0.692      285.459       38.328        0.018      336.445        7.749      851.593
10/09/2013  09:47:00      -96.749      193.039      -22.103       70.644       86.618       43.110     4990.608     7502.601     1858.484        3.073        0.718      215.927       35.004        0.026      336.455        7.764      851.579
10/09/2013  09:48:00     -100.069      219.220      -31.844       82.759      104.648       50.724     6848.992    10951.134     2572.881        3.972        1.019      240.979       57.105        0.056      336.459        7.772      851.571
10/09/2013  09:49:00      -10.892      264.328      -34.906       63.741       70.185       41.233     4062.899     4925.929     1700.177        4.095        0.534      264.552       35.468        0.018      336.464        7.779      851.569
10/09/2013  09:50:00      -30.840      316.788      -40.890       84.442       99.589       50.567     7130.407     9917.935     2557.023        6.129        0.980      318.286       43.633        0.019      336.437        7.733      851.569
10/09/2013  09:51:00       44.846      345.185      -40.368       94.084      131.634       70.610     8851.763    17327.412     4985.843        7.697        1.558      348.086       73.629        0.045      336.417        7.701      851.579
10/09/2013  09:52:00       10.159      336.982      -45.151       68.234      143.904       56.460     4655.882    20708.333     3187.676        7.212        1.428      337.135       72.219        0.046      336.372        7.627      851.585
10/09/2013  09:53:00      -50.644      333.694      -48.670       66.623       80.203       41.414     4438.640     6432.490     1715.098        6.443        0.629      337.515       39.051        0.013      336.425        7.713      851.580
10/09/2013  09:54:00      -21.572      214.168      -25.720       67.382       68.051       38.235     4540.358     4630.984     1461.931        2.881        0.532      215.252       24.897        0.013      336.564        7.950      851.581
10/09/2013  09:55:00      -64.248      283.040      -42.300       88.746       89.647       45.949     7875.933     8036.533     2111.277        5.202        0.901      290.240       43.178        0.022      336.484        7.812      851.578
10/09/2013  09:56:00      -81.270      222.354      -25.768       73.649       80.786       51.338     5424.225     6526.454     2635.563        3.565        0.729      236.740       51.029        0.046      336.502        7.843      851.584
10/09/2013  09:57:00      -36.598      305.115      -45.400       65.255      113.165       46.664     4258.206    12806.308     2177.552        5.787        0.962      307.302       50.099        0.027      336.494        7.830      851.593
10/09/2013  09:58:00      -57.934      236.250      -23.795       82.564      110.208       46.739     6816.765    12145.717     2184.536        4.044        1.057      243.250       53.210        0.048      336.501        7.844      851.628
10/09/2013  09:59:00      -67.033      348.181      -43.874       53.230       70.123       33.010     2833.415     4917.180     1089.683        6.824        0.442      354.575       28.575        0.006      336.448        7.752      851.631
10/09/2013  10:00:00      -75.406      428.887      -49.246       63.138       93.664       38.080     3986.438     8773.026     1450.056       10.313        0.710      435.466       38.233        0.008      336.422        7.709      851.625
10/09/2013  10:01:00       47.251      286.340      -45.497       64.863       99.489       49.555     4207.215     9898.118     2455.702        5.142        0.828      290.213       53.660        0.034      336.589        7.990      851.640
10/09/2013  10:02:00      -11.039      256.372      -26.875       77.386      117.236       61.782     5988.526    13744.264     3816.972        4.506        1.177      256.610       55.304        0.046      336.561        7.944      851.646
10/09/2013  10:03:00        3.546      175.261      -14.092       83.357       98.211       45.761     6948.420     9645.408     2094.026        2.480        0.934      175.297       51.486        0.086      336.634        8.066      851.656
10/09/2013  10:04:00       -6.321      152.079       -6.096       60.680       84.022       47.341     3682.114     7059.728     2241.184        1.809        0.649      152.210       43.931        0.083      336.674        8.133      851.674
10/09/2013  10:05:00      -66.951      231.950      -29.498       63.707       82.376       49.025     4058.577     6785.800     2403.452        3.620        0.662      241.420       46.925        0.038      336.625        8.050      851.682
10/09/2013  10:06:00      -24.630      291.076      -31.224       67.655       78.288       42.997     4577.137     6129.022     1848.720        4.943        0.628      292.116       40.449        0.019      336.527        7.885      851.688
10/09/2013  10:07:00      -22.094      390.824      -52.394       96.382       99.235       50.515     9289.532     9847.600     2551.794        8.883        1.084      391.448       54.972        0.020      336.444        7.744      851.691
10/09/2013  10:08:00      -13.196      254.905      -36.393       78.293      119.300       56.494     6129.863    14232.485     3191.538        4.501        1.178      255.246       51.518        0.041      336.564        7.950      851.676
10/09/2013  10:09:00      -12.386      281.091      -40.066       74.609       97.620       51.975     5566.577     9529.730     2701.399        4.928        0.890      281.364       48.293        0.029      336.553        7.929      851.693
10/09/2013  10:10:00        2.424      254.930       -7.766       98.788      146.190       90.195     9759.000    21371.522     8135.078        5.215        1.963      254.941       96.354        0.143      336.523        7.880      851.686
10/09/2013  10:11:00       22.343      397.011      -42.729       71.637      100.351       63.404     5131.892    10070.236     4020.073        8.958        0.961      397.639       58.649        0.022      336.475        7.798      851.692
10/09/2013  10:12:00       47.245      231.955      -24.759       59.158      151.190       63.718     3499.726    22858.283     4060.001        4.353        1.521      236.717       69.241        0.086      336.477        7.803      851.698
10/09/2013  10:13:00        5.381      253.871      -28.739       71.564      105.570       43.547     5121.452    11145.094     1896.308        4.173        0.908      253.928       57.329        0.051      336.513        7.863      851.699
10/09/2013  10:14:00      -34.631      283.306      -20.321      116.867      132.843       69.230    13657.948    17647.151     4792.783        5.898        1.805      285.415       73.951        0.067      336.576        7.967      851.681
10/09/2013  10:15:00      -32.400      147.263       -4.189       73.807       88.932       43.780     5447.465     7908.891     1916.726        1.901        0.764      150.786       45.015        0.089      336.690        8.161      851.710
10/09/2013  10:16:00       18.251      158.702       10.696       69.954       87.181       58.524     4893.592     7600.585     3425.099        2.077        0.796      159.748       52.618        0.108      336.698        8.173      851.697
10/09/2013  10:17:00      -21.349      277.554      -27.443       54.218      119.591       39.452     2939.622    14301.974     1556.471        4.852        0.940      278.373       53.569        0.037      336.502        7.844      851.695
10/09/2013  10:18:00      -31.824      261.485      -42.927       62.336       88.311       37.977     3885.761     7798.820     1442.235        4.218        0.656      263.414       37.465        0.020      336.578        7.969      851.681
10/09/2013  10:19:00      -21.134      220.801      -22.330      129.565      104.849       74.681    16787.022    10993.231     5577.309        4.152        1.668      221.810       69.960        0.099      336.675        8.132      851.674
10/09/2013  10:20:00      -69.592      208.227       -8.274       78.673      101.099       56.420     6189.446    10221.020     3183.207        3.393        0.980      219.548       45.783        0.043      336.766        8.285      851.678
10/09/2013  10:21:00        3.597      236.386      -20.337       72.729      149.474       56.193     5289.466    22342.527     3157.641        4.354        1.539      236.413       69.898        0.087      336.663        8.113      851.663
10/09/2013  10:22:00      -39.392      188.540      -20.034       59.493      124.470       57.085     3539.402    15492.698     3258.737        2.989        1.115      192.611       66.879        0.121      336.864        8.451      851.667
10/09/2013  10:23:00        1.870      266.466      -21.400       62.385      165.184       58.118     3891.882    27285.687     3377.650        5.300        1.728      266.473       71.877        0.073      336.783        8.313      851.676
10/09/2013  10:24:00      -38.241      340.785      -38.070       85.078      105.440       48.771     7238.290    11117.686     2378.575        6.989        1.037      342.924       52.020        0.023      336.694        8.165      851.683
10/09/2013  10:25:00      -76.311      272.706      -29.825       81.307      102.405       49.708     6610.808    10486.778     2470.891        5.032        0.978      283.182       52.616        0.035      336.719        8.206      851.704
10/09/2013  10:26:00      -44.586      374.409      -45.317       62.536       81.921       35.685     3910.796     6710.997     1273.389        7.806        0.595      377.055       31.978        0.007      336.568        7.954      851.701
10/09/2013  10:27:00      -43.411      293.772      -21.165       86.813      115.062       56.529     7536.444    13239.231     3195.526        5.630        1.199      296.962       61.267        0.043      336.775        8.301      851.709
10/09/2013  10:28:00       94.911      184.584        3.018      114.832      145.687       79.716    13186.476    21224.769     6354.712        4.192        2.038      207.556       80.203        0.149      336.892        8.496      851.718
10/09/2013  10:29:00       87.348      196.558       13.824      107.237      119.983       92.936    11499.738    14395.867     8637.097        4.049        1.727      215.093       86.377        0.161      336.738        8.238      851.725
10/09/2013  10:30:00       92.452      132.586        8.860       76.499      102.320       70.260     5852.143    10469.427     4936.459        2.373        1.063      161.637       64.192        0.158      336.799        8.343      851.714
10/09/2013  10:31:00       36.667      233.032      -18.626       72.606      135.369       71.695     5271.633    18324.875     5140.157        4.236        1.437      235.900       75.612        0.103      336.755        8.267      851.702
10/09/2013  10:32:00        4.526      295.594      -43.045       69.406       87.060       47.277     4817.242     7579.370     2235.157        5.194        0.732      295.629       39.287        0.018      336.711        8.192      851.712
10/09/2013  10:33:00       -7.287      455.512      -60.520       79.569      121.385       49.026     6331.148    14734.386     2403.522       11.733        1.173      455.570       60.257        0.017      336.588        7.987      851.708
10/09/2013  10:34:00       14.706      215.524      -26.861       65.722      114.307       55.396     4319.320    13066.044     3068.694        3.392        1.023      216.025       61.791        0.082      336.812        8.362      851.711
10/09/2013  10:35:00       -5.292      257.374      -26.982      103.638      103.475       66.614    10740.772    10707.047     4437.489        4.644        1.294      257.429       62.342        0.059      336.854        8.432      851.719
10/09/2013  10:36:00      -25.899      354.085      -49.246       65.692       87.152       47.080     4315.382     7595.547     2216.507        7.130        0.706      355.031       39.180        0.012      336.711        8.193      851.728
10/09/2013  10:37:00       -6.861       87.311      -14.127       58.242       80.166       28.666     3392.076     6426.627      821.712        0.925        0.532       87.581       33.426        0.146      337.018        8.708      851.724
10/09/2013  10:38:00       66.042      124.444      -17.079       69.155       84.474       45.658     4782.351     7135.910     2084.623        1.707        0.700      140.883       40.541        0.083      337.084        8.817      851.736
10/09/2013  10:39:00       66.404      114.215        3.523       81.639       83.996       60.328     6664.855     7055.385     3639.497        1.741        0.868      132.116       49.850        0.142      336.762        8.279      851.735
10/09/2013  10:40:00       -0.397      145.254       -2.478       67.526       89.051       46.104     4559.770     7930.087     2125.607        1.786        0.731      145.255       43.218        0.089      336.999        8.677      851.723
10/09/2013  10:41:00       99.976      147.012        1.113      105.367       74.293       60.703    11102.174     5519.509     3684.867        2.595        1.015      177.786       30.952        0.030      337.145        8.920      851.739
10/09/2013  10:42:00      123.444      166.358       17.048      147.199      141.601       96.748    21667.523    20050.977     9360.204        4.713        2.554      207.155       81.993        0.157      337.043        8.749      851.732
10/09/2013  10:43:00       53.584      211.668       -0.195      107.280      149.965       76.098    11509.085    22489.447     5790.877        4.372        1.989      218.346       78.587        0.130      336.997        8.671      851.774
10/09/2013  10:44:00       72.633      345.682      -36.659       79.792      193.940       86.674     6366.789    37612.698     7512.362        8.879        2.575      353.230      101.230        0.082      336.831        8.393      851.781
10/09/2013  10:45:00       96.919      206.420        6.087      116.815      130.732       74.500    13645.830    17090.893     5550.230        4.416        1.814      228.041       76.340        0.112      336.849        8.424      851.791
10/09/2013  10:46:00       78.123      115.664        7.186       92.805       85.138       67.965     8612.817     7248.459     4619.279        2.000        1.024      139.576       53.200        0.145      336.906        8.521      851.797
10/09/2013  10:47:00       67.770      125.537        9.984       87.279       90.187       63.334     7617.581     8133.728     4011.136        2.010        0.988      142.662       51.194        0.129      337.035        8.736      851.814
10/09/2013  10:48:00       36.951      115.902       12.313      108.237       98.425       60.987    11715.347     9687.414     3719.402        2.003        1.256      121.650       53.264        0.192      337.060        8.777      851.814
10/09/2013  10:49:00       -4.842      202.447       -6.381       77.431      118.636       65.799     5995.542    14074.601     4329.509        3.272        1.220      202.505       61.324        0.092      337.070        8.794      851.813
10/09/2013  10:50:00       -8.914      264.916      -15.381       94.829      123.008       63.507     8992.485    15131.034     4033.155        4.932        1.408      265.066       62.051        0.055      337.036        8.736      851.815
10/09/2013  10:51:00       51.616       96.457       17.841       93.623       80.061       58.896     8765.330     6409.718     3468.692        1.546        0.932      109.399       46.876        0.184      337.089        8.826      851.827
10/09/2013  10:52:00      137.707      148.737       22.077       89.014       93.890       78.978     7923.511     8815.255     6237.577        3.227        1.149      202.697       59.192        0.085      336.979        8.641      851.818
10/09/2013  10:53:00       74.811      143.505       10.343      101.050       86.762       75.366    10211.143     7527.680     5680.080        2.485        1.171      161.834       60.906        0.142      337.062        8.781      851.847
10/09/2013  10:54:00      112.794      167.950        0.354       84.500      105.670       87.783     7140.292    11166.242     7705.838        3.347        1.301      202.311       78.189        0.149      336.799        8.340      851.842
10/09/2013  10:55:00       85.733      141.804       -6.650       92.529       87.924       67.207     8561.628     7730.551     4516.823        2.415        1.040      165.707       52.766        0.101      336.860        8.443      851.848
10/09/2013  10:56:00       96.253      147.640       -4.221       80.665       69.008       51.309     6506.853     4762.073     2632.632        2.249        0.695      176.245       44.698        0.064      336.862        8.446      851.839
10/09/2013  10:57:00       74.023      175.982      -15.713       74.910       98.239       62.237     5611.512     9650.933     3873.486        2.791        0.957      190.916       50.699        0.071      336.842        8.413      851.835
10/09/2013  10:58:00       52.011      265.688      -25.617       78.932      133.895       74.609     6230.247    17927.969     5566.436        5.183        1.486      270.731       70.011        0.067      336.978        8.639      851.858
10/09/2013  10:59:00       18.596      230.869       -7.520       96.910      134.953       74.766     9391.585    18212.258     5589.902        4.344        1.660      231.617       84.700        0.134      336.929        8.556      851.861
10/09/2013  11:00:00       99.585      180.760       -4.555      125.169      125.653       62.354    15667.224    15788.570     3888.079        3.897        1.767      206.376       64.686        0.098      337.020        8.710      851.864
10/09/2013  11:01:00       49.163      214.749       -8.931       91.712      146.712       79.435     8411.175    21524.512     6309.961        4.242        1.812      220.304       77.092        0.122      336.984        8.649      851.869
10/09/2013  11:02:00      -14.368      328.617      -28.594      106.527      165.331       75.413    11347.974    27334.450     5687.079        7.668        2.218      328.931       85.117        0.067      336.983        8.649      851.880
10/09/2013  11:03:00       21.377      374.551      -42.322       89.832      126.895       67.763     8069.844    16102.227     4591.845        8.564        1.438      375.161       72.782        0.038      336.806        8.352      851.888
10/09/2013  11:04:00       17.274      338.252      -37.240       73.532      100.330       60.603     5406.919    10066.181     3672.689        6.762        0.957      338.692       54.667        0.026      336.971        8.627      851.888
10/09/2013  11:05:00       -0.450      291.215      -31.126      109.880       95.803       72.337    12073.599     9178.149     5232.663        5.612        1.324      291.216       68.829        0.056      337.050        8.759      851.888
10/09/2013  11:06:00        2.671      275.008      -13.189      115.347      139.865       83.085    13304.916    19562.229     6903.167        5.778        1.989      275.021       89.744        0.106      337.112        8.864      851.871
10/09/2013  11:07:00      -24.505      369.896      -45.089       92.980      105.955       51.248     8645.340    11226.524     2626.330        8.097        1.125      370.707       44.777        0.015      337.048        8.755      851.888
10/09/2013  11:08:00       76.147      158.652        4.211      104.033      115.021       68.149    10822.927    13229.768     4644.248        2.984        1.435      175.979       63.316        0.129      337.148        8.924      851.882
10/09/2013  11:09:00      116.560      106.031       22.586       99.098       93.455       72.195     9820.407     8733.835     5212.091        2.455        1.188      157.572       68.083        0.187      337.119        8.876      851.891
10/09/2013  11:10:00       41.859      297.955      -21.251       91.984      163.982       82.073     8461.120    26890.218     6735.939        6.653        2.104      300.881       86.617        0.083      336.981        8.645      851.906
10/09/2013  11:11:00        8.230      247.220      -20.623       82.470      198.303       68.479     6801.347    39323.930     4689.355        5.620        2.541      247.356      101.580        0.169      336.955        8.600      851.886
10/09/2013  11:12:00      157.644      163.784       11.706      102.434       76.197       74.504    10492.714     5805.979     5550.847        3.683        1.092      227.325       52.521        0.053      337.011        8.694      851.872
10/09/2013  11:13:00      131.476      198.378        7.825      131.445      134.347       84.953    17277.751    18049.183     7217.094        4.961        2.127      237.991       83.910        0.124      336.977        8.639      851.869
10/09/2013  11:14:00      184.622      164.457       14.283      148.523      129.412       72.816    22058.939    16747.573     5302.100        5.271        2.205      247.248       58.876        0.057      337.019        8.705      851.849
10/09/2013  11:15:00      184.134      145.095       -2.307      108.555       98.689       74.338    11784.245     9739.592     5526.082        4.100        1.352      234.431       42.596        0.033      336.962        8.613      851.860
10/09/2013  11:16:00      224.995      137.493       21.127      118.814       93.346       85.912    14116.697     8713.458     7380.899        5.009        1.511      263.680       45.436        0.030      336.919        8.540      851.866
10/09/2013  11:17:00      203.286      200.427       11.861      121.533      114.626       80.738    14770.237    13139.079     6518.635        5.803        1.721      285.475       53.909        0.036      336.926        8.552      851.874
10/09/2013  11:18:00      198.782      132.769       32.006      138.222       82.535       73.102    19105.203     6812.041     5343.900        4.471        1.563      239.044       40.119        0.028      336.982        8.645      851.863
10/09/2013  11:19:00      219.585      155.858       22.509       93.795       77.775       78.690     8797.571     6048.935     6192.178        4.702        1.052      269.276       49.222        0.033      336.954        8.599      851.862
10/09/2013  11:20:00       89.339      210.485       -1.903       88.010      140.258       89.254     7745.709    19672.378     7966.219        4.383        1.769      228.660       83.092        0.132      336.932        8.562      851.886
10/09/2013  11:21:00      139.243      162.903        2.534      106.483       75.583       67.577    11338.524     5712.799     4566.610        3.377        1.081      214.304       55.576        0.067      336.918        8.538      851.891
10/09/2013  11:22:00       84.338      196.593       -8.727       86.439      104.733       73.571     7471.621    10969.064     5412.676        3.484        1.193      213.920       65.365        0.093      336.890        8.491      851.883
10/09/2013  11:23:00      143.083      106.065       -7.497      120.404       84.569       58.842    14497.028     7151.842     3462.388        2.844        1.256      178.108       28.876        0.026      337.006        8.687      851.872
10/09/2013  11:24:00       89.752      161.435       -0.631      120.389      115.733       61.733    14493.533    13394.151     3811.007        3.290        1.585      184.707       64.257        0.121      336.927        8.554      851.889
10/09/2013  11:25:00       29.535      195.772       -1.659       90.390      120.437       60.231     8170.419    14505.182     3627.772        3.275        1.315      197.987       61.152        0.095      337.039        8.741      851.883
10/09/2013  11:26:00      131.572      143.788       -2.632       99.239       89.063       56.263     9848.401     7932.169     3165.499        2.947        1.047      194.900       49.688        0.065      337.103        8.849      851.885
10/09/2013  11:27:00      172.204       98.283       22.003      105.987       61.020       51.809    11233.225     3723.411     2684.203        2.872        0.882      198.277       26.707        0.018      337.147        8.922      851.885
10/09/2013  11:28:00      172.598      137.800       11.424      123.151       70.664       64.357    15166.193     4993.452     4141.805        3.660        1.215      220.859       35.446        0.026      337.034        8.732      851.888
10/09/2013  11:29:00       25.157      193.033      -12.522       88.639      165.357       54.647     7856.864    27342.924     2986.324        3.811        1.909      194.665       75.450        0.150      337.022        8.715      851.928
10/09/2013  11:30:00       52.361      179.548       -7.036       74.220      121.271       69.333     5508.671    14706.776     4807.099        3.002        1.251      187.027       76.647        0.168      336.979        8.639      851.912
10/09/2013  11:31:00        0.392      227.613      -24.229       75.625      127.097       52.712     5719.154    16153.555     2778.553        3.852        1.233      227.614       69.112        0.092      337.048        8.755      851.917
10/09/2013  11:32:00       49.974      173.587       -4.319       83.171       92.148       60.086     6917.475     8491.220     3610.368        2.583        0.951      180.638       59.022        0.107      337.157        8.939      851.930
10/09/2013  11:33:00       82.954      194.703      -14.354      102.807      102.379       82.369    10569.356    10481.390     6784.661        3.641        1.392      211.638       67.304        0.101      337.096        8.837      851.949
10/09/2013  11:34:00       74.084      128.694       -0.499       78.209      101.729       53.720     6116.632    10348.843     2885.879        2.070        0.968      148.495       53.594        0.130      336.996        8.671      851.933
10/09/2013  11:35:00       63.419      128.878        5.926       75.168      107.904       57.652     5650.167    11643.184     3323.737        2.064        1.031      143.637       58.439        0.166      337.037        8.737      851.920
10/09/2013  11:36:00       97.445      139.815        4.413      103.819      111.045       69.276    10778.317    12331.065     4799.233        2.848        1.395      170.423       65.893        0.149      337.065        8.787      851.907
10/09/2013  11:37:00       34.507      155.313      -16.247       49.849       87.411       44.517     2484.951     7640.632     1981.757        1.884        0.605      159.100       46.512        0.085      337.109        8.860      851.914
10/09/2013  11:38:00      -41.860      320.843      -38.505       72.689      182.583       47.988     5283.651    33336.513     2302.840        7.354        2.046      323.562       69.271        0.046      337.110        8.859      851.927
10/09/2013  11:39:00     -127.407      416.311      -51.216       84.817      122.698       53.678     7193.913    15054.808     2881.336       10.865        1.257      435.371       59.853        0.019      336.997        8.670      851.919
10/09/2013  11:40:00      -62.694      412.087      -28.678       85.055      166.567       77.394     7234.330    27744.731     5989.761       10.776        2.048      416.829       89.670        0.046      337.068        8.791      851.916
10/09/2013  11:41:00        9.462      223.247      -15.704       88.741       99.889       61.833     7874.996     9977.724     3823.295        3.592        1.084      223.447       59.318        0.070      337.225        9.054      851.931
10/09/2013  11:42:00       27.052      255.039      -23.203       92.770      117.494       79.906     8606.302    13804.905     6384.947        4.755        1.440      256.470       80.380        0.098      337.100        8.843      851.928
10/09/2013  11:43:00       -5.106      372.839      -43.621      119.250      157.044       80.575    14220.552    24662.737     6492.341        9.315        2.269      372.873       91.677        0.060      337.092        8.829      851.960
10/09/2013  11:44:00      -10.479      427.401      -50.621       92.895      101.157       54.340     8629.567    10232.645     2952.791       10.357        1.091      427.529       53.694        0.016      337.037        8.737      851.973
10/09/2013  11:45:00      -10.518      428.911      -63.267       93.829      121.078       54.283     8803.858    14659.791     2946.594       10.724        1.321      429.040       52.779        0.015      337.050        8.757      851.993
10/09/2013  11:46:00      -50.530      314.958      -24.861       82.682      115.158       61.088     6836.382    13261.329     3731.776        6.309        1.191      318.986       56.478        0.031      337.255        9.101      851.991
10/09/2013  11:47:00      -88.823      407.193      -43.722       88.177      111.110       55.966     7775.231    12345.358     3132.139        9.943        1.163      416.769       55.564        0.018      337.143        8.914      852.003
10/09/2013  11:48:00       14.254      331.771      -46.873       73.452      112.582       52.310     5395.209    12674.661     2736.388        6.664        1.040      332.077       55.114        0.028      337.269        9.126      852.013
10/09/2013  11:49:00      -32.395      401.495      -48.566       75.457      143.723       55.318     5693.806    20656.349     3060.047        9.700        1.471      402.800       61.208        0.023      337.143        8.915      852.020
10/09/2013  11:50:00      -59.750      306.761      -30.042      122.488      152.894       65.899    15003.306    23376.493     4342.737        7.064        2.136      312.526       72.372        0.054      337.240        9.078      852.016
10/09/2013  11:51:00      -19.695      265.499        9.638      159.486      223.918       84.368    25435.939    50139.121     7117.959        7.682        4.135      266.229      101.171        0.144      337.187        8.989      852.016
10/09/2013  11:52:00       51.550      177.831       -4.535      115.823      154.712       78.845    13414.905    23935.841     6216.608        3.893        2.178      185.152       86.997        0.221      337.169        8.960      852.014
10/09/2013  11:53:00       49.919      278.312      -21.462       89.561      141.594       79.600     8021.170    20048.967     6336.163        5.740        1.720      282.754       90.995        0.104      337.096        8.836      852.007
10/09/2013  11:54:00      138.830      125.463       11.851      146.622       78.820       71.638    21498.026     6212.612     5132.062        3.399        1.642      187.122       63.694        0.116      337.266        9.121      851.997
10/09/2013  11:55:00       93.341      253.195       -7.451      139.894      133.284       74.724    19570.290    17764.740     5583.666        5.789        2.146      269.852       83.428        0.096      337.256        9.105      851.995
10/09/2013  11:56:00      128.191      192.573       20.157      115.049      120.013       90.437    13236.313    14403.132     8178.823        4.486        1.791      231.338       78.353        0.115      337.209        9.026      851.981
10/09/2013  11:57:00      112.802       88.480        2.550      122.280       76.876       55.884    14952.417     5909.922     3123.021        2.227        1.199      143.363       32.254        0.051      337.560        9.614      851.966
10/09/2013  11:58:00       24.866       99.328        8.780       62.390       82.246       44.597     3892.554     6764.429     1988.881        1.160        0.632      102.393       34.138        0.111      337.885       10.160      851.985
10/09/2013  11:59:00       87.751      187.188       -3.591      110.556      101.682       80.289    12222.689    10339.200     6446.345        3.587        1.450      206.736       62.999        0.093      337.474        9.471      851.990
10/09/2013  12:00:00       63.755      261.895      -28.170       93.597      137.297       77.429     8760.444    18850.445     5995.230        5.352        1.680      269.544       74.887        0.077      337.340        9.246      851.981
10/09/2013  12:01:00       70.576      264.968      -39.075       80.060      132.595       73.174     6409.654    17581.438     5354.467        5.302        1.467      274.206       76.150        0.077      337.413        9.367      851.967
10/09/2013  12:02:00       60.424      236.497      -16.847       99.391      127.771       70.173     9878.640    16325.489     4924.265        4.549        1.556      244.094       73.493        0.091      337.525        9.555      851.979
10/09/2013  12:03:00       61.278      273.900       -7.111       88.480      196.313       91.888     7828.665    38538.656     8443.477        6.681        2.741      280.671      117.203        0.174      337.350        9.263      852.003
10/09/2013  12:04:00      158.311      215.836        4.590      138.263      140.657      101.922    19116.563    19784.509    10388.056        6.047        2.464      267.670       94.113        0.124      337.246        9.088      851.986
10/09/2013  12:05:00       51.513      151.592       -4.111       72.719      100.688       61.206     5288.022    10137.986     3746.125        2.241        0.959      160.105       62.156        0.151      337.368        9.293      851.979
10/09/2013  12:06:00       36.412      103.275        7.370       52.491       86.713       50.251     2755.311     7519.073     2525.201        1.242        0.640      109.506       54.821        0.251      337.580        9.651      851.968
10/09/2013  12:07:00      133.320      164.833        5.312       88.232      101.735       72.200     7784.958    10350.054     5212.814        3.416        1.167      212.000       73.401        0.120      337.507        9.526      851.954
10/09/2013  12:08:00       34.610      226.083      -12.773      126.515      132.751       63.452    16006.146    17622.941     4026.150        4.506        1.883      228.717       77.459        0.115      337.762        9.953      851.945
10/09/2013  12:09:00       84.236      189.643       -8.700       93.497      108.760       68.542     8741.690    11828.776     4697.957        3.420        1.263      207.509       55.856        0.072      338.019       10.384      851.970
10/09/2013  12:10:00      110.914      160.228       13.457      128.047      124.751       77.208    16395.955    15562.889     5961.042        3.803        1.896      194.872       75.772        0.151      337.634        9.737      851.964
10/09/2013  12:11:00       62.187      245.080       -7.499      113.253      153.894       90.570    12826.317    23683.446     8202.915        5.434        2.236      252.847       92.289        0.133      337.583        9.651      851.967
10/09/2013  12:12:00      156.870      173.720       20.862      157.236      149.972       87.141    24723.013    22491.471     7593.597        5.500        2.740      234.066       82.803        0.125      337.427        9.393      851.967
10/09/2013  12:13:00       13.814      293.896      -34.670       91.123      202.570       58.626     8303.470    41034.452     3437.060        7.026        2.639      294.221       89.146        0.092      337.462        9.449      851.967
10/09/2013  12:14:00       29.352      209.973       -8.490       97.386      129.443       67.037     9484.084    16755.448     4493.951        3.787        1.537      212.014       65.862        0.097      337.677        9.811      851.943
10/09/2013  12:15:00       31.781      147.193      -18.184       93.449      100.469       44.781     8732.789    10094.043     2005.359        2.192        1.042      150.585       36.796        0.060      337.732        9.903      851.932
10/09/2013  12:16:00      159.829      177.636       31.621      127.200      114.561       85.094    16179.930    13124.254     7240.943        4.732        1.827      238.956       64.548        0.073      337.472        9.465      851.911
10/09/2013  12:17:00        4.454      319.212      -35.866      104.599      162.370       65.214    10940.982    26363.880     4252.893        7.237        2.078      319.243       64.837        0.041      337.577        9.642      851.897
10/09/2013  12:18:00      -27.001      407.762      -38.365      127.184      158.721       74.529    16175.809    25192.236     5554.561       10.769        2.346      408.655       81.587        0.040      337.552        9.599      851.921
10/09/2013  12:19:00      -33.710      390.301      -41.054       69.294       98.791       54.308     4801.691     9759.622     2949.401        8.633        0.876      391.754       48.401        0.015      337.379        9.311      851.913
10/09/2013  12:20:00      -18.682      199.991        6.468      106.828      136.330       73.340    11412.271    18585.976     5378.693        3.787        1.769      200.861       79.444        0.156      337.553        9.603      851.899
10/09/2013  12:21:00       55.274      266.185      -13.790       76.682      121.679       83.578     5880.137    14805.811     6985.279        5.088        1.384      271.863       82.908        0.093      337.548        9.592      851.881
10/09/2013  12:22:00      -39.553      398.177      -42.401       88.964      130.154       59.520     7914.612    16940.105     3542.612        9.515        1.420      400.136       66.124        0.027      337.449        9.428      851.863
10/09/2013  12:23:00       61.205      311.955      -28.681       94.700      160.079       70.549     8968.140    25625.250     4977.161        7.072        1.979      317.902       85.917        0.073      337.501        9.515      851.865
10/09/2013  12:24:00       63.510      309.822      -15.205      145.702      192.244       71.968    21229.073    36957.857     5179.343        8.180        3.168      316.264       93.060        0.087      337.579        9.646      851.851
10/09/2013  12:25:00      131.358      142.719       17.827      158.342      110.434       85.266    25072.157    12195.727     7270.375        4.123        2.227      193.968       70.483        0.132      337.565        9.622      851.858
10/09/2013  12:26:00       36.745      197.053      -10.156      101.840      155.313       67.066    10371.418    24122.161     4497.903        3.963        1.950      200.449       70.226        0.123      337.661        9.784      851.867
10/09/2013  12:27:00       70.841      221.272        6.479      124.337      164.006       96.024    15459.709    26897.918     9220.567        5.279        2.579      232.336       94.277        0.165      337.597        9.675      851.869
10/09/2013  12:28:00      113.262      209.751        4.675      129.427      183.994      100.174    16751.349    33853.711    10034.859        5.873        3.032      238.378      109.474        0.211      337.541        9.583      851.874
10/09/2013  12:29:00      119.091      174.730       18.521      128.048      141.279       91.927    16396.229    19959.749     8450.603        4.492        2.240      211.454       90.827        0.185      337.471        9.466      851.876
10/09/2013  12:30:00      177.947      239.494       14.900      179.034      178.102      113.088    32053.042    31720.471    12788.951        8.289        3.828      298.366      100.686        0.114      337.388        9.326      851.853
10/09/2013  12:31:00      192.189      262.311        3.256      150.519      168.903      105.867    22655.824    28528.154    11207.864        8.406        3.120      325.182       94.315        0.084      337.348        9.257      851.849
10/09/2013  12:32:00      120.640      149.581       31.959      121.543       97.638       70.748    14772.663     9533.208     5005.236        3.362        1.466      192.168       53.315        0.077      337.564        9.620      851.816
10/09/2013  12:33:00      135.994      180.611       15.615      154.077      115.884       77.089    23739.572    13428.988     5942.678        4.723        2.156      226.085       72.940        0.104      337.586        9.658      851.806
10/09/2013  12:34:00      213.676      241.785       19.914      171.941      150.150       98.627    29563.567    22545.158     9727.273        8.316        3.092      322.673       73.259        0.052      337.471        9.464      851.775
10/09/2013  12:35:00      182.324      204.904       19.575      164.577      141.134       97.685    27085.661    19918.927     9542.310        6.607        2.827      274.276       90.453        0.109      337.422        9.381      851.783
10/09/2013  12:36:00      169.952      169.169       11.416      121.715       89.351       80.682    14814.544     7983.676     6509.583        4.346        1.465      239.796       65.138        0.074      337.521        9.548      851.771
10/09/2013  12:37:00      107.146      151.366       12.650       91.710       93.228       72.431     8410.804     8691.491     5246.187        2.845        1.117      185.450       65.046        0.123      337.669        9.797      851.772
10/09/2013  12:38:00      237.685      207.525       20.099      189.303      143.626       94.779    35835.461    20628.294     8983.013        8.269        3.272      315.533       85.291        0.073      337.649        9.762      851.764
10/09/2013  12:39:00      244.410      174.206       23.545      110.258       89.716       79.430    12156.725     8049.043     6309.118        5.857        1.326      300.140       59.406        0.039      337.550        9.597      851.761
10/09/2013  12:40:00      232.232      180.772       20.649      117.591       92.469       77.246    13827.527     8550.557     5966.883        5.769        1.417      294.296       44.847        0.023      337.516        9.539      851.738
10/09/2013  12:41:00      226.868      173.203       45.049      144.145       96.494       76.018    20777.654     9311.055     5778.718        5.968        1.793      285.426       28.473        0.010      337.671        9.800      851.735
10/09/2013  12:42:00       52.388      158.003        6.822       83.252      122.778       72.948     6930.836    15074.470     5321.452        2.754        1.366      166.462       72.903        0.192      337.825       10.058      851.783
10/09/2013  12:43:00       57.072      103.711       25.071       96.320      108.342       68.246     9277.448    11737.890     4657.577        2.015        1.284      118.377       58.343        0.243      337.643        9.754      851.767
10/09/2013  12:44:00       36.423      296.500      -25.538       88.259      218.040       90.936     7789.603    47541.393     8269.447        7.673        3.180      298.729      109.933        0.135      337.446        9.422      851.754
10/09/2013  12:45:00       80.819      242.909       -7.329      109.635      129.511       94.351    12019.896    16773.099     8902.076        5.164        1.885      256.001       86.018        0.113      337.537        9.574      851.757
10/09/2013  12:46:00       84.020      255.850      -16.330       78.987      140.963       80.750     6238.922    19870.634     6520.569        5.270        1.632      269.292       80.647        0.090      337.478        9.477      851.753
10/09/2013  12:47:00      101.404      178.368      -13.003       96.414       94.617       72.856     9295.657     8952.343     5307.941        3.291        1.178      205.178       56.236        0.075      337.540        9.580      851.738
10/09/2013  12:48:00      177.941      142.029       10.441      112.329       79.438       62.962    12617.772     6310.326     3964.253        3.741        1.145      227.674       38.393        0.028      337.529        9.562      851.710
10/09/2013  12:49:00      153.106       90.429       28.349       79.019       72.360       55.824     6244.004     5235.939     3116.369        2.351        0.730      177.817       43.486        0.060      337.657        9.780      851.691
10/09/2013  12:50:00       56.114      142.154        6.316       86.404       87.734       64.890     7465.585     7697.274     4210.685        2.138        0.969      152.829       56.301        0.136      337.738        9.912      851.680
10/09/2013  12:51:00      324.124      240.833       33.955      150.373      111.602      101.589    22611.926    12455.048    10320.283       10.479        2.269      403.803       66.306        0.027      337.601        9.682      851.641
10/09/2013  12:52:00      303.470      204.073       53.158      199.217      123.153       95.826    39687.350    15166.699     9182.547       10.029        3.202      365.705       44.573        0.015      337.746        9.925      851.573
10/09/2013  12:53:00       64.235      203.544       -3.542      105.420      141.125       79.432    11113.336    19916.197     6309.517        4.145        1.867      213.439       71.699        0.113      337.813       10.038      851.664
10/09/2013  12:54:00       86.763      284.651      -15.801      117.645      164.853       96.185    13840.435    27176.608     9251.489        6.953        2.513      297.580       92.867        0.097      337.620        9.715      851.657
10/09/2013  12:55:00       70.383      289.221      -17.626      113.271      177.525       98.040    12830.372    31515.188     9611.804        7.142        2.698      297.662      101.693        0.117      337.722        9.886      851.650
10/09/2013  12:56:00      114.459      198.082       -1.194      102.030      149.249      101.107    10410.214    22275.161    10222.552        4.761        2.145      228.774       92.393        0.163      337.655        9.772      851.624
10/09/2013  12:57:00      106.328      294.735      -16.784      121.762      180.495       89.293    14826.067    32578.502     7973.318        7.691        2.769      313.328       93.887        0.090      337.720        9.882      851.610
10/09/2013  12:58:00       96.659      180.729       -1.990       93.214      130.350       77.711     8688.846    16991.091     6038.966        3.686        1.586      204.954       77.526        0.143      337.762        9.953      851.615
10/09/2013  12:59:00       65.576      393.097      -24.862      106.488      187.477       98.951    11339.752    35147.459     9791.341       10.785        2.814      398.529      110.941        0.077      337.635        9.738      851.606
10/09/2013  13:00:00      114.901      238.368      -25.977      117.887      161.728       80.362    13897.391    26155.861     6458.073        5.859        2.326      264.616       84.296        0.101      337.619        9.713      851.609
10/09/2013  13:01:00      -19.273      206.544      -14.219      101.570      123.095       60.583    10316.412    15152.499     3670.306        3.618        1.457      207.442       69.187        0.111      337.645        9.757      851.607
10/09/2013  13:02:00       60.288      142.838        6.672      102.668      149.497       65.859    10540.734    22349.267     4337.432        3.065        1.861      155.039       59.901        0.149      337.787        9.995      851.593
10/09/2013  13:03:00      173.779      196.125      -10.626      163.032      111.102       85.607    26579.288    12343.548     7328.604        5.750        2.313      262.038       61.714        0.055      337.690        9.831      851.591
10/09/2013  13:04:00      111.176      205.256       -6.747      139.104      122.416       75.426    19350.008    14985.620     5689.015        4.727        2.001      233.431       62.693        0.072      337.712        9.869      851.599
10/09/2013  13:05:00      126.405      220.583      -14.289      114.712      131.092       82.747    13158.876    17185.204     6847.018        5.101        1.860      254.234       84.304        0.110      337.576        9.640      851.589
10/09/2013  13:06:00      165.947      164.486        3.139      142.208      100.373       66.971    20223.128    10074.662     4485.170        4.469        1.739      233.654       50.795        0.047      337.648        9.763      851.570
10/09/2013  13:07:00      184.810      133.838        6.070      110.054      113.560       75.050    12111.959    12895.819     5632.478        4.137        1.532      228.182       61.695        0.073      337.662        9.784      851.564
10/09/2013  13:08:00      176.616      192.104       16.407      145.138      118.730       98.204    21065.086    14096.784     9644.084        5.658        2.240      260.954       80.596        0.095      337.533        9.569      851.552
10/09/2013  13:09:00      146.013       98.199       34.821       99.145       54.368       50.671     9829.641     2955.856     2567.542        2.376        0.768      175.963       30.292        0.030      337.679        9.814      851.537
10/09/2013  13:10:00       70.583      192.739      -12.237       73.109       89.497       62.210     5344.971     8009.734     3870.146        2.975        0.861      205.257       60.073        0.086      337.667        9.794      851.535
10/09/2013  13:11:00       76.179      397.695      -38.283      133.449      172.835       99.400    17808.764    29871.799     9880.454       11.148        2.878      404.925      101.880        0.063      337.588        9.660      851.545
10/09/2013  13:12:00      106.014      232.378      -23.579      127.223      131.793       73.197    16185.779    17369.295     5357.739        5.235        1.946      255.418       73.062        0.082      337.650        9.764      851.531
10/09/2013  13:13:00       79.786      293.685      -16.468      113.941      183.189       78.762    12982.621    33558.315     6203.376        7.281        2.637      304.330       88.055        0.084      337.578        9.643      851.516
10/09/2013  13:14:00      150.579      224.583       -1.706      127.524      145.619       90.239    16262.272    21204.843     8143.030        5.935        2.281      270.391       83.950        0.096      337.521        9.550      851.496
10/09/2013  13:15:00       77.043      328.140      -38.058      105.371      143.333       65.660    11103.149    20544.480     4311.204        7.550        1.798      337.063       66.943        0.039      337.575        9.638      851.494
10/09/2013  13:16:00      126.038      140.172       26.140      121.609      109.760       70.387    14788.779    12047.257     4954.269        3.400        1.590      188.504       56.543        0.090      337.685        9.824      851.491
10/09/2013  13:17:00       30.803      298.396      -37.105       92.942      134.391       72.419     8638.162    18061.012     5244.478        6.165        1.597      299.982       70.296        0.055      337.686        9.826      851.478
10/09/2013  13:18:00      103.301      314.035      -20.429      176.651      186.431       90.061    31205.566    34756.568     8110.958        9.187        3.704      330.589       95.065        0.083      337.734        9.905      851.476
10/09/2013  13:19:00      141.349      161.882       14.205      125.929      100.950       69.976    15858.188    10190.984     4896.626        3.866        1.547      214.907       53.238        0.061      337.732        9.902      851.455
10/09/2013  13:20:00      110.280       91.039        5.873      120.338       70.460       63.515    14481.313     4964.554     4034.127        2.198        1.174      143.002       37.635        0.069      337.748        9.929      851.463
10/09/2013  13:21:00        9.892      384.051      -45.886       80.137      222.930       91.952     6422.018    49697.803     8455.187       10.712        3.229      384.178      103.044        0.072      337.606        9.692      851.465
10/09/2013  13:22:00       25.554      467.668      -70.777       81.909      126.991       56.466     6709.150    16126.691     3188.395       12.519        1.301      468.366       57.768        0.015      337.550        9.596      851.449
10/09/2013  13:23:00       20.141      262.748      -28.452       77.175      118.989       55.106     5955.976    14158.275     3036.672        4.670        1.158      263.519       53.701        0.042      337.743        9.919      851.455
10/09/2013  13:24:00       94.624      233.000      -12.632      120.062      186.743       92.122    14414.977    34873.047     8486.449        6.058        2.889      251.481      103.276        0.169      337.813       10.040      851.453
10/09/2013  13:25:00       86.053      200.867      -16.482       90.715      140.472       74.769     8229.247    19732.351     5590.444        4.078        1.678      218.524       75.625        0.120      337.726        9.894      851.438
10/09/2013  13:26:00      104.268      233.539      -17.388       95.205      160.367       85.771     9063.988    25717.700     7356.629        5.392        2.107      255.758       82.837        0.105      337.713        9.870      851.427
10/09/2013  13:27:00      138.645      194.178        1.875      132.002      116.822       78.592    17424.415    13647.289     6176.771        4.708        1.862      238.595       65.540        0.075      337.712        9.868      851.430
10/09/2013  13:28:00      235.501      175.957       27.704      150.588      101.316       93.794    22676.691    10264.888     8797.245        6.446        2.087      293.976       71.065        0.058      337.619        9.711      851.401
10/09/2013  13:29:00      152.622      216.469       -2.017      137.974      102.943       80.077    19036.689    10597.267     6412.402        5.309        1.802      264.863       69.659        0.069      337.578        9.643      851.409
10/09/2013  13:30:00       50.696      134.551        0.809       72.836      122.773       61.574     5305.022    15073.146     3791.348        2.242        1.208      143.785       65.244        0.206      337.721        9.885      851.395
10/09/2013  13:31:00       70.250      113.268       -3.248       69.408       79.369       40.789     4817.450     6299.373     1663.769        1.528        0.639      133.284       42.789        0.103      337.749        9.932      851.389
10/09/2013  13:32:00       98.909      113.959       23.587      118.728       66.095       49.119    14096.285     4368.549     2412.667        2.210        1.044      150.896       30.098        0.040      337.838       10.082      851.392
10/09/2013  13:33:00       57.815      198.933      -22.745       68.337      124.570       62.987     4669.919    15517.571     3967.317        3.379        1.208      207.164       71.562        0.119      337.877       10.146      851.407
10/09/2013  13:34:00      -73.229      386.825      -46.253       86.091      120.372       52.643     7411.646    14489.403     2771.267        9.090        1.234      393.695       59.389        0.023      337.801       10.017      851.406
10/09/2013  13:35:00      248.907      164.046       18.378      118.603      104.891       74.512    14066.608    11002.164     5552.058        5.991        1.531      298.103       52.700        0.031      337.959       10.283      851.400
10/09/2013  13:36:00      176.162      222.199      -22.756      144.406      151.261       86.216    20853.191    22879.758     7433.282        6.603        2.558      283.558       82.407        0.084      337.885       10.159      851.396
10/09/2013  13:37:00      120.081      202.870        7.166      122.892      138.816       84.890    15102.534    19269.929     7206.233        4.859        2.079      235.746       83.488        0.125      337.904       10.189      851.403
10/09/2013  13:38:00      257.454      210.208       31.832      154.969      102.614       95.171    24015.480    10529.727     9057.435        7.753        2.180      332.370       60.925        0.034      337.815       10.039      851.407
10/09/2013  13:39:00      103.212      164.153      -14.208      115.908      121.084       81.578    13434.605    14661.331     6654.984        3.627        1.738      193.905       81.250        0.176      337.895       10.175      851.425
10/09/2013  13:40:00       62.152      178.903        3.618       94.354      103.876       56.655     8902.658    10790.154     3209.806        2.939        1.145      189.391       56.873        0.090      337.936       10.245      851.435
10/09/2013  13:41:00       56.314       98.021        5.407       64.323       67.607       60.849     4137.415     4570.720     3702.606        1.261        0.621      113.046       49.386        0.191      337.998       10.350      851.411
10/09/2013  13:42:00       63.483       58.216       22.730       85.225       54.810       39.942     7263.314     3004.150     1595.391        0.990        0.593       86.135       20.778        0.058      338.044       10.428      851.406
10/09/2013  13:43:00      162.459      138.907       15.767      105.554       71.421       50.338    11141.725     5100.911     2533.868        3.235        0.939      213.748       31.700        0.022      338.062       10.455      851.408
10/09/2013  13:44:00      199.807      157.023       27.833      155.501       96.277       81.315    24180.555     9269.336     6612.102        5.270        2.003      254.124       56.049        0.049      337.972       10.304      851.414
10/09/2013  13:45:00      144.944      203.968        4.245      154.205      149.145       98.153    23779.126    22244.374     9634.026        5.913        2.783      250.223       86.441        0.119      337.902       10.188      851.407
10/09/2013  13:46:00      154.141      264.522       -0.529      179.498      166.356      102.708    32219.518    27674.359    10548.964        8.207        3.522      306.155       91.241        0.089      337.772        9.967      851.435
10/09/2013  13:47:00       82.387      318.805      -26.130      101.447      202.748      100.824    10291.421    41106.864    10165.455        8.532        3.078      329.278      103.462        0.099      337.836       10.077      851.431
10/09/2013  13:48:00       86.475      436.509      -47.478      124.580      199.739      106.310    15520.281    39895.611    11301.757       13.348        3.336      444.992      107.773        0.059      337.732        9.902      851.450
10/09/2013  13:49:00       42.016      170.659       22.738      111.688      102.938       94.273    12474.283    10596.331     8887.412        3.168        1.598      175.755       77.574        0.195      337.872       10.138      851.446
10/09/2013  13:50:00       19.134      319.608      -32.223       87.751      155.195       69.814     7700.224    24085.591     4874.017        7.010        1.833      320.181       80.492        0.063      337.785        9.990      851.431
10/09/2013  13:51:00      160.326      153.093       33.811      120.820      108.411       94.015    14597.470    11753.048     8838.840        4.273        1.759      221.680       58.655        0.070      337.868       10.130      851.407
10/09/2013  13:52:00       82.886      130.579       21.086      111.200      132.969       70.787    12365.483    17680.718     5010.865        2.970        1.753      154.664       55.754        0.130      338.065       10.461      851.420
10/09/2013  13:53:00      182.065      214.429       -4.134      123.499      175.565      136.768    15252.088    30823.244    18705.486        7.195        3.239      281.296      104.966        0.139      337.774        9.971      851.426
10/09/2013  13:54:00       74.928      147.891       -8.856      109.270      105.529       68.672    11939.975    11136.298     4715.865        2.767        1.390      165.789       61.602        0.138      337.981       10.318      851.437
10/09/2013  13:55:00      242.632      180.684       16.701      121.475       99.369       86.090    14756.221     9874.230     7411.511        6.191        1.602      302.518       65.660        0.047      337.844       10.090      851.427
10/09/2013  13:56:00       83.783      308.563      -27.097      114.070      151.574       76.763    13011.855    22974.539     5892.577        7.241        2.094      319.736       71.876        0.051      337.810       10.032      851.421
10/09/2013  13:57:00      100.359      249.333        6.636      124.739      130.954      100.939    15559.890    17148.971    10188.615        5.758        2.145      268.772       93.532        0.121      337.820       10.049      851.428
10/09/2013  13:58:00       84.690      161.589       -8.112       79.765      118.876       71.553     6362.460    14131.582     5119.867        2.948        1.281      182.438       59.593        0.107      337.887       10.164      851.417
10/09/2013  13:59:00      133.866      151.620       -2.918      119.713      118.002       67.694    14331.111    13924.555     4582.462        3.687        1.642      202.259       66.601        0.108      337.945       10.260      851.403
10/09/2013  14:00:00      121.867      180.842      -14.128      101.837      113.783       75.783    10370.714    12946.604     5743.116        3.840        1.453      218.072       68.963        0.100      337.995       10.342      851.399
10/09/2013  14:01:00      103.522      289.599      -38.643      140.687      170.993      104.346    19792.969    29238.667    10888.056        7.799        2.996      307.545       97.197        0.100      337.833       10.073      851.403
10/09/2013  14:02:00      172.064      223.473        8.217      153.297      101.919       86.549    23499.955    10387.559     7490.720        6.049        2.069      282.039       72.014        0.065      337.867       10.126      851.397
10/09/2013  14:03:00       62.356      171.298       -9.818       83.164       95.026       77.918     6916.312     9029.943     6071.263        2.767        1.101      182.295       69.317        0.145      338.048       10.433      851.406
10/09/2013  14:04:00       60.619      181.032       -2.608      106.719      144.675       87.253    11388.932    20930.943     7613.063        3.819        1.997      190.912       84.135        0.194      338.135       10.579      851.403
10/09/2013  14:05:00       60.957      170.632       -9.987       97.018      148.387       59.270     9412.418    22018.803     3512.962        3.393        1.747      181.193       70.375        0.151      338.194       10.679      851.408
10/09/2013  14:06:00       74.146      319.136      -26.440      101.380      146.584       97.187    10277.943    21486.984     9445.322        7.462        2.061      327.636       84.010        0.066      337.970       10.302      851.417
10/09/2013  14:07:00       27.155      253.189      -47.484       83.442       82.196       56.251     6962.523     6756.133     3164.160        4.199        0.844      254.641       51.401        0.041      338.019       10.383      851.395
10/09/2013  14:08:00       43.897      435.542      -50.626       92.936      174.343       87.663     8637.132    30395.639     7684.869       12.044        2.336      437.749       89.743        0.042      337.965       10.292      851.383
10/09/2013  14:09:00       71.422      343.127      -33.096       95.410      173.421       86.051     9103.115    30074.786     7404.778        8.525        2.329      350.481       88.321        0.064      337.968       10.298      851.392
10/09/2013  14:10:00       34.183      216.547       -2.372      100.297      160.361       76.543    10059.479    25715.567     5858.798        4.484        2.082      219.228       77.337        0.124      338.023       10.389      851.403
10/09/2013  14:11:00      123.528      211.198       17.166      131.365      135.413      108.912    17256.692    18336.653    11861.757        5.380        2.373      244.670      100.770        0.170      338.006       10.361      851.417
10/09/2013  14:12:00        0.766      327.149      -16.331       97.567      159.920       79.601     9519.326    25574.406     6336.301        7.435        2.072      327.150       98.414        0.090      337.924       10.223      851.431
10/09/2013  14:13:00       53.851      224.241        0.924       94.691      152.458       87.312     8966.322    23243.501     7623.375        4.650        1.992      230.617       91.534        0.158      337.963       10.290      851.413
10/09/2013  14:14:00       43.359      238.823      -11.260       85.588      134.681       82.093     7325.288    18139.018     6739.256        4.562        1.610      242.727       78.173        0.104      337.921       10.217      851.416
10/09/2013  14:15:00       96.058      216.463        1.073       93.393      119.078       79.933     8722.280    14179.467     6389.215        4.268        1.465      236.820       72.518        0.094      337.954       10.273      851.411
10/09/2013  14:16:00       39.522      178.221       -3.704       85.232      108.443       56.863     7264.463    11759.897     3233.387        2.779        1.113      182.551       53.569        0.086      338.122       10.558      851.407
10/09/2013  14:17:00      -30.265      274.333      -34.147       77.091       85.419       44.532     5943.030     7296.375     1983.123        4.628        0.761      275.997       32.181        0.014      338.105       10.527      851.407
10/09/2013  14:18:00       49.148      145.096        9.988       90.318      126.147       72.712     8157.325    15912.967     5286.999        2.646        1.468      153.194       67.631        0.195      338.181       10.657      851.418
10/09/2013  14:19:00       36.901      403.807      -63.399       89.090      190.366       68.208     7937.012    36239.268     4652.291       10.863        2.441      405.490       79.026        0.038      337.831       10.069      851.444
10/09/2013  14:20:00       35.001      312.415      -34.791      102.004      140.890       89.425    10404.717    19850.044     7996.868        6.914        1.913      314.370       90.918        0.084      338.004       10.356      851.451
10/09/2013  14:21:00      203.911      186.812       34.908      164.841       98.170       83.264    27172.694     9637.421     6932.882        6.071        2.187      276.547       61.787        0.050      337.991       10.336      851.475
10/09/2013  14:22:00      126.282      107.985       45.278       95.027       87.622       71.920     9030.121     7677.590     5172.440        2.576        1.094      166.157       59.394        0.128      338.054       10.442      851.460
10/09/2013  14:23:00      229.038      173.914        8.923      107.278       88.664       82.297    11508.539     7861.317     6772.792        5.446        1.307      287.584       64.360        0.050      337.929       10.232      851.452
10/09/2013  14:24:00      172.422      117.729       27.291      120.969       78.858       62.247    14633.590     6218.657     3874.700        3.453        1.236      208.781       39.326        0.035      338.065       10.461      851.444
10/09/2013  14:25:00       66.884      158.244       -7.010      105.935      112.316       48.677    11222.281    12614.830     2369.486        2.788        1.310      171.799       44.886        0.068      338.171       10.637      851.465
10/09/2013  14:26:00      109.034      130.867       24.103      150.310       98.531       69.706    22593.120     9708.305     4858.868        3.337        1.858      170.337       51.129        0.090      338.230       10.739      851.466
10/09/2013  14:27:00      107.972      210.136      -15.013       96.205      104.972       56.797     9255.406    11019.157     3225.955        3.977        1.175      236.252       40.325        0.029      338.062       10.453      851.480
10/09/2013  14:28:00      106.923      120.092       22.623       99.130      104.368       74.961     9826.758    10892.620     5619.077        2.635        1.317      160.794       52.139        0.105      338.136       10.581      851.479
10/09/2013  14:29:00      160.299      205.709       -0.513      142.488      128.514       80.503    20302.701    16515.726     6480.704        5.565        2.165      260.791       63.904        0.060      338.057       10.448      851.483
10/09/2013  14:30:00      181.430      169.783       27.914      151.329      117.470       98.122    22900.345    13799.228     9627.849        5.442        2.316      248.482       74.115        0.089      338.035       10.409      851.491
10/09/2013  14:31:00      184.767      138.495       27.187      124.549      100.777       91.669    15512.531    10156.101     8403.259        4.406        1.704      230.911       57.427        0.062      338.009       10.366      851.484
10/09/2013  14:32:00      338.670      221.509       23.303      142.919      113.000       85.765    20425.951    12769.107     7355.653       10.242        2.028      404.677       65.579        0.026      337.949       10.265      851.475
10/09/2013  14:33:00      251.089      175.889       26.841      127.726       85.331       78.292    16313.813     7281.386     6129.588        6.221        1.486      306.566       59.942        0.038      338.047       10.431      851.503
10/09/2013  14:34:00      135.859      200.582       -2.574      121.220      131.961       91.411    14694.299    17413.739     8356.013        4.957        2.023      242.262       88.571        0.134      338.018       10.382      851.521
10/09/2013  14:35:00      125.467      192.531        4.375      118.554      105.836       72.949    14055.098    11201.237     5321.568        4.170        1.529      229.805       56.648        0.061      337.972       10.304      851.528
10/09/2013  14:36:00      139.646      193.552        0.176      152.286      109.290       75.796    23190.961    11944.207     5744.962        4.891        2.044      238.670       67.397        0.080      338.047       10.432      851.527
10/09/2013  14:37:00       92.506      275.653      -20.463      119.767      173.941       74.980    14344.023    30255.398     5622.052        6.758        2.511      290.761       90.611        0.097      338.046       10.429      851.548
10/09/2013  14:38:00       39.136      323.981      -32.502       77.161      148.484       71.302     5953.786    22047.394     5083.997        7.031        1.654      326.336       78.579        0.058      337.978       10.313      851.565
10/09/2013  14:39:00       44.744      204.325       -3.249      109.259      138.430       89.742    11937.468    19162.885     8053.558        4.145        1.958      209.167       93.064        0.198      338.004       10.359      851.555
10/09/2013  14:40:00       -1.175      244.922      -24.876       98.257      170.241       75.982     9654.358    28982.124     5773.220        5.250        2.220      244.925       96.444        0.155      338.123       10.558      851.568
10/09/2013  14:41:00       49.325      308.402      -16.962       96.742      168.389       82.473     9359.018    28354.963     6801.727        7.117        2.226      312.322       96.129        0.095      338.019       10.383      851.581
10/09/2013  14:42:00       69.394      255.312       -0.633      106.778      181.361      105.590    11401.495    32891.898    11149.320        6.271        2.772      264.574      110.306        0.174      337.986       10.327      851.588
10/09/2013  14:43:00       72.219      340.734      -29.136      111.924      194.302      103.105    12527.015    37753.373    10630.734        9.153        3.046      348.304      117.308        0.113      337.843       10.087      851.602
10/09/2013  14:44:00       18.499      235.230      -22.099       86.440      163.320       65.265     7471.868    26673.428     4259.475        4.728        1.920      235.956       65.140        0.076      338.069       10.469      851.596
10/09/2013  14:45:00      146.904      248.805        6.222      155.661      163.916       98.570    24230.344    26868.470     9716.057        7.216        3.041      288.937       92.961        0.104      338.041       10.421      851.604
10/09/2013  14:46:00      111.170      124.530       24.518      118.057       97.881       75.999    13937.555     9580.766     5775.850        2.888        1.465      166.933       59.592        0.127      338.115       10.547      851.609
10/09/2013  14:47:00       93.160      259.041      -29.283      105.823      139.643       77.836    11198.554    19500.108     6058.460        5.669        1.838      275.283       76.583        0.077      337.989       10.334      851.627
10/09/2013  14:48:00       14.128      235.787        9.058      123.767      188.040      100.488    15318.226    35358.862    10097.761        5.831        3.039      236.210      109.793        0.216      338.112       10.541      851.627
10/09/2013  14:49:00       -6.571      487.262      -59.803      123.929      161.667       81.896    15358.342    26136.108     6706.969       14.461        2.410      487.307       87.534        0.032      337.885       10.158      851.636
10/09/2013  14:50:00       56.859      399.964      -41.778      148.318      237.491       98.895    21998.162    56402.088     9780.186       12.655        4.409      403.986      119.990        0.088      337.923       10.221      851.646
10/09/2013  14:51:00       -9.629      555.942      -67.907      132.355      170.920       84.981    17517.918    29213.519     7221.814       18.385        2.698      556.025       80.041        0.021      337.904       10.190      851.657
10/09/2013  14:52:00       78.533      307.992      -23.440      134.576      180.265      107.164    18110.617    32495.451    11484.051        8.182        3.105      317.847      107.175        0.114      337.985       10.325      851.682
10/09/2013  14:53:00      108.135      308.156      -16.103      139.555      185.063      115.678    19475.521    34248.488    13381.387        8.700        3.355      326.579      110.411        0.114      337.948       10.265      851.693
10/09/2013  14:54:00       20.855      259.970       -7.489      123.786      159.670       94.479    15322.963    25494.546     8926.188        5.890        2.487      260.805      100.518        0.149      338.034       10.408      851.713
10/09/2013  14:55:00      -18.718      275.937      -13.355       80.091      145.994       64.882     6414.549    21314.287     4209.721        5.430        1.597      276.571       75.156        0.074      338.131       10.571      851.741
10/09/2013  14:56:00       43.878      196.704        4.951       79.388      132.513       73.603     6302.416    17559.778     5417.389        3.496        1.464      201.539       78.230        0.151      338.161       10.623      851.756
10/09/2013  14:57:00       14.441      369.766      -39.115       81.226      149.460       68.911     6597.651    22338.402     4748.771        8.607        1.684      370.048       80.288        0.047      337.912       10.203      851.758
10/09/2013  14:58:00     -106.047      478.000      -55.906      100.273      129.855       58.700    10054.644    16862.335     3445.733       13.660        1.518      489.622       59.874        0.015      337.874       10.139      851.783
10/09/2013  14:59:00     -126.711      522.853      -63.780      105.743      155.018       60.864    11181.574    24030.622     3704.378       16.620        1.946      537.987       70.041        0.017      337.813       10.038      851.805
10/09/2013  15:00:00      -38.033      392.934      -36.901       95.135      114.930       57.070     9050.599    13208.979     3256.995        9.136        1.276      394.770       56.933        0.021      337.855       10.109      851.837
10/09/2013  15:01:00       22.873      304.453       -6.155      111.474      156.891       90.698    12426.382    24614.818     8226.095        6.925        2.263      305.311       96.423        0.100      337.930       10.233      851.844
10/09/2013  15:02:00       42.392      142.677       23.042       97.123      121.349       85.265     9432.909    14725.597     7270.074        2.705        1.571      148.841       74.525        0.251      337.961       10.288      851.868
10/09/2013  15:03:00       35.372      369.754      -38.045       96.727      165.551       81.947     9356.101    27407.054     6715.292        9.144        2.174      371.442       81.349        0.048      337.888       10.162      851.885
10/09/2013  15:04:00      -12.114      328.575      -35.678      105.113      140.458       74.767    11048.808    19728.441     5590.177        7.287        1.818      328.798       74.686        0.052      337.918       10.213      851.888
10/09/2013  15:05:00      -54.552      264.895      -13.730       87.224       97.695       61.830     7608.005     9544.396     3822.987        4.715        1.049      270.454       60.799        0.051      337.922       10.219      851.910
10/09/2013  15:06:00       68.175      136.148      -16.696       85.393       85.146       45.026     7291.953     7249.864     2027.299        2.001        0.828      152.264       35.148        0.053      337.995       10.345      851.907
10/09/2013  15:07:00      107.979      178.012       -3.832       96.957       98.900       75.014     9400.610     9781.145     5627.051        3.408        1.240      208.201       68.954        0.110      337.905       10.193      851.913
10/09/2013  15:08:00       51.764      243.418       -9.705       65.229      151.052       64.466     4254.835    22816.696     4155.891        4.662        1.561      248.861       78.222        0.099      337.891       10.167      851.927
10/09/2013  15:09:00       33.929      154.849       -1.515       93.729      129.420       61.682     8785.153    16749.626     3804.648        2.723        1.467      158.522       69.866        0.194      337.981       10.320      851.949
10/09/2013  15:10:00       64.592      186.889        9.857       91.593      144.650       87.939     8389.305    20923.631     7733.248        3.811        1.852      197.737       89.251        0.204      337.931       10.237      851.964
10/09/2013  15:11:00       51.697      351.998      -52.922       98.978      136.439       61.569     9796.558    18615.587     3790.718        8.078        1.610      355.774       75.094        0.045      337.818       10.045      851.968
10/09/2013  15:12:00      115.608       86.468       26.095      104.658       73.642       67.120    10953.261     5423.217     4505.033        2.120        1.044      144.367       44.523        0.095      337.973       10.307      851.950
10/09/2013  15:13:00      117.511       97.050       17.417       98.091       81.878       62.109     9621.874     6704.043     3857.520        2.185        1.009      152.406       43.841        0.083      337.834       10.073      851.967
10/09/2013  15:14:00       68.933      123.852       -3.737       79.385       91.198       59.061     6301.986     8317.140     3488.216        1.910        0.905      141.743       57.148        0.163      337.937       10.248      851.984
10/09/2013  15:15:00       29.789      241.787      -28.466       66.042      138.212       50.561     4361.608    19102.440     2556.459        4.308        1.301      243.615       62.327        0.065      337.907       10.196      851.963
10/09/2013  15:16:00       14.072      274.847      -27.999       75.878      110.348       54.668     5757.494    12176.777     2988.572        4.872        1.046      275.207       56.816        0.043      337.948       10.264      851.954
10/09/2013  15:17:00      -85.479      427.705      -51.792       99.330      122.317       54.965     9866.537    14961.552     3021.192       11.038        1.392      436.163       48.379        0.012      337.878       10.146      851.982
10/09/2013  15:18:00      -93.410      479.852      -55.238       64.779      128.400       49.905     4196.331    16486.642     2490.519       13.260        1.159      488.859       60.731        0.015      337.762        9.952      851.999
10/09/2013  15:19:00      -67.093      349.211      -33.995       76.017      118.160       58.475     5778.578    13961.700     3419.329        7.538        1.158      355.598       63.996        0.032      337.864       10.123      851.992
10/09/2013  15:20:00      -53.896      434.081      -49.903       85.614      132.308       51.615     7329.700    17505.455     2664.134       11.065        1.375      437.414       56.020        0.016      337.843       10.087      851.985
10/09/2013  15:21:00      -13.477      273.722      -16.846       72.489       93.702       62.825     5254.633     8780.131     3946.969        4.668        0.899      274.054       58.797        0.046      337.991       10.335      851.988
10/09/2013  15:22:00       79.475       97.548       18.034      110.074       60.954       57.198    12116.233     3715.439     3271.573        1.763        0.955      125.825       43.524        0.120      338.061       10.456      851.993
10/09/2013  15:23:00      142.641       96.136        6.704      105.443       86.783       57.647    11118.129     7531.364     3323.222        2.580        1.099      172.013       48.037        0.078      338.009       10.368      851.974
10/09/2013  15:24:00       52.545      116.576       13.696       77.825       95.428       68.077     6056.730     9106.511     4634.529        1.816        0.990      127.871       59.256        0.215      337.971       10.304      851.983
10/09/2013  15:25:00       92.749       99.661       16.479       92.135       70.606       44.603     8488.802     4985.170     1989.436        1.713        0.773      136.142       32.051        0.055      337.956       10.280      851.974
10/09/2013  15:26:00      118.987      136.571        0.624       89.085       92.648       59.426     7936.195     8583.563     3531.453        2.643        1.003      181.134       55.770        0.095      337.936       10.244      851.950
10/09/2013  15:27:00      108.196      213.395       -8.812      111.887      131.982       72.159    12518.717    17419.143     5206.957        4.623        1.757      239.257       72.519        0.092      337.930       10.232      851.971
10/09/2013  15:28:00       79.816      162.768       10.101       85.191      100.110       77.688     7257.511    10022.032     6035.349        2.814        1.166      181.285       71.511        0.156      337.942       10.254      851.954
10/09/2013  15:29:00      141.993      136.399        3.327      109.468       91.368       65.112    11983.184     8348.027     4239.523        3.167        1.229      196.893       55.174        0.079      337.845       10.091      851.923
10/09/2013  15:30:00       75.957       94.444       13.334       82.271       96.086       68.577     6768.578     9232.466     4702.743        1.778        1.035      121.199       64.385        0.282      337.897       10.180      851.909
10/09/2013  15:31:00       65.530       91.998       11.560       89.404       68.089       48.896     7993.064     4636.098     2390.832        1.395        0.751      112.951       44.688        0.157      337.980       10.320      851.900
10/09/2013  15:32:00       12.069      116.253       -4.231       59.983      105.235       45.314     3597.903    11074.460     2053.379        1.520        0.836      116.878       56.391        0.233      337.999       10.351      851.904
10/09/2013  15:33:00      -94.868      212.162      -16.326       63.689       96.849       43.171     4056.235     9379.810     1863.778        3.479        0.765      232.406       40.972        0.031      338.012       10.373      851.926
10/09/2013  15:34:00      -66.299      201.295      -26.127       65.788       89.313       33.225     4328.111     7976.793     1103.873        2.950        0.670      211.932       39.657        0.035      338.061       10.453      851.941
10/09/2013  15:35:00      -45.938      233.446      -15.149       98.918      115.335       58.455     9784.673    13302.103     3417.033        4.166        1.325      237.923       55.247        0.054      338.045       10.427      851.950
10/09/2013  15:36:00     -121.816      222.158      -32.738       77.065      114.827       57.946     5939.049    13185.267     3357.740        4.387        1.124      253.364       51.873        0.042      338.035       10.410      851.936
10/09/2013  15:37:00     -124.521      175.447      -31.085       81.555       67.118       48.077     6651.158     4504.805     2311.350        3.036        0.673      215.145       55.300        0.066      337.946       10.261      851.929
10/09/2013  15:38:00      -12.482      270.960      -25.980       76.015      125.201       53.651     5778.257    15675.378     2878.442        4.929        1.217      271.247       59.900        0.049      338.011       10.370      851.909
10/09/2013  15:39:00      -11.266      268.485      -33.865       69.108      100.475       42.349     4775.959    10095.287     1793.406        4.501        0.833      268.721       50.445        0.035      337.960       10.284      851.893
10/09/2013  15:40:00      -16.334      275.787      -38.324       51.938       98.920       38.431     2697.563     9785.185     1476.905        4.587        0.698      276.271       42.541        0.024      338.071       10.469      851.912
10/09/2013  15:41:00      -25.273      379.121      -53.705       48.446       73.020       34.366     2346.995     5331.889     1181.010        7.806        0.443      379.962       30.021        0.006      337.929       10.232      851.919
10/09/2013  15:42:00       29.399      211.408      -25.610       42.474      133.903       57.638     1804.040    17930.113     3322.107        3.463        1.153      213.442       74.639        0.122      338.102       10.521      851.919
10/09/2013  15:43:00       22.433      176.723      -26.261       57.070       74.679       39.900     3257.025     5577.024     1592.044        2.142        0.521      178.141       40.859        0.053      338.196       10.680      851.921
10/09/2013  15:44:00       74.388      109.870       -6.374       72.080       61.360       49.679     5195.559     3765.085     2467.981        1.453        0.571      132.684       39.188        0.087      338.168       10.634      851.936
10/09/2013  15:45:00       70.969      117.598        9.260       69.396       84.084       65.662     4815.804     7070.185     4311.533        1.757        0.810      137.353       52.647        0.147      338.111       10.539      851.945
10/09/2013  15:46:00       67.952      122.701       -9.788       78.222       77.935       60.305     6118.675     6073.939     3636.645        1.780        0.791      140.260       47.931        0.117      338.011       10.372      851.939
10/09/2013  15:47:00        3.766      165.513      -19.997       65.246       65.811       41.096     4257.084     4331.102     1688.890        1.904        0.514      165.556       37.662        0.052      338.115       10.546      851.942
10/09/2013  15:48:00      -39.444      311.024      -36.578       67.237       67.013       40.812     4520.865     4490.696     1665.604        5.515        0.534      313.515       28.152        0.008      338.126       10.562      851.959
10/09/2013  15:49:00      -62.645      296.254      -37.676       76.852       78.852       38.919     5906.298     6217.691     1514.659        5.337        0.682      302.805       42.336        0.020      338.018       10.381      851.964
10/09/2013  15:50:00       63.803      299.259      -36.178       86.785       94.234       55.287     7531.590     8880.094     3056.627        5.720        0.973      305.985       51.565        0.028      338.086       10.495      851.959
10/09/2013  15:51:00      112.243      124.388        8.714       69.808       83.479       64.939     4873.190     6968.667     4217.027        2.210        0.803      167.544       55.625        0.110      338.071       10.470      851.956
10/09/2013  15:52:00      -26.377      117.229      -15.666      117.466       73.651       48.545    13798.353     5424.466     2356.652        1.813        1.079      120.160       56.491        0.221      338.089       10.503      851.944
10/09/2013  15:53:00      -25.637      185.685      -16.454       50.174       69.275       35.507     2517.383     4798.996     1260.748        2.199        0.429      187.446       33.707        0.032      338.176       10.648      851.956
10/09/2013  15:54:00      -60.816      132.946       -3.391       76.031       64.997       40.916     5780.724     4224.575     1674.116        1.653        0.584      146.196       42.796        0.086      338.266       10.801      851.952
10/09/2013  15:55:00      -71.830      304.206      -31.996       57.863       80.887       40.028     3348.134     6542.765     1602.222        5.511        0.575      312.571       37.357        0.014      338.101       10.519      851.956
10/09/2013  15:56:00      -86.205      145.130      -15.315       60.968       67.757       40.834     3717.082     4591.033     1667.415        1.935        0.499      168.802       30.286        0.032      338.171       10.640      851.948
10/09/2013  15:57:00      -56.223      113.860       -1.073       44.086       56.119       35.941     1943.591     3149.384     1291.787        1.125        0.319      126.984       31.158        0.060      338.322       10.895      851.957
10/09/2013  15:58:00      -41.287      110.212       -5.479       45.889       65.020       36.487     2105.785     4227.659     1331.332        1.077        0.383      117.692       32.517        0.076      338.175       10.648      851.951
10/09/2013  15:59:00      -29.669      201.128      -24.443       49.390       58.945       34.154     2439.415     3474.473     1166.497        2.450        0.354      203.304       37.096        0.033      337.992       10.337      851.951
10/09/2013  16:00:00      -50.237      156.177      -14.444       36.322       62.736       27.330     1319.285     3935.820      746.951        1.656        0.300      164.058       32.810        0.040      338.079       10.485      851.938
10/09/2013  16:01:00      -58.333      130.707      -14.264       67.835       47.198       30.513     4601.649     2227.667      931.063        1.422        0.388      143.133       32.481        0.051      338.145       10.596      851.931
10/09/2013  16:02:00     -113.740      146.059      -27.134       66.069       57.208       34.303     4365.088     3272.705     1176.708        2.191        0.441      185.122       33.817        0.033      338.137       10.582      851.926
10/09/2013  16:03:00      -27.716      255.803      -34.385       58.896      133.014       40.988     3468.723    17692.712     1679.982        4.511        1.142      257.300       61.733        0.058      338.242       10.758      851.922
10/09/2013  16:04:00       23.992      188.925        4.849       73.806      117.409       68.395     5447.370    13784.788     4677.859        3.010        1.196      190.442       72.596        0.145      338.329       10.905      851.898
10/09/2013  16:05:00       45.965      154.907        0.126      138.677       85.639       63.907    19231.302     7334.101     4084.046        2.837        1.532      161.582       54.155        0.112      338.328       10.901      851.891
10/09/2013  16:06:00       19.658       67.704      -12.475       77.533       75.600       34.985     6011.345     5715.385     1223.948        0.904        0.648       70.500       22.564        0.102      338.415       11.050      851.908
10/09/2013  16:07:00       37.084      112.929      -13.530       46.802       79.739       35.096     2190.381     6358.334     1231.764        1.204        0.489      118.862       41.435        0.122      338.469       11.141      851.905
10/09/2013  16:08:00       67.208      111.687       -4.860       60.772       65.794       35.040     3693.262     4328.845     1227.797        1.313        0.462      130.350       34.091        0.068      338.415       11.050      851.914
10/09/2013  16:09:00       92.646      213.975      -18.240      118.231      114.759       63.361    13978.467    13169.595     4014.593        4.293        1.558      233.171       58.030        0.062      338.302       10.857      851.917
10/09/2013  16:10:00      130.958      174.937        7.191      120.826      116.455       99.312    14598.917    13561.859     9862.782        4.291        1.901      218.525       78.290        0.128      338.264       10.796      851.923
10/09/2013  16:11:00       72.486      152.813       10.260      105.580      112.451       78.010    11147.118    12645.212     6085.625        2.929        1.494      169.134       67.217        0.158      338.278       10.819      851.909
10/09/2013  16:12:00      130.356      169.844        0.519       91.232      105.405       72.554     8323.271    11110.319     5264.106        3.526        1.235      214.102       67.222        0.099      338.263       10.793      851.897
10/09/2013  16:13:00       64.504      187.798      -11.531       70.942      106.963       68.538     5032.705    11441.121     4697.394        3.036        1.059      198.567       66.336        0.112      338.248       10.768      851.892
10/09/2013  16:14:00      101.908      128.696      -15.502       74.777      104.393       47.963     5591.533    10897.835     2300.486        2.299        0.939      164.159       45.310        0.076      338.271       10.808      851.872
10/09/2013  16:15:00       91.396      105.375       -4.437       59.901      101.728       39.752     3588.130    10348.489     1580.255        1.749        0.776      139.489       40.110        0.083      338.374       10.982      851.874
10/09/2013  16:16:00       43.055      141.431       10.662       88.955      129.476       58.396     7912.915    16764.117     3410.081        2.502        1.404      147.839       69.524        0.221      338.389       11.006      851.882
10/09/2013  16:17:00      -10.793      247.878      -35.234       57.589       74.967       40.957     3316.455     5619.996     1677.453        3.671        0.531      248.113       33.872        0.019      338.360       10.956      851.898
10/09/2013  16:18:00      -25.778      232.036      -24.826       70.579      116.558       52.600     4981.338    13585.777     2766.801        3.822        1.067      233.463       64.018        0.075      338.456       11.118      851.891
10/09/2013  16:19:00       39.102      259.744      -14.689       85.771      187.441       74.665     7356.590    35134.023     5574.876        5.863        2.403      262.671       95.185        0.131      338.418       11.052      851.869
10/09/2013  16:20:00      -13.084      399.972      -41.062       79.536      133.163       69.958     6325.986    17732.360     4894.079        9.539        1.448      400.186       71.588        0.032      338.330       10.904      851.861
10/09/2013  16:21:00       36.727      246.660      -17.552      101.649      150.730       74.140    10332.537    22719.615     5496.704        5.052        1.927      249.379       83.010        0.111      338.360       10.957      851.855
10/09/2013  16:22:00        3.990      371.917      -50.010       87.764      176.035       50.203     7702.536    30988.297     2520.341        9.102        2.061      371.938       65.462        0.031      338.257       10.782      851.884
10/09/2013  16:23:00       -3.488      153.349       -3.070       85.083      124.473       59.252     7239.122    15493.494     3510.843        2.489        1.312      153.389       64.921        0.179      338.429       11.073      851.892
10/09/2013  16:24:00      -10.713      298.963      -17.446      102.928      144.918       80.801    10594.146    21001.245     6528.728        6.395        1.906      299.155       88.614        0.088      338.375       10.981      851.903
10/09/2013  16:25:00       29.675      335.465      -18.447      130.005      144.803       96.329    16901.368    20967.975     9279.366        8.044        2.357      336.775       96.039        0.081      338.296       10.846      851.915
10/09/2013  16:26:00      -23.847      365.181      -43.332       94.131      114.732       67.751     8860.687    13163.347     4590.176        8.120        1.331      365.958       59.099        0.026      338.267       10.800      851.924
10/09/2013  16:27:00      -32.947      281.713      -25.940       77.740      120.969       53.308     6043.493    14633.434     2841.736        5.231        1.176      283.633       60.051        0.045      338.346       10.931      851.918
10/09/2013  16:28:00      -35.284      409.055      -41.602       85.284      135.147       46.326     7273.371    18264.829     2146.101        9.899        1.384      410.574       43.129        0.011      338.295       10.846      851.906
10/09/2013  16:29:00      118.357       79.780       29.823      149.005      100.551       73.430    22202.636    10110.549     5391.916        2.948        1.885      142.735       45.429        0.101      338.366       10.967      851.890
10/09/2013  16:30:00      -47.030      302.073      -31.876       78.442      112.044       53.431     6153.200    12553.940     2854.874        5.801        1.078      305.713       53.135        0.030      338.397       11.018      851.929
10/09/2013  16:31:00       79.216      107.079       11.454       82.839       80.992       56.125     6862.379     6559.663     3149.969        1.722        0.829      133.196       52.690        0.156      338.415       11.050      851.929
10/09/2013  16:32:00      -67.344      240.139      -21.140       86.842      148.556       60.219     7541.495    22068.828     3626.376        4.794        1.662      249.403       69.347        0.077      338.387       11.002      851.930
10/09/2013  16:33:00      -12.562      195.081      -16.636       82.618       78.813       43.421     6825.743     6211.549     1885.349        2.670        0.746      195.485       45.478        0.054      338.430       11.074      851.923
10/09/2013  16:34:00      -24.055      267.506      -31.080       88.852       82.771       50.258     7894.652     6851.030     2525.856        4.518        0.864      268.585       48.346        0.032      338.337       10.916      851.921
10/09/2013  16:35:00       -2.918      336.829      -39.635       57.788      132.083       56.758     3339.412    17445.867     3221.460        6.952        1.200      336.842       64.826        0.037      338.309       10.871      851.924
10/09/2013  16:36:00       18.839      161.673      -13.668      102.029      144.717       55.868    10409.832    20943.059     3121.228        3.057        1.724      162.767       65.581        0.162      338.363       10.963      851.926
10/09/2013  16:37:00       -2.005      156.636      -16.757       81.271       78.318       40.639     6605.042     6133.758     1651.549        1.960        0.720      156.649       34.614        0.049      338.301       10.856      851.908
10/09/2013  16:38:00      -46.460      173.355       -4.446       70.809       92.771       49.493     5013.880     8606.411     2449.563        2.415        0.803      179.473       50.556        0.079      338.392       11.010      851.910
10/09/2013  16:39:00        4.075      170.632       -8.864       50.075       84.840       49.822     2507.466     7197.775     2482.236        2.070        0.609      170.680       51.496        0.091      338.429       11.073      851.912
10/09/2013  16:40:00       16.479      198.375      -13.923       60.958       80.355       47.446     3715.830     6456.891     2251.088        2.612        0.621      199.058       27.855        0.020      338.426       11.066      851.911
10/09/2013  16:41:00       47.396      147.982       -8.785       79.767       87.238       52.637     6362.718     7610.433     2770.638        2.048        0.837      155.387       44.751        0.083      338.453       11.114      851.915
10/09/2013  16:42:00       29.262      238.100      -27.639      100.693      129.459       56.330    10139.034    16759.517     3173.053        4.419        1.504      239.892       57.912        0.058      338.445       11.097      851.928
10/09/2013  16:43:00       15.690      289.594      -29.737       75.508      119.947       56.547     5701.387    14387.276     3197.545        5.414        1.164      290.019       66.624        0.053      338.363       10.961      851.951
10/09/2013  16:44:00      -86.386      260.608      -22.237      111.230      137.357       67.839    12372.156    18866.861     4602.072        5.585        1.792      274.553       72.889        0.070      338.438       11.087      851.944
10/09/2013  16:45:00     -176.871      254.538      -40.779       66.784      110.486       55.438     4460.119    12207.261     3073.368        5.873        0.987      309.956       52.358        0.029      338.417       11.051      851.944
10/09/2013  16:46:00     -153.420      301.401      -47.035      111.774      105.182       56.310    12493.395    11063.203     3170.783        7.165        1.336      338.201       52.259        0.024      338.373       10.978      851.947
10/09/2013  16:47:00      -98.393      422.275      -51.841       65.436      158.076       58.622     4281.894    24988.114     3436.519       11.169        1.635      433.586       74.714        0.030      338.345       10.930      851.939
10/09/2013  16:48:00     -112.048      225.128      -42.594      105.155      107.038       58.640    11057.548    11457.042     3438.598        4.550        1.298      251.470       67.451        0.072      338.395       11.016      851.949
10/09/2013  16:49:00      -63.295      247.739      -27.338       93.150      115.641       55.928     8677.014    13372.837     3127.917        4.565        1.259      255.697       56.975        0.050      338.416       11.051      851.943
10/09/2013  16:50:00       18.860      179.746        4.984       64.626      154.622       71.111     4176.573    23908.046     5056.828        3.291        1.657      180.733       79.177        0.192      338.478       11.155      851.954
10/09/2013  16:51:00       72.327      145.909       -1.558       90.887      111.068       66.225     8260.503    12336.183     4385.787        2.575        1.249      162.851       67.695        0.173      338.432       11.076      851.944
10/09/2013  16:52:00      103.845      291.183       -9.468       96.948      153.957       88.405     9398.928    23702.870     7815.433        6.828        2.046      309.146      101.433        0.108      338.387       11.001      851.946
10/09/2013  16:53:00       45.813      152.525      -19.308       64.455       92.461       50.288     4154.445     8548.944     2528.929        2.048        0.762      159.257       55.407        0.121      338.429       11.074      851.941
10/09/2013  16:54:00        7.808      153.885      -13.485       66.106      123.366       54.193     4369.945    15219.211     2936.896        2.322        1.126      154.083       48.854        0.101      338.482       11.162      851.950
10/09/2013  16:55:00       67.157      243.022      -26.404       92.383      119.305       64.501     8534.614    14233.572     4160.420        4.559        1.346      252.130       57.769        0.052      338.412       11.043      851.963
10/09/2013  16:56:00       -0.994      189.539       -3.176       59.236       80.405       49.179     3508.859     6464.956     2418.530        2.416        0.620      189.542       40.604        0.046      338.490       11.175      851.953
10/09/2013  16:57:00       43.768      174.216      -15.557       57.095      131.534       55.403     3259.830    17301.276     3069.545        2.806        1.182      179.630       66.588        0.137      338.490       11.174      851.967
10/09/2013  16:58:00       10.602      270.333      -20.909       87.211      127.703       68.216     7605.792    16307.983     4653.392        5.109        1.428      270.540       70.912        0.069      338.448       11.104      851.949
10/09/2013  16:59:00       77.084      199.769       -7.541      107.896      126.261       68.408    11641.481    15941.916     4679.638        3.908        1.613      214.125       73.730        0.119      338.480       11.158      851.926
10/09/2013  17:00:00       52.976      122.755      -13.553       68.899       60.451       42.803     4747.033     3654.339     1832.105        1.414        0.512      133.698       32.547        0.059      338.506       11.203      851.943
10/09/2013  17:01:00        8.884      307.980      -38.576       95.275      139.563       72.317     9077.308    19477.935     5229.678        6.510        1.689      308.108       76.067        0.061      338.511       11.210      851.972
10/09/2013  17:02:00      -73.376      406.527      -45.339       61.743       85.167       42.196     3812.207     7253.457     1780.465        9.277        0.642      413.096       40.874        0.010      338.411       11.041      851.985
10/09/2013  17:03:00      -59.317      318.183      -31.016       57.353       99.274       43.741     3289.376     9855.343     1913.270        6.039        0.753      323.665       45.709        0.020      338.420       11.055      851.992
10/09/2013  17:04:00      -85.313      275.858      -36.560       92.486       95.971       53.286     8553.735     9210.391     2839.431        5.265        1.030      288.749       45.969        0.025      338.477       11.152      851.982
10/09/2013  17:05:00      -38.404      334.656      -45.918       64.611       78.019       40.450     4174.615     6087.026     1636.175        6.374        0.595      336.852       34.759        0.011      338.438       11.085      851.993
10/09/2013  17:06:00       19.821      239.470      -30.755       67.773       75.027       41.882     4593.148     5629.044     1754.118        3.533        0.599      240.288       39.510        0.027      338.519       11.221      852.006
10/09/2013  17:07:00      -37.802      173.557      -14.977       69.724       73.805       45.768     4861.457     5447.110     2094.692        2.209        0.620      177.626       38.086        0.046      338.540       11.260      852.008
10/09/2013  17:08:00      -44.082      248.421      -30.352       73.749      103.354       44.173     5438.914    10682.077     1951.222        4.132        0.904      252.302       50.143        0.039      338.550       11.275      852.021
10/09/2013  17:09:00      -38.002      381.572      -56.162       94.378      122.130       49.608     8907.181    14915.834     2460.910        8.823        1.314      383.460       57.270        0.022      338.455       11.114      852.014
10/09/2013  17:10:00      -26.429      326.543      -33.515       90.731      111.572       53.116     8232.133    12448.253     2821.305        6.597        1.175      327.611       52.795        0.026      338.452       11.109      852.006
10/09/2013  17:11:00      -65.528      215.963      -16.506       71.411      105.560       51.550     5099.539    11142.953     2657.361        3.505        0.945      225.685       51.993        0.053      338.542       11.261      852.015
10/09/2013  17:12:00      -10.697      385.145      -58.884       77.277       76.471       41.257     5971.771     5847.795     1702.136        8.272        0.676      385.293       30.999        0.006      338.478       11.152      852.021
10/09/2013  17:13:00      -31.050      278.703      -27.571       78.091      111.065       50.457     6098.207    12335.448     2545.893        5.019        1.049      280.427       56.240        0.040      338.487       11.167      852.006
10/09/2013  17:14:00        3.965      262.110      -17.925       78.652      138.945       64.619     6186.097    19305.693     4175.614        4.935        1.483      262.140       77.666        0.088      338.500       11.190      852.003
10/09/2013  17:15:00      -12.223      325.539      -45.762       67.638       85.854       43.441     4574.845     7370.956     1887.103        6.102        0.692      325.768       45.194        0.019      338.512       11.210      852.012
10/09/2013  17:16:00      -69.458      217.792      -26.664       66.844       86.244       39.733     4468.162     7438.023     1578.716        3.322        0.674      228.599       44.042        0.037      338.539       11.255      852.006
10/09/2013  17:17:00       -7.134      186.727      -23.818       54.462       74.733       38.640     2966.057     5584.991     1493.052        2.276        0.502      186.864       39.194        0.044      338.581       11.328      852.004
10/09/2013  17:18:00      -25.689      246.566      -39.389       74.139       78.226       32.780     5496.625     6119.352     1074.500        3.785        0.635      247.901       27.064        0.012      338.581       11.325      852.007
10/09/2013  17:19:00      -44.293      262.386      -28.983       69.507       66.437       36.584     4831.171     4413.875     1338.421        4.111        0.529      266.099       30.359        0.013      338.565       11.298      852.007
10/09/2013  17:20:00      -31.743      264.840      -36.691       64.321       58.506       33.342     4137.180     3422.970     1111.659        4.058        0.434      266.736       22.278        0.007      338.596       11.352      852.002
10/09/2013  17:21:00      -44.983      175.122      -15.457       41.146       91.304       39.249     1692.956     8336.379     1540.484        2.225        0.578      180.807       41.429        0.053      338.662       11.463      852.017
10/09/2013  17:22:00     -133.187      297.424      -41.489       88.941      110.395       58.234     7910.587    12187.034     3391.185        6.570        1.174      325.883       61.762        0.036      338.606       11.368      852.023
10/09/2013  17:23:00        0.801      383.654      -48.482       66.044       99.413       40.617     4361.844     9882.851     1649.747        8.271        0.795      383.655       43.479        0.013      338.559       11.290      852.030
10/09/2013  17:24:00       58.881      188.476      -13.236       70.959      125.398       65.614     5035.180    15724.627     4305.139        3.211        1.253      197.459       74.839        0.144      338.588       11.339      852.029
10/09/2013  17:25:00        0.689      216.144      -15.989       53.773      152.185       50.421     2891.567    23160.193     2542.314        3.778        1.430      216.145       62.395        0.083      338.708       11.542      852.059
10/09/2013  17:26:00       35.089      207.909      -27.908       70.493      154.656       52.364     4969.301    23918.436     2741.961        3.843        1.581      210.849       55.800        0.070      338.587       11.337      852.042
10/09/2013  17:27:00      -18.067       82.413       -0.609       49.171       54.091       33.508     2417.823     2925.816     1122.807        0.679        0.323       84.370       19.005        0.051      338.696       11.522      852.043
10/09/2013  17:28:00      -80.071      251.890      -34.822       79.319       87.864       46.320     6291.466     7720.040     2145.524        4.361        0.808      264.310       47.972        0.033      338.664       11.466      852.064
10/09/2013  17:29:00     -180.949      143.556      -20.274       91.031       93.851       67.310     8286.629     8807.964     4530.617        3.769        1.081      230.978       47.736        0.043      338.641       11.426      852.059
10/09/2013  17:30:00       -3.433      148.050       -9.282       97.473       82.190       53.659     9500.988     6755.250     2879.312        2.057        0.957      148.090       61.463        0.172      338.727       11.573      852.063
10/09/2013  17:31:00       85.573      207.782       -9.409       93.114      137.858       75.214     8670.256    19004.885     5657.173        4.195        1.667      224.713       78.774        0.123      338.626       11.402      852.071
10/09/2013  17:32:00       -8.161      203.775       -7.180       80.914      110.357       52.732     6547.130    12178.644     2780.678        3.157        1.075      203.938       57.013        0.078      338.642       11.430      852.061
10/09/2013  17:33:00       98.792      120.363       11.562      127.742      123.477       70.138    16318.002    15246.568     4919.405        3.043        1.824      155.715       61.404        0.155      338.634       11.418      852.062
10/09/2013  17:34:00       64.852      104.612       21.745       96.927       77.850       63.330     9394.799     6060.635     4010.706        1.754        0.973      123.083       49.853        0.164      338.638       11.425      852.068
10/09/2013  17:35:00       20.907      371.269      -58.954       51.903      119.889       51.122     2693.939    14373.431     2613.500        8.071        0.984      371.857       53.634        0.021      338.651       11.444      852.084
10/09/2013  17:36:00      -42.488      262.801      -38.205       62.548       84.028       40.344     3912.255     7060.713     1627.654        4.246        0.630      266.214       43.342        0.027      338.696       11.520      852.093
10/09/2013  17:37:00      -57.665      285.177      -28.378       78.943      123.835       52.894     6231.919    15334.994     2797.776        5.491        1.218      290.949       55.022        0.036      338.694       11.516      852.092
10/09/2013  17:38:00       -0.440      180.622      -25.415       56.827       71.148       37.589     3229.252     5062.094     1412.928        2.149        0.485      180.623       35.370        0.038      338.713       11.550      852.089
10/09/2013  17:39:00        1.217      209.114      -31.734       42.157       64.881       29.104     1777.175     4209.606      847.041        2.578        0.342      209.117       31.096        0.022      338.723       11.566      852.080
10/09/2013  17:40:00        5.445      244.323      -10.424      125.031      133.457       69.402    15632.849    17810.787     4816.624        4.904        1.913      244.384       72.951        0.089      338.696       11.519      852.079
10/09/2013  17:41:00       44.070      319.108      -38.953       77.156      142.619       68.750     5953.115    20340.174     4726.594        6.815        1.551      322.137       78.502        0.059      338.650       11.443      852.064
10/09/2013  17:42:00       41.859      222.943       -8.281       99.473      162.391       71.754     9894.918    26370.790     5148.607        4.646        2.071      226.838       81.946        0.131      338.637       11.422      852.054
10/09/2013  17:43:00       -2.876      307.923      -48.186       65.570       84.458       45.196     4299.412     7133.100     2042.670        5.531        0.674      307.936       39.671        0.017      338.630       11.408      852.065
10/09/2013  17:44:00      -25.279      294.975      -41.503       78.457       57.343       35.254     6155.462     3288.187     1242.814        5.003        0.534      296.057       25.082        0.007      338.654       11.448      852.057
10/09/2013  17:45:00       -3.511      144.098       -2.998       53.108      104.991       53.939     2820.416    11023.028     2909.417        1.877        0.838      144.141       55.787        0.150      338.673       11.482      852.053
10/09/2013  17:46:00       32.835      253.464      -30.940       54.604      105.255       46.831     2981.614    11078.602     2193.151        4.126        0.813      255.582       51.234        0.040      338.645       11.434      852.043
10/09/2013  17:47:00       39.145      217.712      -31.223       60.130       96.450       39.285     3615.573     9302.557     1543.306        3.218        0.723      221.204       36.775        0.028      338.618       11.391      852.037
10/09/2013  17:48:00        6.094      188.091      -19.268       60.646      110.132       50.615     3677.969    12129.157     2561.834        2.707        0.918      188.189       65.075        0.120      338.611       11.377      852.036
10/09/2013  17:49:00        7.046      159.962      -23.086       48.781       65.504       44.539     2379.562     4290.809     1983.747        1.741        0.433      160.118       41.256        0.066      338.619       11.391      852.041
10/09/2013  17:50:00      -87.644      212.928      -36.547       74.407       73.184       31.717     5536.423     5355.844     1005.937        3.312        0.595      230.260       26.471        0.013      338.627       11.404      852.064
10/09/2013  17:51:00      -14.869      142.686      -20.784       54.196       47.368       29.889     2937.156     2243.693      893.362        1.354        0.304      143.458       23.475        0.027      338.659       11.461      852.053
10/09/2013  17:52:00       21.579      142.457      -13.187       43.430       84.908       32.795     1886.147     7209.285     1075.509        1.555        0.509      144.082       39.792        0.076      338.648       11.443      852.065
10/09/2013  17:53:00      -81.853      199.848      -32.917       76.556       75.909       34.570     5860.876     5762.196     1195.112        3.027        0.641      215.961       36.099        0.028      338.647       11.438      852.085
10/09/2013  17:54:00      -53.962      156.790      -10.400       40.653       68.206       28.063     1652.643     4652.007      787.547        1.735        0.355      165.816       31.351        0.036      338.672       11.482      852.097
10/09/2013  17:55:00     -138.718      103.834      -37.197       59.433       49.773       33.738     3532.230     2477.378     1138.223        1.928        0.357      173.275       30.640        0.031      338.632       11.415      852.105
10/09/2013  17:56:00     -125.873       40.836      -14.509       71.159       68.548       34.157     5063.651     4698.884     1166.686        1.432        0.546      132.332       32.919        0.062      338.615       11.386      852.116
10/09/2013  17:57:00     -155.413       69.468      -23.477       46.818       48.689       36.092     2191.917     2370.582     1302.598        1.770        0.293      170.232       28.144        0.027      338.612       11.380      852.121
10/09/2013  17:58:00      -98.774       91.585      -19.485       56.379       60.071       35.610     3178.588     3608.482     1268.045        1.329        0.403      134.700       38.368        0.081      338.610       11.378      852.137
10/09/2013  17:59:00     -157.198       89.262      -30.235       57.396       66.230       40.274     3294.248     4386.468     1621.972        2.145        0.465      180.773       35.795        0.039      338.622       11.396      852.146
10/09/2013  18:00:00      -12.046      156.009       -9.623       86.618      105.563       46.859     7502.700    11143.596     2195.802        2.271        1.042      156.473       56.113        0.129      338.609       11.374      852.156
10/09/2013  18:01:00       22.399      263.702      -34.869       68.919      118.112       44.839     4749.894    13950.479     2010.549        4.598        1.036      264.652       53.564        0.041      338.572       11.313      852.161
10/09/2013  18:02:00       57.729      100.630        3.480       65.444       98.833       51.135     4282.981     9768.021     2614.814        1.507        0.833      116.013       50.182        0.187      338.538       11.257      852.151
10/09/2013  18:03:00       13.397      175.856      -23.816       55.900       84.602       39.470     3124.854     7157.523     1557.845        2.175        0.592      176.365       43.277        0.060      338.572       11.311      852.163
10/09/2013  18:04:00      -39.152      232.828      -31.912       39.289       42.912       26.460     1543.600     1841.411      700.134        3.042        0.204      236.097       15.535        0.004      338.580       11.323      852.175
10/09/2013  18:05:00      -64.315      208.333      -31.713       66.091       91.064       42.871     4368.022     8292.674     1837.887        3.152        0.725      218.034       33.202        0.023      338.594       11.349      852.195
10/09/2013  18:06:00      -62.808      247.359      -36.156       57.082       74.122       36.142     3258.399     5494.125     1306.276        3.825        0.503      255.208       41.768        0.027      338.579       11.322      852.207
10/09/2013  18:07:00      -65.213      175.425      -21.256       52.013       88.404       35.311     2705.393     7815.234     1246.867        2.362        0.588      187.154       45.371        0.059      338.594       11.349      852.227
10/09/2013  18:08:00      -42.377      252.578      -35.909       61.452       64.396       28.680     3776.408     4146.827      822.536        3.781        0.437      256.108       28.874        0.013      338.605       11.367      852.235
10/09/2013  18:09:00      -51.454      214.161      -20.052       59.573       79.131       32.097     3548.962     6261.698     1030.228        2.988        0.542      220.256       30.257        0.019      338.598       11.355      852.245
10/09/2013  18:10:00      -99.273      190.095      -25.508       47.055       55.877       35.971     2214.169     3122.195     1293.916        2.663        0.332      214.456       27.952        0.017      338.582       11.329      852.259
10/09/2013  18:11:00      -22.133      181.996      -26.476       35.737       56.275       24.956     1277.144     3166.830      622.810        1.969        0.253      183.337       21.755        0.014      338.602       11.363      852.288
10/09/2013  18:12:00      -49.627      126.802      -11.174       54.585       70.692       34.651     2979.517     4997.351     1200.666        1.392        0.459      136.167       34.976        0.066      338.607       11.373      852.306
10/09/2013  18:13:00      -12.244      236.615      -27.454       87.414      107.326       51.575     7641.289    11518.886     2659.929        3.935        1.091      236.931       53.785        0.052      338.576       11.317      852.317
10/09/2013  18:14:00      -38.590      266.793      -36.018       71.291       77.651       40.092     5082.475     6029.717     1607.341        4.334        0.636      269.570       31.365        0.014      338.562       11.295      852.326
10/09/2013  18:15:00       -9.285      206.585      -17.492       52.739       89.520       46.728     2781.402     8013.876     2183.525        2.802        0.649      206.794       47.992        0.054      338.558       11.289      852.332
10/09/2013  18:16:00      -44.132      261.233      -32.970       75.679       70.444       38.557     5727.345     4962.366     1486.649        4.172        0.609      264.935       29.692        0.013      338.555       11.282      852.344
10/09/2013  18:17:00      -14.242      191.735      -27.587       43.604       48.651       21.206     1901.340     2366.904      449.708        2.122        0.236      192.263       18.334        0.009      338.581       11.328      852.364
10/09/2013  18:18:00      -14.991      195.662      -12.736       61.629       72.056       46.968     3798.075     5192.092     2206.025        2.493        0.560      196.236       46.579        0.056      338.543       11.263      852.385
10/09/2013  18:19:00       16.705      214.608      -23.424       44.063       76.875       31.156     1941.504     5909.735      970.700        2.785        0.441      215.257       31.240        0.021      338.533       11.247      852.394
10/09/2013  18:20:00       28.335      164.561       -9.341       70.309      110.040       48.179     4943.296    12108.875     2321.226        2.367        0.969      166.983       50.874        0.093      338.502       11.197      852.405
10/09/2013  18:21:00       26.229      179.886      -14.144       56.297      112.955       49.778     3169.310    12758.873     2477.868        2.582        0.920      181.788       59.511        0.107      338.514       11.215      852.416
10/09/2013  18:22:00       13.838      159.504      -27.204       63.648      121.106       33.776     4051.038    14666.604     1140.841        2.311        0.993      160.104       40.603        0.064      338.517       11.221      852.414
10/09/2013  18:23:00       14.958      188.899      -18.381       57.671      111.837       38.636     3325.961    12507.443     1492.762        2.678        0.866      189.490       53.826        0.081      338.518       11.223      852.431
10/09/2013  18:24:00        7.030      206.209      -33.251       39.702       51.444       29.621     1576.241     2646.506      877.401        2.439        0.255      206.329       26.126        0.016      338.543       11.264      852.430
10/09/2013  18:25:00        0.067      109.942      -17.701       41.179       43.678       30.526     1695.690     1907.769      931.835        0.847        0.227      109.942       25.025        0.052      338.485       11.169      852.437
10/09/2013  18:26:00       21.996       93.465       -6.982       38.907       49.520       29.665     1513.753     2452.191      880.016        0.706        0.242       96.018       27.982        0.085      338.474       11.150      852.434
10/09/2013  18:27:00       38.178      156.890      -35.519       48.111       78.990       31.136     2314.704     6239.383      969.432        1.843        0.476      161.468       23.301        0.021      338.502       11.196      852.429
10/09/2013  18:28:00       18.979       97.879      -15.234       34.492       34.208       18.696     1189.668     1170.220      349.558        0.644        0.135       99.702       13.997        0.020      338.497       11.189      852.430
10/09/2013  18:29:00       19.348      118.139      -10.103       45.777       89.005       32.261     2095.570     7921.923     1040.746        1.274        0.553      119.713       43.860        0.134      338.492       11.179      852.445
10/09/2013  18:30:00       20.413      182.742      -12.322       60.478       85.376       45.065     3657.529     7289.050     2030.827        2.347        0.649      183.878       48.287        0.069      338.509       11.207      852.452
10/09/2013  18:31:00       -7.827      128.677      -12.847       52.771       54.870       30.729     2784.819     3010.666      944.284        1.176        0.337      128.915       36.205        0.079      338.542       11.263      852.456
10/09/2013  18:32:00      -33.378      186.897      -22.987       43.326       44.036       27.728     1877.170     1939.154      768.855        2.058        0.229      189.854       25.145        0.018      338.577       11.323      852.462
10/09/2013  18:33:00        6.826      159.502      -15.572       47.151       94.066       38.756     2223.211     8848.506     1501.992        1.915        0.629      159.648       49.844        0.097      338.528       11.241      852.465
10/09/2013  18:34:00       -9.681      113.568       -6.970       31.581       41.727       24.910      997.352     1741.139      620.486        0.820        0.168      113.980       15.394        0.018      338.572       11.314      852.473
10/09/2013  18:35:00      -31.756      203.390      -26.743       56.277       62.946       23.302     3167.080     3962.220      542.994        2.538        0.384      205.854       23.709        0.013      338.550       11.275      852.494
10/09/2013  18:36:00      -25.798      205.638      -24.639       30.556       39.249       14.829      933.646     1540.482      219.900        2.313        0.135      207.249       12.035        0.003      338.561       11.295      852.508
10/09/2013  18:37:00      -18.970      160.879      -16.922       43.565       37.460       23.105     1897.943     1403.281      533.844        1.518        0.192      161.993       18.297        0.013      338.594       11.352      852.514
10/09/2013  18:38:00       -8.438      150.098      -22.945       32.006       31.761       19.847     1024.363     1008.790      393.898        1.278        0.121      150.335       14.611        0.009      338.583       11.333      852.515
10/09/2013  18:39:00      -49.208      159.221      -15.546       51.438       63.391       28.594     2645.886     4018.441      817.611        1.775        0.374      166.652       30.772        0.034      338.565       11.302      852.505
10/09/2013  18:40:00      -32.256      206.218      -26.423       58.136       49.623       29.179     3379.766     2462.446      851.412        2.548        0.335      208.726       26.469        0.016      338.593       11.349      852.502
10/09/2013  18:41:00       -3.015      189.688      -28.314       33.512       57.521       26.866     1123.085     3308.619      721.806        2.097        0.258      189.712       25.811        0.019      338.556       11.285      852.497
10/09/2013  18:42:00      -21.094      118.589       -8.484       36.239       73.473       25.452     1313.289     5398.269      647.784        1.097        0.368      120.450       28.914        0.058      338.629       11.410      852.502
10/09/2013  18:43:00      -53.544      205.519      -27.562       32.469       62.084       22.381     1054.264     3854.374      500.914        2.564        0.270      212.379       26.996        0.016      338.554       11.282      852.513
10/09/2013  18:44:00      -76.228      106.430      -25.016       53.994       57.513       26.043     2915.302     3307.747      678.256        1.233        0.345      130.913       24.812        0.036      338.626       11.405      852.518
10/09/2013  18:45:00      -75.588      112.704      -20.257       48.429       46.711       31.061     2345.410     2181.910      964.815        1.216        0.275      135.705       26.462        0.038      338.574       11.319      852.518
10/09/2013  18:46:00      -75.194      131.295      -22.645       43.449       50.574       28.220     1887.805     2557.771      796.360        1.432        0.262      151.303       27.203        0.032      338.549       11.275      852.511
10/09/2013  18:47:00      -16.735      138.919      -13.301       38.461       51.080       20.329     1479.278     2609.166      413.261        1.213        0.225      139.924       14.558        0.011      338.600       11.362      852.512
10/09/2013  18:48:00      -65.449      102.550       -4.951       36.395       67.187       28.618     1324.620     4514.031      818.966        1.074        0.333      121.656       29.059        0.057      338.657       11.459      852.504
10/09/2013  18:49:00      -35.284      200.618      -23.811       39.861       55.881       30.517     1588.913     3122.643      931.294        2.385        0.282      203.698       27.923        0.019      338.608       11.374      852.502
10/09/2013  18:50:00      -53.056      192.268      -24.663       34.657       42.224       28.032     1201.120     1782.841      785.798        2.208        0.188      199.454       26.065        0.017      338.621       11.395      852.500
10/09/2013  18:51:00      -28.490      157.490      -21.533       44.425       47.978       20.931     1973.559     2301.866      438.117        1.539        0.236      160.046       17.767        0.012      338.656       11.456      852.503
10/09/2013  18:52:00       -3.445      169.665      -31.597       34.793       39.252       19.756     1210.524     1540.687      390.307        1.647        0.157      169.700       18.765        0.012      338.591       11.348      852.502
10/09/2013  18:53:00      -10.518      170.326      -27.394       23.637       29.066       17.154      558.706      844.830      294.261        1.578        0.085      170.651       12.557        0.005      338.620       11.396      852.511
10/09/2013  18:54:00      -38.725       89.768      -12.511       33.063       42.368       21.817     1093.187     1795.062      475.970        0.654        0.168       97.764       21.070        0.046      338.673       11.484      852.505
10/09/2013  18:55:00      -35.206       79.706       -8.026       20.721       38.461       20.871      429.346     1479.243      435.587        0.500        0.117       87.135       19.868        0.052      338.756       11.623      852.499
10/09/2013  18:56:00      -48.528      120.574      -17.801       34.590       89.904       29.331     1196.497     8082.658      860.325        1.367        0.507      129.973       39.895        0.094      338.615       11.387      852.488
10/09/2013  18:57:00      -72.896      134.911      -18.286       38.247       53.171       25.648     1462.796     2827.150      657.840        1.440        0.247      153.345       25.892        0.029      338.639       11.427      852.479
10/09/2013  18:58:00      -33.517      144.107      -14.719       37.095       48.105       31.860     1376.045     2314.045     1015.080        1.341        0.235      147.953       28.040        0.036      338.633       11.415      852.472
10/09/2013  18:59:00      -32.345       59.310        4.523       36.760       27.430       24.296     1351.278      752.381      590.279        0.364        0.135       67.556       23.917        0.125      338.660       11.463      852.468
10/09/2013  19:00:00     -148.569       96.146      -28.274       42.377       41.440       31.413     1795.812     1717.283      986.807        1.831        0.225      176.965       26.217        0.022      338.620       11.393      852.466
10/09/2013  19:01:00      -55.043      128.755      -16.487       46.251       55.371       27.041     2139.152     3065.948      731.221        1.291        0.297      140.027       28.758        0.042      338.615       11.388      852.473
10/09/2013  19:02:00      -47.087       49.485       -9.544       26.800       47.050       16.627      718.220     2213.739      276.467        0.398        0.160       68.308       16.597        0.059      338.636       11.422      852.473
10/09/2013  19:03:00      -30.517       34.655       -0.720       31.347       32.620       18.759      982.622     1064.048      351.906        0.227        0.120       46.176       16.550        0.128      338.698       11.525      852.480
10/09/2013  19:04:00     -108.816       59.692      -28.731       35.645       40.374       24.954     1270.553     1630.086      622.685        0.988        0.176      124.113       20.451        0.027      338.644       11.436      852.482
10/09/2013  19:05:00     -109.299      101.185      -18.488       50.043       73.553       32.792     2504.268     5409.991     1075.287        1.576        0.449      148.945       34.504        0.054      338.620       11.395      852.492
10/09/2013  19:06:00     -107.158       98.587      -25.855       50.853       38.186       29.164     2585.992     1458.138      850.537        1.338        0.245      145.610       28.312        0.038      338.640       11.427      852.501
10/09/2013  19:07:00     -116.747       50.051      -14.463       43.214       45.793       23.818     1867.486     2097.000      567.300        1.044        0.227      127.023       22.833        0.032      338.670       11.479      852.511
10/09/2013  19:08:00     -111.601       10.350      -10.160       34.687       22.484       21.844     1203.188      505.511      477.172        0.743        0.109      112.080       19.962        0.032      338.640       11.429      852.521
10/09/2013  19:09:00     -131.417      -34.875       -6.803       58.832       66.324       26.002     3461.247     4398.933      676.084        1.353        0.427      135.966       10.948        0.006      338.627       11.406      852.516
10/09/2013  19:10:00     -135.369      -69.490       -6.887       46.653       45.506       25.981     2176.499     2070.816      674.998        1.406        0.246      152.163       15.342        0.010      338.525       11.236      852.512
10/09/2013  19:11:00     -122.645      -26.987       -7.299       34.479       55.512       23.454     1188.800     3081.569      550.104        1.032        0.241      125.579       21.053        0.028      338.494       11.184      852.513
10/09/2013  19:12:00     -146.537       10.753      -19.844       81.990       70.816       30.049     6722.344     5014.927      902.940        1.731        0.632      146.931       33.320        0.051      338.463       11.130      852.522
10/09/2013  19:13:00     -101.327       -5.995        1.879       75.221       77.911       33.566     5658.268     6070.071     1126.662        1.158        0.643      101.504       30.287        0.089      338.455       11.118      852.516
10/09/2013  19:14:00     -161.706      -12.357      -14.511       73.149       87.748       34.552     5350.739     7699.710     1193.820        2.038        0.712      162.177       26.522        0.027      338.428       11.071      852.517
10/09/2013  19:15:00     -128.312       21.574      -24.470       67.260       88.957       39.842     4523.860     7913.393     1587.410        1.577        0.701      130.113       25.337        0.038      338.449       11.108      852.531
10/09/2013  19:16:00     -156.944       71.438      -28.763       81.931       63.273       32.431     6712.621     4003.423     1051.755        2.116        0.588      172.438       35.598        0.043      338.511       11.211      852.546
10/09/2013  19:17:00     -102.758      101.031      -14.351       55.503       68.030       29.763     3080.583     4628.084      885.842        1.478        0.430      144.106       27.041        0.035      338.482       11.163      852.544
10/09/2013  19:18:00      -76.634      160.778      -10.354       83.217      122.271       48.089     6925.070    14950.147     2312.587        2.800        1.209      178.107       59.338        0.111      338.504       11.200      852.543
10/09/2013  19:19:00     -108.960      163.213      -25.643       73.175      115.643       49.065     5354.535    13373.380     2407.350        3.015        1.057      196.242       50.554        0.066      338.476       11.151      852.535
10/09/2013  19:20:00     -162.137      255.205      -41.130       57.785       75.231       42.105     3339.065     5659.675     1772.828        5.194        0.539      302.354       31.746        0.011      338.447       11.099      852.553
10/09/2013  19:21:00     -122.642      153.024      -15.593       56.960       88.342       42.633     3244.392     7804.383     1817.547        2.578        0.643      196.106       40.112        0.042      338.447       11.102      852.561
10/09/2013  19:22:00     -120.125      175.826      -19.876       70.360      124.271       46.496     4950.559    15443.223     2161.897        3.414        1.128      212.943       51.030        0.057      338.422       11.061      852.571
10/09/2013  19:23:00     -150.364      246.427      -45.553       76.591       61.914       46.164     5866.188     3833.393     2131.104        4.862        0.592      288.679       42.798        0.022      338.411       11.039      852.574
10/09/2013  19:24:00     -130.089      225.249      -31.790       82.824       87.410       44.365     6859.788     7640.565     1968.232        4.257        0.823      260.116       45.604        0.031      338.415       11.048      852.573
10/09/2013  19:25:00     -107.488      120.617      -11.807       47.595       63.190       36.465     2265.260     3993.018     1329.712        1.691        0.379      161.562       31.921        0.039      338.410       11.041      852.585
10/09/2013  19:26:00     -155.192      118.692      -23.593      103.639       85.491       51.531    10741.108     7308.772     2655.394        2.971        1.035      195.378       56.132        0.083      338.384       10.997      852.593
10/09/2013  19:27:00     -145.652      155.782      -29.488       87.431       68.612       44.523     7644.253     4707.655     1982.284        3.034        0.717      213.266       41.561        0.038      338.377       10.985      852.605
10/09/2013  19:28:00     -119.961      222.716      -33.273       81.378      103.229       51.611     6622.306    10656.190     2663.713        4.252        0.997      252.969       48.682        0.037      338.390       11.007      852.610
10/09/2013  19:29:00     -132.944      191.178      -40.916       83.659      102.512       51.938     6998.776    10508.672     2697.536        3.805        1.010      232.859       49.298        0.045      338.377       10.986      852.623
10/09/2013  19:30:00     -157.586      105.463      -14.055       95.602       79.081       42.447     9139.779     6253.851     1801.716        2.667        0.860      189.620       35.267        0.035      338.376       10.983      852.624
10/09/2013  19:31:00     -183.251      197.125      -37.735       81.032      113.400       55.857     6566.196    12859.629     3120.022        4.820        1.127      269.145       54.461        0.041      338.365       10.965      852.632
10/09/2013  19:32:00     -156.484      144.318      -18.702       90.253       97.107       45.173     8145.581     9429.796     2040.643        3.264        0.981      212.873       42.792        0.040      338.363       10.962      852.642
10/09/2013  19:33:00     -139.331      274.216      -32.414       87.954       81.890       46.417     7735.963     6705.971     2154.537        5.612        0.830      307.583       42.530        0.019      338.363       10.960      852.659
10/09/2013  19:34:00     -204.335      225.246      -35.970       83.778      106.820       63.928     7018.823    11410.616     4086.784        5.814        1.126      304.119       48.721        0.026      338.331       10.907      852.662
10/09/2013  19:35:00     -188.131      213.191      -32.697      111.511      115.159       68.308    12434.808    13261.632     4665.928        5.613        1.518      284.330       68.746        0.058      338.335       10.912      852.667
10/09/2013  19:36:00     -211.691      214.386      -52.551       87.564       90.179       57.182     7667.388     8132.244     3269.812        5.630        0.953      301.288       56.493        0.035      338.321       10.890      852.683
10/09/2013  19:37:00     -111.276      224.467      -25.011       92.957      115.241       59.269     8640.943    13280.576     3512.789        4.441        1.272      250.535       57.728        0.053      338.347       10.935      852.691
10/09/2013  19:38:00     -233.949      188.053      -48.878      124.331      108.941       63.504    15458.160    11868.048     4032.778        6.192        1.568      300.160       60.632        0.041      338.346       10.932      852.688
10/09/2013  19:39:00     -207.508      175.332      -33.987      135.915      129.252       67.871    18472.881    16706.077     4606.447        5.736        1.989      271.663       83.234        0.094      338.354       10.947      852.697
10/09/2013  19:40:00     -265.222      205.660      -52.257      137.800      125.930       87.115    18988.848    15858.404     7589.086        7.889        2.122      335.617       89.138        0.071      338.384       10.997      852.695
10/09/2013  19:41:00     -221.806      186.877      -33.727      118.877      130.952       77.874    14131.625    17148.302     6064.303        6.129        1.867      290.036       75.169        0.067      338.379       10.987      852.683
10/09/2013  19:42:00     -201.500      180.448      -38.395      117.437      111.868       54.544    13791.357    12514.408     2975.057        5.195        1.464      270.488       59.936        0.049      338.383       10.995      852.685
10/09/2013  19:43:00     -165.583      184.247      -33.730       99.043      109.208       66.575     9809.615    11926.440     4432.217        4.433        1.308      247.719       44.409        0.032      338.398       11.017      852.693
10/09/2013  19:44:00     -196.188      114.587      -34.998      133.950       72.035       58.289    17942.571     5189.009     3397.612        3.968        1.326      227.200       63.854        0.079      338.401       11.024      852.694
10/09/2013  19:45:00     -114.969      162.658      -24.426       75.890      106.223       45.138     5759.358    11283.399     2037.443        2.967        0.954      199.187       34.736        0.030      338.390       11.005      852.709
10/09/2013  19:46:00     -203.326      151.661      -38.118       79.939      106.541       51.553     6390.185    11350.882     2657.707        4.309        1.020      253.658       34.222        0.018      338.377       10.984      852.744
10/09/2013  19:47:00     -242.866      214.379      -47.644       92.336      104.910       56.251     8525.860    11006.211     3164.205        6.495        1.135      323.948       43.035        0.018      338.366       10.964      852.762
10/09/2013  19:48:00     -224.357      272.806      -33.807      118.210      191.987       60.651    13973.550    36859.172     3678.571        9.020        2.726      353.213       68.666        0.038      338.337       10.916      852.772
10/09/2013  19:49:00     -160.708      183.061      -41.049       86.201       92.024       53.929     7430.580     8468.445     2908.368        3.991        0.940      243.595       50.603        0.043      338.343       10.927      852.777
10/09/2013  19:50:00     -243.860      231.490      -42.552      109.928      131.741       64.589    12084.070    17355.647     4171.683        7.423        1.681      336.237       75.742        0.051      338.327       10.900      852.789
10/09/2013  19:51:00     -220.753      212.026      -44.376      100.619      108.553       62.041    10124.155    11783.681     3849.136        6.070        1.288      306.083       52.242        0.029      338.316       10.882      852.797
10/09/2013  19:52:00     -159.567      118.039      -32.987      121.470       88.706       58.183    14754.995     7868.841     3385.231        3.324        1.300      198.481       56.857        0.082      338.337       10.917      852.801
10/09/2013  19:53:00      -87.824      172.592       -8.019       88.588      108.815       53.912     7847.755    11840.638     2906.491        3.008        1.130      193.652       53.857        0.077      338.340       10.923      852.784
10/09/2013  19:54:00     -277.215      256.136      -70.086      161.828       97.987       67.622    26188.165     9601.421     4572.685        9.386        2.018      377.430       77.608        0.042      338.301       10.856      852.789
10/09/2013  19:55:00     -191.357      140.831      -22.148      127.799       99.528       56.908    16332.537     9905.806     3238.554        4.320        1.474      237.594       62.891        0.070      338.290       10.838      852.804
10/09/2013  19:56:00     -180.391      201.893      -43.455       88.894      125.843       48.942     7902.183    15836.552     2395.351        5.066        1.307      270.743       62.995        0.054      338.300       10.855      852.808
10/09/2013  19:57:00      -57.536      113.589       -6.253       64.776       95.808       37.061     4195.883     9179.164     1373.511        1.550        0.737      127.330       36.036        0.080      338.343       10.928      852.807
10/09/2013  19:58:00     -185.781      142.619      -33.226       99.110       70.597       46.509     9822.814     4983.893     2163.042        3.646        0.848      234.211       52.448        0.050      338.305       10.865      852.814
10/09/2013  19:59:00     -198.836      122.845      -27.381       95.646       76.699       52.989     9148.121     5882.705     2807.810        3.660        0.892      233.724       51.339        0.048      338.260       10.788      852.841
10/09/2013  20:00:00     -164.642      186.839      -31.431      106.352      101.454       52.649    11310.754    10292.849     2771.950        4.368        1.219      249.029       54.837        0.048      338.274       10.811      852.849
10/09/2013  20:01:00     -129.843      210.692      -14.789       81.385       81.781       52.866     6623.514     6688.101     2794.831        3.878        0.805      247.488       50.643        0.042      338.253       10.776      852.861
10/09/2013  20:02:00     -125.300      233.369      -24.562       90.380       97.031       55.739     8168.558     9414.991     3106.878        4.572        1.035      264.879       43.346        0.027      338.268       10.801      852.873
10/09/2013  20:03:00     -108.275      233.633      -32.335       67.513      113.567       51.176     4558.003    12897.520     2618.947        4.371        1.004      257.503       47.675        0.034      338.251       10.772      852.883
10/09/2013  20:04:00     -115.602      258.991      -22.625       86.377      113.418       58.869     7460.952    12863.714     3465.535        5.237        1.190      283.619       62.468        0.049      338.244       10.760      852.883
10/09/2013  20:05:00     -163.145      262.636      -40.871      123.030      119.544       67.050    15136.298    14290.657     4495.640        6.559        1.696      309.183       51.825        0.028      338.212       10.705      852.886
10/09/2013  20:06:00     -153.293      173.557      -19.677       86.435      115.030       61.167     7471.012    13232.002     3741.343        3.922        1.222      231.561       61.918        0.071      338.232       10.740      852.889
10/09/2013  20:07:00     -137.887      175.910      -33.338       62.400       92.698       53.811     3893.739     8592.933     2895.640        3.322        0.769      223.511       38.920        0.030      338.245       10.761      852.911
10/09/2013  20:08:00     -163.521      215.975      -23.239       87.570      100.618       61.607     7668.494    10123.982     3795.418        4.775        1.079      270.896       57.674        0.045      338.204       10.692      852.921
10/09/2013  20:09:00     -196.401      273.481      -44.623      120.720      120.535       85.415    14573.376    14528.649     7295.785        7.587        1.820      336.697       93.550        0.077      338.178       10.649      852.931
10/09/2013  20:10:00     -161.357      244.509      -28.915      102.855      122.225       74.429    10579.242    14939.017     5539.682        5.885        1.553      292.951       77.104        0.069      338.190       10.669      852.936
10/09/2013  20:11:00     -173.210      229.177      -46.205       67.905       82.039       44.492     4611.110     6730.374     1979.514        4.899        0.666      287.270       42.451        0.022      338.166       10.629      852.947
10/09/2013  20:12:00     -133.219      228.071      -26.717       95.022      117.850       62.572     9029.162    13888.698     3915.230        4.865        1.342      264.128       60.262        0.052      338.160       10.620      852.968
10/09/2013  20:13:00      -81.250      172.083      -14.421       54.535       71.570       44.203     2974.016     5122.295     1953.915        2.323        0.503      190.300       40.282        0.045      338.208       10.701      852.961
10/09/2013  20:14:00     -105.442      248.325      -29.265       87.648      106.712       58.726     7682.219    11387.461     3448.744        4.807        1.126      269.784       67.649        0.063      338.159       10.617      852.971
10/09/2013  20:15:00     -145.780      167.590      -35.061       49.732       93.125       35.199     2473.257     8672.179     1238.997        3.147        0.619      222.122       36.966        0.028      338.162       10.624      852.971
10/09/2013  20:16:00      -69.673      130.913       11.578       64.716      123.061       57.052     4188.143    15144.014     3254.905        2.235        1.129      148.299       53.357        0.129      338.191       10.672      852.978
10/09/2013  20:17:00      -71.173      108.449       -9.985       42.410       80.074       32.391     1798.644     6411.924     1049.147        1.309        0.463      129.718       26.937        0.043      338.174       10.646      852.991
10/09/2013  20:18:00     -167.723       42.260      -19.586      155.535      114.500       59.400    24191.079    13110.237     3528.418        3.556        2.041      172.965       73.810        0.182      338.137       10.582      852.995
10/09/2013  20:19:00     -146.480       41.229      -13.644      101.357      100.795       61.305    10273.179    10159.577     3758.314        2.376        1.210      152.172       59.196        0.151      338.145       10.595      853.001
10/09/2013  20:20:00     -144.036       85.407      -15.491      104.864      103.613       50.859    10996.477    10735.714     2586.622        2.629        1.216      167.454       54.949        0.108      338.130       10.570      853.004
10/09/2013  20:21:00     -187.203      217.904      -43.937      140.243      121.367       68.585    19668.071    14729.893     4703.970        6.177        1.955      287.275       70.007        0.059      338.110       10.535      852.998
10/09/2013  20:22:00     -212.665      247.682      -43.672       85.589       90.043       63.305     7325.481     8107.749     4007.464        6.396        0.972      326.455       57.182        0.031      338.069       10.467      852.992
10/09/2013  20:23:00     -221.711      221.868      -57.973       87.689       80.743       54.754     7689.338     6519.457     2997.967        5.947        0.860      313.658       58.692        0.035      338.076       10.478      853.003
10/09/2013  20:24:00     -113.338      129.986      -31.054       55.873       40.954       31.720     3121.834     1677.255     1006.144        1.825        0.290      172.458       27.772        0.026      338.101       10.524      852.992
10/09/2013  20:25:00     -193.720      216.391      -41.189      135.929      160.258       65.229    18476.680    25682.634     4254.850        6.722        2.421      290.435       87.823        0.091      338.094       10.509      852.997
10/09/2013  20:26:00     -170.059      217.355      -38.094       99.714      101.015       57.250     9942.901    10204.054     3277.508        5.051        1.171      275.977       61.863        0.050      338.052       10.438      852.996
10/09/2013  20:27:00     -169.488      187.565      -41.740       82.687       85.260       50.037     6837.210     7269.265     2503.655        4.113        0.831      252.798       55.188        0.048      338.036       10.412      852.986
10/09/2013  20:28:00     -246.410      120.104      -35.662      130.598       94.419       43.013    17055.866     8914.940     1850.086        5.211        1.391      274.122       47.692        0.030      338.024       10.393      852.989
10/09/2013  20:29:00     -142.930      134.860       -5.799      120.558      104.453       67.003    14534.162    10910.443     4489.389        3.429        1.497      196.510       52.139        0.070      338.010       10.369      852.986
10/09/2013  20:30:00     -200.197      208.400      -46.861       98.586       92.542       51.947     9719.156     8564.047     2698.484        5.334        1.049      288.980       58.688        0.041      337.991       10.337      853.008
10/09/2013  20:31:00     -154.542      219.038      -20.482       96.260      114.845       68.930     9265.906    13189.364     4751.334        4.974        1.360      268.069       62.768        0.055      337.973       10.306      853.026
10/09/2013  20:32:00     -187.648      168.596      -25.278      112.022      113.292       63.133    12548.844    12835.142     3985.769        4.682        1.468      252.263       70.720        0.079      337.970       10.301      853.036
10/09/2013  20:33:00     -259.800      185.115      -58.342      130.216      113.763       62.372    16956.249    12942.038     3890.220        6.947        1.689      319.004       68.597        0.046      337.948       10.262      853.041
10/09/2013  20:34:00     -206.318      181.631      -29.081      106.818      103.226       65.536    11410.182    10655.677     4295.008        5.138        1.318      274.876       54.194        0.039      337.924       10.223      853.062
10/09/2013  20:35:00     -125.470      194.045      -26.157       95.114      109.304       49.471     9046.605    11947.291     2447.413        3.876        1.172      231.076       47.554        0.042      337.954       10.274      853.078
10/09/2013  20:36:00     -214.839      177.408      -28.506      129.246      145.963       66.886    16704.615    21305.328     4473.695        6.045        2.124      278.621       63.106        0.051      337.937       10.246      853.082
10/09/2013  20:37:00     -132.371      154.745      -25.448       94.478       88.813       62.341     8926.112     7887.684     3886.344        3.140        1.035      203.637       51.947        0.065      337.913       10.206      853.096
10/09/2013  20:38:00     -153.592      180.132      -32.999       89.703       85.160       56.644     8046.612     7252.198     3208.544        3.781        0.925      236.723       41.061        0.030      337.933       10.238      853.133
10/09/2013  20:39:00     -156.914       93.319      -21.876       79.696       75.799       45.156     6351.508     5745.508     2039.085        2.397        0.707      182.566       43.316        0.056      337.885       10.157      853.155
10/09/2013  20:40:00     -173.822      261.257      -37.645       91.435      115.456       64.893     8360.388    13330.068     4211.098        6.289        1.295      313.798       63.081        0.040      337.871       10.133      853.159
10/09/2013  20:41:00     -134.172      241.995      -36.828       96.175      106.360       60.084     9249.713    11312.543     3610.123        5.104        1.209      276.702       69.503        0.063      337.859       10.114      853.180
10/09/2013  20:42:00     -172.633      267.032      -38.344       89.623      125.241       56.857     8032.319    15685.292     3232.732        6.476        1.348      317.975       55.467        0.030      337.828       10.062      853.205
10/09/2013  20:43:00     -194.265      141.387      -35.857       91.932      106.584       63.623     8451.466    11360.143     4047.921        4.143        1.193      240.269       58.236        0.059      337.853       10.104      853.208
10/09/2013  20:44:00     -106.063       49.277        0.137       82.794       53.879       41.559     6854.860     2902.911     1727.177        1.258        0.574      116.951       44.434        0.144      337.870       10.136      853.217
10/09/2013  20:45:00     -204.046      189.486      -42.438      133.615      113.929       58.430    17853.014    12979.805     3414.106        5.679        1.712      278.460       60.107        0.047      337.831       10.068      853.235
10/09/2013  20:46:00     -104.867      158.045      -12.167       75.550      107.171       42.658     5707.818    11485.701     1819.711        2.756        0.951      189.672       46.896        0.061      337.813       10.039      853.260
10/09/2013  20:47:00      -93.455       76.578      -22.309       90.335       94.832       62.528     8160.451     8993.083     3909.751        1.808        1.053      120.822       60.094        0.247      337.853       10.105      853.248
10/09/2013  20:48:00     -153.498      173.817      -25.127       99.808      157.714       65.231     9961.623    24873.719     4255.103        4.674        1.955      231.892       66.542        0.082      337.815       10.041      853.242
10/09/2013  20:49:00     -221.963      203.464      -48.708      122.180      114.463       61.858    14928.026    13101.793     3826.403        6.244        1.593      301.107       52.588        0.031      337.782        9.985      853.248
10/09/2013  20:50:00     -143.483      145.170      -19.761       99.185      107.421       48.808     9837.759    11539.189     2382.255        3.290        1.188      204.112       43.726        0.046      337.778        9.980      853.238
10/09/2013  20:51:00     -186.318      177.566      -48.070       94.779      163.006       64.863     8982.984    26570.876     4207.210        5.415        1.988      257.379       61.811        0.058      337.802       10.019      853.243
10/09/2013  20:52:00     -124.616      172.588      -20.012       80.718      101.192       47.636     6515.347    10239.799     2269.168        3.237        0.951      212.875       54.882        0.066      337.789        9.997      853.244
10/09/2013  20:53:00     -163.456       72.853      -20.885      130.216       91.397       59.729    16956.199     8353.420     3567.504        3.066        1.444      178.956       70.815        0.157      337.800       10.017      853.247
10/09/2013  20:54:00     -160.996      287.492      -26.177      111.023      123.483       67.648    12326.133    15248.008     4576.227        7.070        1.608      329.502       57.072        0.030      337.761        9.952      853.244
10/09/2013  20:55:00     -184.892      218.651      -37.758       85.553       96.890       49.844     7319.358     9387.586     2484.393        5.130        0.960      286.344       48.240        0.028      337.760        9.948      853.240
10/09/2013  20:56:00     -251.996      171.493      -40.327      133.708       94.842       70.517    17877.958     8995.050     4972.682        6.319        1.592      304.814       75.635        0.062      337.759        9.948      853.249
10/09/2013  20:57:00     -180.416       86.765      -31.436       72.920       78.563       43.311     5317.350     6172.211     1875.883        2.721        0.668      200.195       30.068        0.023      337.742        9.918      853.248
10/09/2013  20:58:00     -148.417       85.455      -27.465       75.098      102.689       41.318     5639.771    10545.129     1707.154        2.398        0.895      171.260       48.618        0.081      337.733        9.904      853.253
10/09/2013  20:59:00     -102.935      141.900      -26.234       76.876       84.193       47.898     5909.850     7088.496     2294.237        2.335        0.765      175.303       41.810        0.057      337.748        9.931      853.252
10/09/2013  21:00:00     -171.944       78.897      -28.677      101.166       94.251       55.808    10234.610     8883.308     3114.579        2.942        1.112      189.181       58.325        0.095      337.705        9.858      853.263
10/09/2013  21:01:00     -179.347      205.596      -41.198       91.516      101.522       52.705     8375.184    10306.814     2777.854        4.879        1.073      272.828       44.978        0.027      337.686        9.824      853.268
10/09/2013  21:02:00     -178.549      108.746      -21.661      153.023       79.277       62.728    23415.940     6284.809     3934.841        3.890        1.682      209.059       44.112        0.045      337.689        9.832      853.268
10/09/2013  21:03:00     -132.633       82.562      -28.005       83.092      111.964       45.984     6904.356    12535.927     2114.507        2.337        1.078      156.230       39.026        0.062      337.698        9.846      853.276
10/09/2013  21:04:00     -170.477      128.740      -40.725       87.530      104.404       49.746     7661.583    10900.182     2474.636        3.416        1.052      213.627       34.785        0.027      337.654        9.772      853.270
10/09/2013  21:05:00     -119.216      201.756      -14.453      104.336      133.982       62.080    10885.927    17951.096     3853.941        4.390        1.635      234.346       59.349        0.064      337.660        9.782      853.273
10/09/2013  21:06:00     -145.622      232.456      -24.454       74.975      153.644       52.790     5621.210    23606.613     2786.809        5.392        1.601      274.302       43.818        0.026      337.659        9.781      853.264
10/09/2013  21:07:00     -228.554       97.084      -38.030      107.698      107.819       54.284    11598.805    11625.017     2946.729        4.463        1.309      248.319       54.118        0.047      337.647        9.760      853.295
10/09/2013  21:08:00     -154.371      184.931      -42.069       77.439       89.852       38.829     5996.855     8073.403     1507.707        3.769        0.779      240.894       40.790        0.029      337.636        9.742      853.317
10/09/2013  21:09:00     -188.510      190.473      -45.706       61.409       96.290       44.662     3771.083     9271.830     1994.729        4.447        0.752      267.985       31.134        0.013      337.654        9.771      853.340
10/09/2013  21:10:00     -147.477       78.526      -25.241       74.931      102.763       47.632     5614.648    10560.288     2268.812        2.349        0.922      167.080       42.600        0.065      337.672        9.803      853.348
10/09/2013  21:11:00      -80.148       45.090      -18.174       63.714       69.686       38.346     4059.506     4856.082     1470.422        0.958        0.519       91.961       44.237        0.231      337.660        9.783      853.365
10/09/2013  21:12:00     -144.179      121.345      -19.022       84.310       86.947       43.552     7108.186     7559.721     1896.735        2.622        0.828      188.447       34.760        0.034      337.641        9.751      853.392
10/09/2013  21:13:00     -123.234      117.200       -5.261       73.122      103.552       49.516     5346.862    10723.050     2451.828        2.373        0.926      170.066       46.737        0.076      337.644        9.756      853.384
10/09/2013  21:14:00     -281.981      256.530      -66.698       97.980      135.312       58.683     9600.082    18309.407     3443.719        9.056        1.568      381.210       39.878        0.011      337.649        9.763      853.405
10/09/2013  21:15:00     -206.133       13.317      -22.384      132.510       87.728       42.803    17558.971     7696.133     1832.082        3.512        1.354      206.563       52.259        0.064      337.662        9.786      853.403
10/09/2013  21:16:00     -106.413      118.935      -21.724       37.332       89.364       36.903     1393.669     7985.997     1361.829        1.834        0.537      159.591       40.817        0.065      337.649        9.765      853.429
10/09/2013  21:17:00     -129.843       25.725      -13.517       82.805      134.592       53.272     6856.612    18114.892     2837.893        2.275        1.390      132.367       40.458        0.093      337.641        9.750      853.435
10/09/2013  21:18:00     -169.894      206.295      -32.433      109.777      105.123       66.380    12050.991    11050.919     4406.239        4.999        1.375      267.248       70.021        0.069      337.606        9.692      853.456
10/09/2013  21:19:00     -183.186      191.592      -40.890       88.422       90.671       52.931     7818.510     8221.314     2801.653        4.539        0.942      265.075       61.764        0.054      337.629        9.731      853.461
10/09/2013  21:20:00     -206.835       94.706      -31.381       72.397       59.727       43.165     5241.326     3567.268     1863.205        3.170        0.534      227.486       30.658        0.018      337.627        9.726      853.468
10/09/2013  21:21:00      -97.206       75.304      -16.167       49.875       65.742       36.836     2487.478     4322.070     1356.911        1.177        0.408      122.962       31.122        0.064      337.631        9.737      853.464
10/09/2013  21:22:00     -109.021       56.197      -14.971       50.126       78.975       36.330     2512.654     6237.124     1319.890        1.267        0.503      122.653       40.097        0.107      337.632        9.738      853.477
10/09/2013  21:23:00     -152.386       24.748      -18.474       54.793       64.614       35.788     3002.319     4174.920     1280.796        1.631        0.423      154.383       21.710        0.020      337.654        9.772      853.476
10/09/2013  21:24:00     -104.148       51.450        3.477      140.551       87.539       51.235    19754.460     7662.993     2624.992        2.177        1.502      116.163       71.744        0.381      337.636        9.743      853.484
10/09/2013  21:25:00     -195.166       16.022      -20.093       83.800       62.749       47.149     7022.362     3937.491     2223.073        2.596        0.659      195.823       43.599        0.050      337.628        9.729      853.518
10/09/2013  21:26:00     -157.999      -60.992      -13.750       74.054       64.962       40.886     5484.053     4220.094     1671.701        2.012        0.569      169.363       30.935        0.033      337.658        9.780      853.534
10/09/2013  21:27:00      -60.701      -10.397        8.122       63.092       63.820       44.933     3980.607     4072.961     2018.958        0.696        0.504       61.585       39.844        0.419      337.668        9.797      853.540
10/09/2013  21:28:00      -79.314      155.151      -26.924       59.175      118.258       42.670     3501.655    13985.004     1820.758        2.519        0.965      174.249       30.576        0.031      337.658        9.779      853.534
10/09/2013  21:29:00     -166.590       96.456      -30.470      100.286      115.932       58.485    10057.217    13440.330     3420.533        3.245        1.346      192.499       76.778        0.159      337.653        9.772      853.546
10/09/2013  21:30:00     -110.468      114.918      -14.429       79.411       80.554       61.004     6306.060     6488.950     3721.535        2.106        0.826      159.403       54.083        0.115      337.664        9.792      853.552
10/09/2013  21:31:00     -174.079       69.412      -13.799      119.986       85.366       56.684    14396.574     7287.356     3213.039        3.010        1.245      187.408       54.898        0.086      337.650        9.765      853.568
10/09/2013  21:32:00     -246.374      292.197      -59.265      155.623      173.982       85.844    24218.489    30269.850     7369.276       10.571        3.093      382.203       96.781        0.064      337.651        9.766      853.581
10/09/2013  21:33:00     -170.940      159.184      -23.541      109.249       98.052       55.724    11935.320     9614.148     3105.164        3.988        1.233      233.581       62.566        0.072      337.652        9.770      853.586
10/09/2013  21:34:00      -33.062       74.369       22.935       82.507       67.397       60.271     6807.445     4542.377     3632.579        1.106        0.749       81.387       54.946        0.456      337.709        9.867      853.599
10/09/2013  21:35:00     -153.393       79.188      -19.398       76.277      136.585       57.473     5818.107    18655.356     3303.174        2.897        1.389      172.627       47.642        0.076      337.686        9.826      853.634
10/09/2013  21:36:00      -86.667       33.591      -12.246       77.878      101.778       47.736     6065.015    10358.728     2278.706        1.374        0.935       92.949       36.937        0.158      337.675        9.809      853.647
10/09/2013  21:37:00      -60.179       -9.722       -5.550       75.727       66.162       35.094     5734.625     4377.450     1231.606        0.754        0.567       60.959       30.639        0.253      337.688        9.831      853.655
10/09/2013  21:38:00     -150.542      -20.617        1.842      115.888       81.976       64.799    13429.957     6720.066     4198.895        2.372        1.217      151.948       41.337        0.074      337.701        9.851      853.685
10/09/2013  21:39:00      -61.252       -2.549        7.334       75.119       41.457       35.540     5642.904     1718.677     1263.090        0.622        0.431       61.305       22.351        0.133      337.717        9.879      853.702
10/09/2013  21:40:00     -180.105       85.345      -38.902      105.979      103.683       51.350    11231.513    10750.173     2636.814        3.292        1.231      199.303       43.917        0.049      337.700        9.849      853.746
10/09/2013  21:41:00      -30.076       30.693        6.418      108.790       69.841       44.685    11835.206     4877.751     1996.774        1.030        0.935       42.973       41.527        0.934      337.703        9.855      853.745
10/09/2013  21:42:00     -115.237      -27.551      -10.657       60.772       75.539       39.127     3693.268     5706.142     1530.916        1.254        0.547      118.485       34.449        0.085      337.700        9.850      853.748
10/09/2013  21:43:00     -186.089      -78.730      -24.239      103.106       62.276       54.805    10630.890     3878.344     3003.589        2.946        0.876      202.058       46.652        0.053      337.682        9.819      853.733
10/09/2013  21:44:00     -175.017      -36.339       -7.517       79.844       92.468       49.333     6375.113     8550.243     2433.743        2.468        0.868      178.750       41.154        0.053      337.670        9.799      853.740
10/09/2013  21:45:00      -81.445      -45.153        6.277       83.460       54.416       35.172     6965.640     2961.131     1237.073        0.994        0.558       93.124       44.914        0.233      337.651        9.770      853.755
10/09/2013  21:46:00     -125.800      -16.964       -8.244       53.696       52.552       26.429     2883.249     2761.703      698.506        1.126        0.317      126.939       30.211        0.057      337.653        9.773      853.757
10/09/2013  21:47:00     -164.319      -57.095       -0.701       74.711       58.923       32.995     5581.794     3471.875     1088.649        2.020        0.507      173.955       35.996        0.043      337.650        9.768      853.788
10/09/2013  21:48:00     -177.626       47.421      -25.014       81.570      119.854       53.283     6653.699    14364.984     2839.082        2.914        1.193      183.847       64.490        0.123      337.692        9.836      853.803
10/09/2013  21:49:00     -203.002      -58.838      -16.755       84.007       66.059       47.379     7057.227     4363.796     2244.740        2.931        0.683      211.356       41.546        0.039      337.699        9.847      853.812
10/09/2013  21:50:00     -147.143        3.024      -15.350       95.637       59.326       33.134     9146.476     3519.520     1097.891        1.783        0.688      147.174       41.943        0.081      337.705        9.858      853.831
10/09/2013  21:51:00      -70.559      -39.570       19.945      117.464      109.543       46.742    13797.771    11999.641     2184.860        1.746        1.399       80.897       68.101        0.709      337.728        9.897      853.809
10/09/2013  21:52:00       -1.883       -0.285       16.239       45.321       31.146       25.834     2053.975      970.059      667.393        0.198        0.185        1.904       24.332      163.233      337.728        9.898      853.834
10/09/2013  21:53:00     -200.768      -54.350       -8.143       87.327       50.434       28.688     7625.992     2543.594      823.002        2.716        0.550      207.995       31.527        0.023      337.697        9.846      853.846
10/09/2013  21:54:00     -133.505      -16.489       -9.300       45.373       54.864       30.410     2058.753     3010.006      924.769        1.209        0.300      134.519       21.697        0.026      337.698        9.845      853.850
10/09/2013  21:55:00     -141.097      -42.757       -6.929       60.047       49.428       41.731     3605.620     2443.127     1741.503        1.479        0.390      147.433       33.951        0.053      337.700        9.850      853.856
10/09/2013  21:56:00     -128.562      -62.230        0.646       91.019       62.395       32.864     8284.405     3893.108     1080.069        1.683        0.663      142.831       38.462        0.073      337.675        9.807      853.853
10/09/2013  21:57:00     -120.029      -17.688       -8.614       49.558       42.384       26.377     2456.010     1796.367      695.725        0.987        0.247      121.325        7.793        0.004      337.659        9.783      853.879
10/09/2013  21:58:00      -46.840      -19.851       -1.564       50.524       35.328       22.927     2552.644     1248.065      525.643        0.346        0.216       50.873       12.583        0.061      337.675        9.809      853.873
10/09/2013  21:59:00     -179.080      -28.273      -11.851       48.020       42.791       26.503     2305.876     1831.044      702.411        1.892        0.242      181.298       19.919        0.012      337.648        9.763      853.898
10/09/2013  22:00:00     -161.176      -31.981       -0.380       76.511       58.175       31.780     5853.885     3384.280     1009.946        1.862        0.512      164.318       35.125        0.046      337.649        9.765      853.917
10/09/2013  22:01:00     -343.861       36.104      -21.440      175.763      119.616       55.788    30892.745    14307.914     3112.323        8.415        2.416      345.752       79.096        0.052      337.659        9.782      853.932
10/09/2013  22:02:00     -211.173     -102.646       -2.658      110.541       91.295       47.685    12219.281     8334.705     2273.865        3.898        1.141      234.798       44.899        0.037      337.688        9.827      853.941
10/09/2013  22:03:00     -220.176      -46.342        0.866       95.232       84.049       47.882     9069.047     7064.173     2292.674        3.452        0.921      225.000       47.702        0.045      337.682        9.818      853.983
10/09/2013  22:04:00     -190.481      -44.310       -5.485       89.307       65.726       33.913     7975.706     4319.933     1150.093        2.586        0.672      195.567       27.902        0.020      337.687        9.827      853.996
10/09/2013  22:05:00     -205.084      -35.928      -13.437       68.504       46.770       28.523     4692.830     2187.398      813.568        2.561        0.385      208.207       13.473        0.004      337.693        9.838      854.008
10/09/2013  22:06:00     -139.874      -53.748       -8.678       43.829       41.602       23.103     1920.952     1730.765      533.731        1.336        0.209      149.846       20.889        0.019      337.692        9.836      854.020
10/09/2013  22:07:00     -153.738      -67.934       -4.577       67.767       68.400       29.739     4592.325     4678.572      884.380        1.921        0.508      168.079       28.979        0.030      337.672        9.805      854.025
10/09/2013  22:08:00     -232.711      -95.058       -3.129       84.142       70.961       47.770     7079.868     5035.453     2282.018        3.880        0.720      251.377       44.187        0.031      337.662        9.786      854.031
10/09/2013  22:09:00     -212.903      -63.898      -13.392       82.589       89.726       45.120     6820.960     8050.742     2035.840        3.325        0.845      222.285       45.767        0.042      337.692        9.837      854.041
10/09/2013  22:10:00     -244.444      -35.139      -25.360      107.147       63.450       43.060    11480.539     4025.840     1854.171        3.949        0.868      246.957       51.245        0.043      337.665        9.790      854.049
10/09/2013  22:11:00     -163.184      -48.484        2.841       69.046       43.856       31.947     4767.317     1923.369     1020.639        1.835        0.386      170.234       35.248        0.043      337.641        9.751      854.053
10/09/2013  22:12:00     -157.226      -34.729       -3.474       65.700       43.330       33.361     4316.509     1877.471     1112.971        1.662        0.365      161.016       30.282        0.035      337.659        9.783      854.038
10/09/2013  22:13:00     -152.853       17.881      -10.209       51.859       47.629       27.031     2689.332     2268.559      730.699        1.474        0.284      153.895       24.387        0.025      337.644        9.757      854.044
10/09/2013  22:14:00     -160.261      -40.548        2.729       60.696       49.968       32.650     3684.058     2496.791     1066.004        1.729        0.362      165.311       33.831        0.042      337.639        9.748      854.056
10/09/2013  22:15:00     -200.211       -6.343      -29.772       35.621       28.413       21.863     1268.875      807.298      477.984        2.178        0.128      200.311       13.732        0.005      337.627        9.727      854.068
10/09/2013  22:16:00     -130.001       17.070       -7.218       52.869       41.231       24.929     2795.179     1699.960      621.443        1.118        0.256      131.117       19.373        0.022      337.645        9.758      854.066
10/09/2013  22:17:00     -172.417      -84.036        0.699       74.242       59.257       39.990     5511.821     3511.350     1599.188        2.370        0.531      191.806       37.887        0.039      337.650        9.766      854.065
10/09/2013  22:18:00     -247.070      -24.809      -17.750      101.507       58.729       45.400    10303.603     3449.115     2061.126        3.889        0.791      248.313       47.113        0.036      337.622        9.717      854.075
10/09/2013  22:19:00     -128.068      -14.996       -1.126       44.929       44.245       31.621     2018.625     1957.581      999.884        1.080        0.249      128.943       25.752        0.040      337.635        9.739      854.084
10/09/2013  22:20:00     -168.011       39.852      -19.493       56.480       32.624       27.122     3189.999     1064.346      735.586        1.759        0.249      172.672       22.158        0.016      337.648        9.764      854.091
10/09/2013  22:21:00      -77.729      -86.384        2.866      132.431       75.835       54.906    17538.033     5750.992     3014.641        1.990        1.315      116.206       71.576        0.379      337.667        9.797      854.111
10/09/2013  22:22:00       15.501       16.953        3.067       34.588       24.557       25.033     1196.313      603.045      626.644        0.148        0.121       22.971       12.165        0.280      337.706        9.859      854.133
10/09/2013  22:23:00      -68.751      -36.610       -1.369       52.703       41.709       22.730     2777.585     1739.673      516.670        0.555        0.252       77.891       20.392        0.069      337.677        9.814      854.178
10/09/2013  22:24:00     -134.569       -8.219      -11.856       59.834       59.058       30.108     3580.063     3487.839      906.513        1.314        0.399      134.819       36.236        0.072      337.672        9.805      854.210
10/09/2013  22:25:00      -59.978      -15.424       -4.237       67.927       44.482       28.384     4614.041     1978.617      805.636        0.562        0.370       61.929       33.974        0.301      337.699        9.848      854.226
10/09/2013  22:26:00     -108.598      -12.011       -3.978       56.103       51.325       40.958     3147.588     2634.305     1677.528        0.971        0.373      109.260       24.960        0.052      337.674        9.808      854.247
10/09/2013  22:27:00      -82.396       10.521        2.473       55.074       34.388       25.158     3033.102     1182.560      632.933        0.588        0.242       83.065       22.221        0.072      337.689        9.832      854.271
10/09/2013  22:28:00     -152.781       54.682      -19.538       59.331       62.489       36.986     3520.222     3904.903     1367.975        1.775        0.440      162.272       29.109        0.032      337.652        9.770      854.273
10/09/2013  22:29:00     -189.133      -54.379      -18.126       42.672       36.724       27.325     1820.897     1348.676      746.679        2.149        0.196      196.796       21.277        0.012      337.655        9.776      854.256
10/09/2013  22:30:00     -172.923      -36.030       -4.374       63.573       40.534       37.167     4041.486     1642.980     1381.374        1.914        0.353      176.637       30.117        0.029      337.650        9.767      854.253
10/09/2013  22:31:00      -90.644       52.518       -2.682       45.603       56.030       38.280     2079.610     3139.389     1465.350        0.883        0.334      104.759       30.149        0.083      337.632        9.738      854.267
10/09/2013  22:32:00     -114.869      -32.971       -0.243      127.096       81.082       44.744    16153.355     6574.258     2002.050        1.950        1.236      119.507       48.314        0.163      337.652        9.770      854.273
10/09/2013  22:33:00     -241.533      -55.912      -33.382       67.594       60.420       45.984     4568.941     3650.611     2114.485        3.645        0.517      247.920       25.705        0.011      337.642        9.752      854.275
10/09/2013  22:34:00     -186.806       62.433      -30.006       57.165       70.862       42.913     3267.880     5021.490     1841.522        2.491        0.507      196.963       41.737        0.045      337.637        9.743      854.273
10/09/2013  22:35:00     -152.397       62.863      -11.698       78.839       57.554       45.144     6215.643     3312.448     2037.980        1.944        0.578      164.853       48.455        0.086      337.616        9.709      854.247
10/09/2013  22:36:00     -189.718       38.625      -24.031       67.672       60.199       31.386     4579.538     3623.881      985.087        2.362        0.459      193.610       34.449        0.032      337.600        9.682      854.220
10/09/2013  22:37:00     -164.616       31.698      -29.249       64.303       61.422       36.115     4134.868     3772.615     1304.292        1.908        0.461      167.640       40.112        0.057      337.572        9.636      854.192
10/09/2013  22:38:00      -91.951       13.755        2.667       68.977       54.431       40.554     4757.808     2962.754     1644.595        0.901        0.468       92.975       38.456        0.171      337.581        9.653      854.155
10/09/2013  22:39:00     -102.787       33.630      -20.681       48.194       50.539       29.078     2322.707     2554.199      845.524        0.892        0.286      108.149       23.798        0.048      337.598        9.679      854.134
10/09/2013  22:40:00     -165.347      -11.468      -22.033       49.330       70.981       35.685     2433.430     5038.315     1273.392        1.835        0.437      165.744       20.296        0.015      337.590        9.665      854.120
10/09/2013  22:41:00      -91.546      -12.946        1.413       70.367       46.284       28.900     4951.453     2142.247      835.213        0.824        0.396       92.457       23.783        0.066      337.572        9.638      854.108
10/09/2013  22:42:00     -149.300      -18.941      -14.932       37.866       33.629       25.442     1433.871     1130.876      647.272        1.304        0.161      150.497       11.199        0.006      337.567        9.627      854.097
10/09/2013  22:43:00      -96.912       43.998       -7.292       60.625       55.020       33.989     3675.411     3027.164     1155.261        0.962        0.393      106.432       26.945        0.064      337.566        9.626      854.100
10/09/2013  22:44:00     -107.232       90.648      -23.123       58.286       64.554       30.817     3397.273     4167.283      949.675        1.438        0.426      140.413       29.102        0.043      337.575        9.641      854.122
10/09/2013  22:45:00      -84.633      136.388      -17.504       44.786       64.000       34.511     2005.744     4096.001     1191.040        1.668        0.365      160.513       33.292        0.043      337.629        9.732      854.128
10/09/2013  22:46:00      -67.838       17.296       -5.352       33.596       43.935       21.775     1128.706     1930.288      474.162        0.423        0.177       70.008       19.254        0.076      337.588        9.663      854.141
10/09/2013  22:47:00      -70.770       49.472       -1.871       47.499       62.668       23.536     2256.149     3927.250      553.941        0.710        0.337       86.348       11.930        0.019      337.564        9.625      854.150
10/09/2013  22:48:00      -85.067       51.256       -9.677       55.800       89.990       37.790     3113.630     8098.248     1428.062        1.130        0.632       99.316       41.015        0.171      337.550        9.598      854.160
10/09/2013  22:49:00     -114.450       85.652      -30.101       70.037       52.938       35.918     4905.175     2802.382     1290.136        1.517        0.450      142.952       42.530        0.089      337.579        9.648      854.163
10/09/2013  22:50:00     -103.360      132.167      -20.533       34.754       45.358       31.616     1207.861     2057.361      999.546        1.642        0.213      167.784       21.849        0.017      337.532        9.569      854.168
10/09/2013  22:51:00      -94.383       75.008      -22.035       29.254       39.710       20.328      855.784     1576.898      413.240        0.893        0.142      120.559       12.291        0.010      337.553        9.605      854.178
10/09/2013  22:52:00     -101.328       38.503      -11.024       45.107       30.240       27.049     2034.646      914.435      731.653        0.778        0.184      108.397       26.782        0.061      337.529        9.565      854.184
10/09/2013  22:53:00      -82.773        5.854        3.126       52.930       42.332       31.489     2801.600     1792.020      991.588        0.624        0.279       82.979       21.458        0.067      337.498        9.512      854.173
10/09/2013  22:54:00     -135.127       66.182      -11.502       50.334       59.221       39.846     2533.561     3507.105     1587.665        1.520        0.381      150.463       21.433        0.020      337.489        9.496      854.189
10/09/2013  22:55:00     -138.643       72.502      -17.950       49.713       47.722       27.434     2471.397     2277.373      752.625        1.515        0.275      156.456       20.668        0.017      337.474        9.473      854.194
10/09/2013  22:56:00     -182.110       65.595      -34.396       54.796       53.356       32.081     3002.603     2846.830     1029.199        2.276        0.344      193.563       26.991        0.019      337.474        9.471      854.204
10/09/2013  22:57:00     -108.119       59.312      -14.574       32.165       31.518       24.695     1034.615      993.382      609.837        0.903        0.132      123.319       17.305        0.020      337.388        9.327      854.212
10/09/2013  22:58:00     -122.682       26.430      -19.575       35.136       37.171       22.387     1234.526     1381.684      501.199        0.962        0.156      125.496       14.722        0.014      337.427        9.392      854.208
10/09/2013  22:59:00     -134.595       11.932      -16.083       69.857       58.314       28.976     4880.036     3400.498      839.636        1.382        0.456      135.123       27.030        0.040      337.423        9.387      854.194
10/09/2013  23:00:00     -102.266      -20.554      -11.360       43.717       51.106       27.039     1911.174     2611.811      731.113        0.813        0.263      104.311       25.566        0.060      337.414        9.370      854.178
10/09/2013  23:01:00     -114.606       37.626      -25.618       54.674       53.447       36.991     2989.288     2856.538     1368.331        1.121        0.361      120.624       28.375        0.055      337.454        9.439      854.162
10/09/2013  23:02:00     -120.147        3.527      -21.571       35.436       45.358       32.680     1255.696     2057.311     1067.958        0.965        0.219      120.199       21.736        0.033      337.424        9.389      854.155
10/09/2013  23:03:00      -85.384       60.783      -30.104       40.287       61.622       24.827     1623.082     3797.280      616.396        0.896        0.302      104.809       19.803        0.036      337.429        9.396      854.166
10/09/2013  23:04:00     -152.021       12.386      -19.775       64.830       59.065       32.625     4202.866     3488.658     1064.406        1.620        0.438      152.525       27.432        0.032      337.414        9.371      854.179
10/09/2013  23:05:00     -122.162       43.261      -12.727       43.396       36.572       23.205     1883.180     1337.493      538.494        1.036        0.188      129.595       17.185        0.018      337.398        9.346      854.192
10/09/2013  23:06:00     -108.739       80.968      -18.193       40.288       49.600       30.432     1623.109     2460.117      926.101        1.186        0.250      135.572       27.545        0.041      337.402        9.351      854.202
10/09/2013  23:07:00      -80.118       14.345      -14.763       31.247       38.649       21.334      976.385     1493.764      455.138        0.488        0.146       81.393       17.723        0.047      337.381        9.318      854.199
10/09/2013  23:08:00      -67.567       -2.168       -5.029       50.952       44.369       24.884     2596.147     1968.566      619.192        0.489        0.259       67.602       24.972        0.136      337.351        9.265      854.185
10/09/2013  23:09:00      -88.562      -31.709        0.153       55.638       47.304       27.027     3095.620     2237.651      730.471        0.746        0.303       94.068       22.108        0.055      337.288        9.161      854.178
10/09/2013  23:10:00      -77.512      -30.812       -1.905       32.925       35.006       24.091     1084.040     1225.426      580.397        0.492        0.144       83.412       20.222        0.059      337.322        9.219      854.173
10/09/2013  23:11:00     -114.709      -20.523      -19.525       50.346       62.448       23.262     2534.737     3899.768      541.124        1.047        0.349      116.530       18.974        0.027      337.280        9.148      854.179
10/09/2013  23:12:00      -88.701      -19.968       -2.297       53.839       36.730       21.650     2898.597     1349.070      468.726        0.649        0.236       90.921       21.986        0.058      337.210        9.030      854.194
10/09/2013  23:13:00     -108.739      -47.689      -27.647       54.928       34.179       19.348     3017.110     1168.180      374.363        0.971        0.228      118.736       13.209        0.012      337.247        9.093      854.198
10/09/2013  23:14:00     -141.475      -54.940      -14.361       36.961       48.692       18.304     1366.117     2370.870      335.043        1.366        0.204      151.768       10.543        0.005      337.212        9.034      854.195
10/09/2013  23:15:00     -162.975      -26.275      -18.311       37.852       30.448       18.306     1432.778      927.092      335.118        1.514        0.135      165.079       15.666        0.009      337.185        8.987      854.195
10/09/2013  23:16:00     -166.118      -35.244      -16.941       37.029       31.906       20.286     1371.176     1017.989      411.519        1.596        0.140      169.815       15.629        0.008      337.106        8.855      854.208
10/09/2013  23:17:00     -169.249      -73.760      -18.797       42.152       50.680       32.958     1776.768     2568.429     1086.260        1.993        0.272      184.623       11.548        0.004      337.097        8.840      854.231
10/09/2013  23:18:00     -116.713      -59.748      -17.964       50.498       41.841       29.936     2550.056     1750.662      896.136        1.135        0.260      131.117       16.111        0.015      337.097        8.841      854.253
10/09/2013  23:19:00     -145.345      -61.690       -3.571       48.075       47.063       32.522     2311.223     2214.905     1057.671        1.526        0.279      157.895       32.365        0.042      337.028        8.724      854.268
10/09/2013  23:20:00     -104.894      -21.775        3.672       45.168       45.499       26.554     2040.172     2070.114      705.111        0.815        0.241      107.131       24.971        0.054      337.024        8.719      854.273
10/09/2013  23:21:00      -75.693      -29.405       -0.724       41.164       40.158       21.374     1694.489     1612.629      456.855        0.518        0.188       81.204       19.834        0.060      337.064        8.784      854.274
10/09/2013  23:22:00      -59.184      -16.674       -0.190       41.273       34.878       22.613     1703.467     1216.479      511.358        0.361        0.172       61.488       19.716        0.103      337.008        8.690      854.275
10/09/2013  23:23:00      -68.109      -27.884       -7.853       25.329       25.701       16.845      641.574      660.554      283.752        0.353        0.079       73.596       16.910        0.053      336.990        8.660      854.272
10/09/2013  23:24:00      -74.670       -8.923       -0.224       40.643       31.184       19.415     1651.883      972.454      376.942        0.433        0.150       75.201       20.689        0.076      336.955        8.603      854.285
10/09/2013  23:25:00     -132.988        4.525      -15.452       31.384       29.568       13.354      984.962      874.240      178.332        0.999        0.102      133.064       11.676        0.008      337.021        8.712      854.289
10/09/2013  23:26:00     -140.378      -20.339      -12.127       27.147       30.588       15.535      736.944      935.651      241.333        1.109        0.096      141.844        3.514        0.001      337.023        8.716      854.266
10/09/2013  23:27:00     -123.648      -16.960       -7.697       31.433       21.437       18.246      988.023      459.566      332.910        0.871        0.089      124.806       17.043        0.019      336.993        8.666      854.254
10/09/2013  23:28:00     -141.055       -1.008      -14.061       27.973       17.056       15.731      782.504      290.919      247.479        1.071        0.066      141.059       12.723        0.008      337.001        8.680      854.257
10/09/2013  23:29:00     -128.366      -33.519       -5.097       33.321       24.512       18.710     1110.285      600.858      350.055        0.984        0.103      132.670       19.485        0.022      336.987        8.655      854.253
10/09/2013  23:30:00     -110.661        6.274      -11.279       26.124       19.289       13.630      682.465      372.066      185.768        0.683        0.062      110.839       12.722        0.013      336.966        8.621      854.261
10/09/2013  23:31:00      -97.185       17.179       -8.420       19.528       19.750       14.943      381.348      390.080      223.283        0.540        0.050       98.692        7.895        0.006      336.950        8.593      854.253
10/09/2013  23:32:00      -91.648      -44.175       -3.857       29.418       33.424       20.817      865.410     1117.197      433.350        0.639        0.121      101.739       18.425        0.033      336.905        8.520      854.246
10/09/2013  23:33:00      -96.071       -8.485       -5.629       26.597       26.067       15.885      707.405      679.470      252.349        0.549        0.082       96.445       14.552        0.023      336.902        8.513      854.234
10/09/2013  23:34:00     -117.329       16.859       -5.361       33.265       46.999       22.749     1106.585     2208.928      517.498        0.896        0.192      118.534       19.222        0.026      336.960        8.611      854.222
10/09/2013  23:35:00      -55.444      -32.777        3.660       31.422       43.639       27.757      987.314     1904.352      770.455        0.391        0.183       64.408       23.803        0.137      336.969        8.626      854.204
10/09/2013  23:36:00      -56.949      -16.708       -5.748       25.408       23.798       15.011      645.549      566.346      225.328        0.250        0.072       59.349       11.797        0.040      336.923        8.550      854.212
10/09/2013  23:37:00      -85.032       -8.442      -11.408       15.265       24.925       14.471      233.010      621.271      209.403        0.425        0.053       85.450       11.162        0.017      336.947        8.590      854.231
10/09/2013  23:38:00     -115.774       63.236      -14.970       26.610       40.496       24.126      708.085     1639.930      582.078        1.028        0.147      131.919       19.998        0.023      337.082        8.815      854.242
10/09/2013  23:39:00      -60.193       16.967       -2.398       23.930       29.615       15.532      572.632      877.052      241.243        0.280        0.085       62.538        9.235        0.022      337.002        8.681      854.242
10/09/2013  23:40:00      -92.457      -13.857       -5.233       25.681       32.793       21.409      659.503     1075.374      458.348        0.548        0.110       93.490       14.296        0.023      336.918        8.542      854.246
10/09/2013  23:41:00     -121.014       25.323      -17.943       27.112       25.367       17.483      735.085      643.493      305.657        0.865        0.084      123.635       12.598        0.010      336.918        8.542      854.252
10/09/2013  23:42:00      -89.123       -9.803      -14.121       35.202       31.072       17.766     1239.187      965.480      315.641        0.538        0.126       89.661       13.908        0.024      336.915        8.536      854.250
10/09/2013  23:43:00     -113.832      -28.580      -11.221       34.121       33.376       23.107     1164.269     1113.934      533.917        0.836        0.141      117.365       16.520        0.020      336.819        8.376      854.267
10/09/2013  23:44:00     -132.722      -43.766      -14.817       36.217       38.106       26.651     1311.653     1452.095      710.266        1.161        0.174      139.752       20.734        0.022      336.793        8.333      854.289
10/09/2013  23:45:00     -151.606      -43.718       -8.761       54.915       43.395       24.942     3015.710     1883.119      622.107        1.525        0.276      157.784       26.939        0.029      336.785        8.320      854.293
10/09/2013  23:46:00     -127.946      -73.153      -13.830       45.690       43.683       30.227     2087.606     1908.240      913.656        1.341        0.245      147.382       23.299        0.025      336.849        8.426      854.291
10/09/2013  23:47:00     -115.992      -56.786       -2.932       55.330       34.228       23.619     3061.397     1171.544      557.852        1.074        0.240      129.146       16.938        0.017      336.842        8.413      854.283
10/09/2013  23:48:00      -67.199        9.531       -8.284       35.022       51.897       27.109     1226.524     2693.332      734.925        0.466        0.233       67.871        8.969        0.017      336.868        8.460      854.310
10/09/2013  23:49:00      -85.730       18.645       -9.466       48.976       60.771       34.659     2398.644     3693.132     1201.217        0.754        0.365       87.734       17.122        0.038      336.866        8.455      854.317
10/09/2013  23:50:00     -151.950      -32.618      -19.987       43.479       49.144       28.036     1890.425     2415.143      785.995        1.482        0.255      155.412       11.663        0.006      336.872        8.464      854.328
10/09/2013  23:51:00     -134.106       18.696      -30.416       35.825       52.020       28.623     1283.458     2706.069      819.284        1.203        0.240      135.403       17.276        0.016      336.859        8.443      854.338
10/09/2013  23:52:00     -121.659      -22.162      -15.956       52.931       49.058       24.647     2801.655     2406.682      607.468        1.068        0.291      123.661       16.401        0.018      336.868        8.457      854.327
10/09/2013  23:53:00      -91.983      -36.888        5.783       34.575       51.303       24.764     1195.400     2631.977      613.257        0.715        0.222       99.104       18.981        0.037      336.761        8.280      854.312
10/09/2013  23:54:00     -148.460      -46.569      -15.926       45.132       46.755       24.317     2036.896     2186.010      591.319        1.464        0.241      155.593       19.793        0.016      336.759        8.277      854.302
10/09/2013  23:55:00     -141.965      -39.262       -3.242       39.152       40.125       23.918     1532.849     1610.031      572.061        1.271        0.186      147.294       19.934        0.018      336.707        8.189      854.290
10/09/2013  23:56:00      -93.868      -31.871       -3.120       29.845       32.319       21.461      890.715     1044.530      460.572        0.612        0.120       99.131       19.488        0.039      336.713        8.200      854.281
10/09/2013  23:57:00      -86.872       -0.190       -3.435       35.988       38.003       17.814     1295.154     1444.197      317.331        0.531        0.153       86.873       10.905        0.016      336.712        8.199      854.273
10/09/2013  23:58:00      -53.126      -32.484        2.034       36.002       35.327       17.850     1296.137     1247.979      318.621        0.337        0.143       62.270       12.806        0.042      336.697        8.176      854.257
10/09/2013  23:59:00      -83.993      -17.811       -2.958       32.866       30.076       16.801     1080.179      904.573      282.265        0.482        0.113       85.861       18.400        0.046      336.702        8.181      854.229
